[[{"header":{"parameterUnit":"m.s-1","parameterCategory":1,"la1":30.6,"la2":29.2853,"lo1":-89.7004,"lo2":-87.6739,"dy":0.0162,"dx":0.0183,"nx":112,"ny":82,"refTime":"2025-07-06T12:00:00:Z","depth":0,"parameterNumber":2,"parameterNumberName":"U-component_of_WINDS"},"data":[0.0,0.0,0.0,0.0,0.0,0.0,0.0,0.0,0.0,0.0,0.0,0.0,0.0,0.0,0.0,0.0,0.0,0.0,0.0,0.0,0.0,0.0,0.0,0.0,0.0,0.0,0.0,0.0,0.0,0.0,0.0,0.0,0.0,0.0,0.0,0.0,0.0,0.0,0.0,0.0,0.0,0.0,0.0,0.0,0.0,0.0,0.0,0.0,0.0,0.0,0.0,0.0,0.0,0.0,0.0,0.0,0.0,0.0,0.0,0.0,0.0,0.0,0.0,0.0,0.0,0.0,0.0,0.0,0.0,0.0,0.0,0.0,0.0,0.0,0.0,0.0,0.0,0.0,0.0,0.0,0.0,0.0,0.0,0.0,0.0,0.0,0.0,0.0,0.0,0.0,0.0,-1.9531,-2.2678,-2.4604,-2.4604,-2.4494,-2.3111,-2.0121,0.0,0.0,0.0,0.0,0.0,0.0,0.0,0.0,0.0,0.0,0.0,0.0,0.0,0.0,0.0,0.0,0.0,0.0,0.0,0.0,0.0,0.0,0.0,0.0,0.0,0.0,0.0,0.0,0.0,0.0,0.0,0.0,0.0,0.0,0.0,0.0,0.0,0.0,0.0,0.0,0.0,0.0,0.0,0.0,0.0,0.0,0.0,0.0,0.0,0.0,0.0,0.0,0.0,0.0,0.0,0.0,0.0,0.0,0.0,0.0,0.0,0.0,0.0,0.0,0.0,0.0,0.0,0.0,0.0,0.0,0.0,0.0,0.0,0.0,0.0,0.0,0.0,0.0,0.0,0.0,0.0,0.0,0.0,0.0,0.0,0.0,0.0,0.0,0.0,0.0,0.0,0.0,0.0,0.0,0.0,0.0,0.0,0.0,0.0,0.0,0.0,0.0,0.0,0.0,-1.8277,-2.2614,-2.4338,-2.5192,-2.5192,-2.4386,-2.2919,-2.0634,0.0,0.0,0.0,0.0,0.0,0.0,0.0,0.0,0.0,0.0,0.0,0.0,0.0,0.0,0.0,0.0,0.0,0.0,0.0,0.0,0.0,0.0,0.0,0.0,0.0,0.0,0.0,0.0,0.0,0.0,0.0,0.0,0.0,0.0,0.0,0.0,0.0,0.0,0.0,0.0,0.0,0.0,0.0,0.0,0.0,0.0,0.0,0.0,0.0,0.0,0.0,0.0,0.0,0.0,0.0,0.0,0.0,0.0,0.0,0.0,0.0,0.0,0.0,0.0,0.0,0.0,0.0,0.0,0.0,0.0,0.0,0.0,0.0,0.0,0.0,0.0,0.0,0.0,0.0,0.0,0.0,0.0,0.0,0.0,0.0,0.0,0.0,0.0,0.0,0.0,0.0,0.0,0.0,0.0,0.0,0.0,0.0,0.0,0.0,0.0,0.0,0.0,0.0,-1.7761,-1.9841,-2.3761,-2.4855,-2.5312,-2.5312,-2.4362,-2.2891,-2.073,-1.8554,0.0,0.0,0.0,0.0,0.0,0.0,0.0,0.0,0.0,0.0,0.0,0.0,0.0,0.0,0.0,0.0,0.0,0.0,0.0,0.0,0.0,0.0,0.0,0.0,0.0,0.0,0.0,0.0,0.0,0.0,0.0,0.0,0.0,0.0,0.0,0.0,0.0,0.0,0.0,0.0,0.0,0.0,0.0,0.0,0.0,0.0,0.0,0.0,0.0,0.0,0.0,0.0,0.0,0.0,0.0,0.0,0.0,0.0,0.0,0.0,0.0,0.0,0.0,0.0,0.0,0.0,0.0,0.0,0.0,0.0,0.0,0.0,0.0,0.0,0.0,0.0,0.0,0.0,0.0,0.0,0.0,0.0,0.0,0.0,0.0,0.0,0.0,0.0,0.0,0.0,0.0,0.0,0.0,0.0,0.0,0.0,0.0,0.0,0.0,0.0,0.0,0.0,-2.0169,-2.1608,-2.441,-2.5071,-2.5312,-2.5312,-2.4133,-2.2626,-2.0711,-1.7736,0.0,0.0,0.0,0.0,0.0,0.0,0.0,0.0,0.0,0.0,0.0,0.0,0.0,0.0,0.0,0.0,0.0,0.0,0.0,0.0,0.0,0.0,0.0,0.0,0.0,0.0,0.0,0.0,0.0,0.0,0.0,0.0,0.0,0.0,0.0,0.0,0.0,0.0,0.0,0.0,0.0,0.0,0.0,0.0,0.0,0.0,0.0,0.0,0.0,0.0,0.0,0.0,0.0,0.0,0.0,0.0,0.0,0.0,0.0,0.0,0.0,0.0,0.0,0.0,0.0,0.0,0.0,0.0,0.0,0.0,0.0,0.0,0.0,0.0,0.0,0.0,0.0,0.0,0.0,0.0,0.0,0.0,0.0,0.0,0.0,0.0,0.0,0.0,0.0,0.0,0.0,0.0,0.0,0.0,0.0,0.0,0.0,0.0,0.0,0.0,0.0,0.0,-2.1223,-2.34,-2.5071,-2.5288,-2.5312,-2.5312,-2.346,-2.1801,-2.0663,-1.6749,0.0,0.0,0.0,0.0,0.0,0.0,0.0,0.0,0.0,0.0,0.0,0.0,0.0,0.0,0.0,0.0,0.0,0.0,0.0,0.0,0.0,0.0,0.0,0.0,0.0,0.0,0.0,0.0,0.0,0.0,0.0,0.0,0.0,0.0,0.0,0.0,0.0,0.0,0.0,0.0,0.0,0.0,0.0,0.0,0.0,0.0,0.0,0.0,0.0,0.0,0.0,0.0,0.0,0.0,0.0,0.0,0.0,0.0,0.0,0.0,0.0,0.0,0.0,0.0,0.0,0.0,0.0,0.0,0.0,0.0,0.0,0.0,0.0,0.0,0.0,0.0,0.0,0.0,0.0,0.0,0.0,0.0,0.0,0.0,0.0,0.0,0.0,0.0,0.0,0.0,0.0,0.0,0.0,0.0,0.0,0.0,0.0,0.0,0.0,0.0,0.0,0.0,-2.0947,-2.2847,0.0,-2.5312,-2.5312,-2.5312,-2.4001,-2.2457,-2.0711,0.0,0.0,0.0,0.0,0.0,0.0,0.0,0.0,0.0,0.0,0.0,0.0,0.0,0.0,0.0,0.0,0.0,0.0,0.0,0.0,0.0,0.0,0.0,0.0,0.0,0.0,0.0,0.0,0.0,0.0,0.0,0.0,0.0,0.0,0.0,0.0,0.0,0.0,0.0,0.0,0.0,0.0,0.0,0.0,0.0,0.0,0.0,0.0,0.0,0.0,0.0,0.0,0.0,0.0,0.0,0.0,0.0,0.0,0.0,0.0,0.0,0.0,0.0,0.0,0.0,0.0,0.0,0.0,0.0,0.0,0.0,0.0,0.0,0.0,0.0,0.0,0.0,0.0,0.0,0.0,0.0,0.0,0.0,0.0,0.0,0.0,0.0,0.0,0.0,0.0,0.0,0.0,0.0,0.0,0.0,0.0,0.0,0.0,0.0,0.0,0.0,0.0,-1.9326,-2.1175,-2.2967,0.0,-2.5312,-2.5312,-2.5312,-2.4061,-2.2529,-2.0694,0.0,0.0,0.0,0.0,0.0,0.0,0.0,0.0,0.0,0.0,0.0,0.0,0.0,0.0,0.0,0.0,0.0,0.0,0.0,0.0,0.0,0.0,0.0,0.0,0.0,0.0,0.0,0.0,0.0,0.0,0.0,0.0,0.0,0.0,0.0,0.0,0.0,0.0,0.0,0.0,0.0,0.0,0.0,0.0,0.0,0.0,0.0,0.0,0.0,0.0,0.0,0.0,0.0,0.0,0.0,0.0,0.0,0.0,0.0,0.0,0.0,0.0,0.0,0.0,0.0,0.0,0.0,0.0,0.0,0.0,0.0,0.0,0.0,0.0,0.0,0.0,0.0,0.0,0.0,0.0,0.0,0.0,0.0,0.0,0.0,0.0,0.0,0.0,0.0,0.0,0.0,0.0,0.0,0.0,0.0,0.0,0.0,0.0,0.0,0.0,0.0,0.0,-1.9444,-2.2144,-2.4203,-2.5204,-2.5312,-2.5312,-2.5312,-2.3412,-2.1753,0.0,0.0,0.0,0.0,0.0,0.0,0.0,0.0,0.0,0.0,0.0,0.0,0.0,0.0,0.0,0.0,0.0,0.0,0.0,0.0,0.0,0.0,0.0,0.0,0.0,0.0,0.0,0.0,0.0,0.0,0.0,0.0,0.0,0.0,0.0,0.0,0.0,0.0,0.0,0.0,0.0,0.0,0.0,0.0,0.0,0.0,0.0,0.0,0.0,0.0,0.0,0.0,0.0,0.0,0.0,0.0,0.0,0.0,0.0,0.0,0.0,0.0,0.0,0.0,0.0,0.0,0.0,0.0,0.0,0.0,0.0,0.0,0.0,0.0,0.0,0.0,0.0,0.0,0.0,0.0,0.0,0.0,0.0,0.0,0.0,0.0,0.0,0.0,0.0,0.0,0.0,0.0,0.0,0.0,0.0,0.0,0.0,0.0,0.0,0.0,0.0,0.0,0.0,-1.9985,-2.2397,-2.4336,-2.5721,-2.5528,-2.5456,-2.5829,-2.4324,-2.2554,-2.0723,0.0,0.0,0.0,0.0,0.0,0.0,0.0,0.0,0.0,0.0,0.0,0.0,0.0,0.0,0.0,0.0,0.0,0.0,0.0,0.0,0.0,0.0,0.0,0.0,0.0,0.0,0.0,0.0,0.0,0.0,0.0,0.0,0.0,0.0,0.0,0.0,0.0,0.0,0.0,0.0,0.0,0.0,0.0,0.0,0.0,0.0,0.0,0.0,0.0,0.0,0.0,0.0,0.0,0.0,0.0,0.0,0.0,0.0,0.0,0.0,0.0,0.0,0.0,0.0,0.0,0.0,0.0,0.0,0.0,0.0,0.0,0.0,0.0,0.0,0.0,0.0,0.0,0.0,0.0,0.0,0.0,0.0,0.0,0.0,0.0,0.0,0.0,0.0,0.0,0.0,0.0,0.0,0.0,0.0,0.0,0.0,0.0,0.0,0.0,0.0,0.0,0.0,-2.0189,-2.263,-2.459,-2.5949,-2.6009,-2.5997,-2.6093,-2.5047,-2.3388,-2.1084,0.0,0.0,0.0,0.0,0.0,0.0,0.0,0.0,0.0,0.0,0.0,0.0,0.0,0.0,0.0,0.0,0.0,0.0,0.0,0.0,0.0,0.0,0.0,0.0,0.0,0.0,0.0,0.0,0.0,0.0,0.0,0.0,0.0,0.0,0.0,0.0,0.0,0.0,0.0,0.0,0.0,0.0,0.0,0.0,0.0,0.0,0.0,0.0,0.0,0.0,0.0,0.0,0.0,0.0,0.0,0.0,0.0,0.0,0.0,0.0,0.0,0.0,0.0,0.0,0.0,0.0,0.0,0.0,0.0,0.0,0.0,0.0,0.0,0.0,0.0,0.0,0.0,0.0,0.0,0.0,0.0,0.0,0.0,0.0,0.0,0.0,0.0,0.0,0.0,0.0,0.0,0.0,0.0,0.0,0.0,0.0,0.0,0.0,0.0,0.0,0.0,0.0,-2.0278,-2.2955,-2.5011,-2.6129,-2.6621,-2.6693,-2.6226,-2.5636,-2.4218,-2.1644,0.0,0.0,0.0,0.0,0.0,0.0,0.0,0.0,0.0,0.0,0.0,0.0,0.0,0.0,0.0,0.0,0.0,0.0,0.0,0.0,0.0,0.0,0.0,0.0,0.0,0.0,0.0,0.0,0.0,0.0,0.0,0.0,0.0,0.0,0.0,0.0,0.0,0.0,0.0,0.0,0.0,0.0,0.0,0.0,0.0,0.0,0.0,0.0,0.0,0.0,0.0,0.0,0.0,0.0,0.0,0.0,0.0,0.0,0.0,0.0,-1.7419,0.0,0.0,0.0,0.0,0.0,0.0,0.0,0.0,0.0,0.0,0.0,0.0,0.0,0.0,0.0,0.0,0.0,0.0,0.0,0.0,0.0,0.0,0.0,0.0,0.0,0.0,0.0,0.0,0.0,0.0,0.0,0.0,0.0,0.0,0.0,0.0,0.0,0.0,0.0,0.0,0.0,-2.0875,-2.3508,-2.5709,-2.7212,-2.7066,-2.6849,-2.6729,-2.5865,-2.4362,-2.2161,0.0,0.0,0.0,0.0,0.0,0.0,0.0,0.0,0.0,0.0,0.0,0.0,0.0,0.0,0.0,0.0,0.0,0.0,0.0,0.0,0.0,0.0,0.0,0.0,0.0,0.0,0.0,0.0,0.0,0.0,0.0,0.0,0.0,0.0,0.0,0.0,0.0,0.0,0.0,0.0,0.0,0.0,0.0,0.0,0.0,0.0,0.0,0.0,0.0,0.0,0.0,0.0,0.0,0.0,0.0,0.0,0.0,0.0,0.0,0.0,0.0,-1.8515,0.0,0.0,0.0,0.0,0.0,0.0,0.0,0.0,0.0,0.0,0.0,0.0,0.0,0.0,0.0,0.0,0.0,0.0,0.0,0.0,0.0,0.0,0.0,0.0,0.0,0.0,0.0,0.0,0.0,0.0,0.0,0.0,0.0,0.0,0.0,0.0,0.0,0.0,0.0,0.0,-2.144,-2.4073,-2.6202,-2.7572,-2.7666,-2.7546,-2.7294,-2.6525,-2.53,-2.3424,-2.156,0.0,0.0,0.0,0.0,0.0,0.0,0.0,0.0,0.0,0.0,0.0,0.0,0.0,0.0,0.0,0.0,0.0,0.0,0.0,0.0,0.0,0.0,0.0,0.0,0.0,0.0,0.0,0.0,0.0,0.0,0.0,0.0,0.0,0.0,0.0,0.0,0.0,0.0,0.0,0.0,0.0,0.0,0.0,0.0,0.0,0.0,0.0,0.0,0.0,0.0,0.0,0.0,0.0,-2.3445,-2.329,-2.288,-2.3121,-2.3464,-2.3722,-2.0995,-2.0604,-2.1675,0.0,0.0,0.0,0.0,0.0,0.0,0.0,0.0,0.0,0.0,0.0,0.0,0.0,0.0,0.0,0.0,0.0,0.0,0.0,0.0,0.0,0.0,0.0,0.0,0.0,-2.3616,-2.3481,0.0,0.0,0.0,0.0,0.0,0.0,0.0,0.0,0.0,0.0,0.0,0.0,-2.2149,-2.4759,-2.6755,-2.7714,-2.8246,-2.8294,-2.7726,-2.7198,-2.6249,-2.4759,-2.328,-2.1596,0.0,0.0,0.0,0.0,0.0,0.0,0.0,0.0,0.0,0.0,0.0,0.0,0.0,0.0,0.0,0.0,0.0,0.0,0.0,0.0,0.0,0.0,0.0,0.0,0.0,0.0,0.0,0.0,0.0,0.0,0.0,0.0,-1.4833,-1.602,0.0,0.0,0.0,0.0,0.0,0.0,0.0,0.0,0.0,0.0,0.0,0.0,0.0,0.0,-2.5457,-2.5582,-2.5885,-2.6388,-2.6087,-2.5896,-2.5805,-2.5475,-2.5846,-2.6744,-2.5371,0.0,-2.4661,-2.4502,0.0,0.0,0.0,0.0,0.0,0.0,0.0,0.0,0.0,0.0,0.0,0.0,0.0,0.0,0.0,0.0,0.0,0.0,0.0,0.0,0.0,0.0,-2.6633,-2.5793,-2.6057,-2.625,0.0,-2.2614,-2.029,-1.9929,-1.841,0.0,0.0,0.0,0.0,0.0,0.0,0.0,-2.3372,-2.5865,-2.7702,-2.8342,-2.8474,-2.8294,-2.7726,-2.7198,-2.6405,-2.5276,-2.4169,-2.3047,-2.1825,-2.0286,0.0,0.0,0.0,0.0,0.0,0.0,0.0,0.0,0.0,0.0,0.0,0.0,0.0,0.0,0.0,0.0,0.0,0.0,0.0,0.0,0.0,0.0,0.0,0.0,0.0,0.0,0.0,0.0,0.0,-1.4562,-1.6643,-1.7399,-1.7832,-1.782,0.0,0.0,0.0,0.0,0.0,0.0,0.0,0.0,0.0,-2.5925,-2.6574,-2.7488,-2.8775,-2.9118,-2.9223,-2.9121,-2.8943,-2.8404,-2.7589,-2.7366,-2.7221,-2.721,-2.7889,-2.8073,-2.7762,-2.5466,-2.387,-2.2892,0.0,0.0,0.0,0.0,-2.4634,-2.4987,-2.5877,-2.619,0.0,0.0,0.0,0.0,0.0,0.0,0.0,0.0,0.0,0.0,0.0,0.0,0.0,-2.7428,-2.7645,-2.7714,-2.75,-2.5949,-2.4145,0.0,-2.2089,-2.1019,-1.841,0.0,0.0,0.0,0.0,0.0,-2.4879,-2.6622,-2.7933,-2.845,-2.851,-2.8414,-2.8186,-2.7366,-2.6693,-2.6213,-2.4939,-2.3989,-2.352,-2.1981,-2.0273,0.0,0.0,0.0,0.0,0.0,0.0,0.0,0.0,0.0,0.0,0.0,0.0,0.0,0.0,0.0,0.0,0.0,0.0,0.0,0.0,0.0,0.0,0.0,0.0,0.0,0.0,0.0,0.0,-1.6474,-1.8434,-1.8963,-2.0097,-2.041,0.0,0.0,0.0,0.0,0.0,0.0,-2.4699,-2.5528,-2.6803,-2.8667,-2.9629,-3.0567,-3.148,-3.1642,-3.1513,-3.1052,-3.06,-2.998,-2.9103,-2.8927,-2.8776,-2.8675,-2.991,-3.0575,-3.0506,-2.7345,-2.5649,-2.508,-2.551,-2.5504,-2.5462,-2.7396,-2.815,-2.8318,-2.9496,-2.9905,-2.9641,-2.8041,0.0,-2.6346,-2.4398,0.0,0.0,0.0,0.0,-2.5516,-2.6779,-2.7428,-2.7906,-2.8727,-2.8919,-2.8871,-2.8739,-2.8402,-2.7464,0.0,-2.518,-2.447,-2.1175,0.0,0.0,0.0,0.0,-2.4843,-2.6142,-2.726,-2.8077,-2.8474,-2.851,-2.851,-2.851,-2.7498,-2.6898,-2.6898,-2.5505,-2.4688,-2.4688,-2.3472,-2.2041,-2.0458,0.0,0.0,0.0,0.0,0.0,0.0,0.0,0.0,0.0,0.0,0.0,0.0,0.0,0.0,0.0,0.0,0.0,0.0,0.0,0.0,0.0,0.0,0.0,0.0,0.0,0.0,0.0,0.0,0.0,-2.1175,-2.265,0.0,0.0,0.0,0.0,-2.3529,-2.453,-2.5817,-2.744,-2.8979,-3.0314,-3.1476,-3.2034,-3.2611,-3.3164,-3.2265,-3.1793,-3.1733,-3.0123,-2.9846,-3.0782,-3.0117,-3.0925,-3.2821,-3.1905,-3.1912,-3.2448,-3.2181,-3.2027,-3.1965,-3.148,-3.1273,-3.1261,-3.1408,-3.1476,-3.1476,-3.156,-3.1585,-3.1573,-3.1464,-3.0025,-2.8366,-2.8234,-2.745,0.0,0.0,-2.8619,-2.9148,-2.9737,-2.9905,-2.9941,-2.9989,-3.0013,-2.9869,-2.9364,-2.9232,-2.8883,0.0,-2.6731,-2.5829,-2.5119,0.0,-2.435,-2.4256,-2.5252,-2.6202,-2.6777,-2.7813,-2.8474,-2.851,-2.851,-2.851,-2.851,-2.7498,-2.6898,-2.6898,-2.5853,-2.5264,-2.5264,-2.4711,-2.3664,-2.2101,-2.0482,0.0,0.0,0.0,0.0,0.0,0.0,0.0,0.0,0.0,0.0,0.0,0.0,0.0,0.0,0.0,0.0,0.0,0.0,0.0,0.0,0.0,0.0,0.0,0.0,0.0,0.0,0.0,0.0,-2.3773,-2.5035,0.0,0.0,-2.5552,-2.619,-2.7248,-2.7981,-2.9088,-3.0711,-3.1336,-3.1973,-3.2683,-3.3212,-3.3694,-3.427,-3.3499,-3.3304,-3.3687,-3.1579,-3.118,-3.2293,-3.0514,-3.0963,-3.3172,-3.2702,-3.3072,-3.4081,-3.4754,-3.3465,-3.1137,-3.1576,-3.1739,-3.1832,-3.2466,-3.2707,-3.2707,-3.2707,-3.2707,-3.2647,-3.231,-3.1216,-3.0025,-3.0025,-2.9532,-2.9039,-2.9412,-2.9665,-2.9845,-3.0037,-3.0086,-3.0086,-3.0086,-3.0086,-3.0037,-2.9845,-2.9797,-2.9593,-2.8871,-2.815,-2.726,-2.6033,-2.6238,-2.6346,-2.5636,-2.6454,-2.7332,-2.7846,-2.827,-2.851,-2.851,-2.851,-2.851,-2.851,-2.7498,-2.6741,-2.6418,-2.5396,-2.465,-2.4372,-2.4133,-2.346,-2.2209,-2.1296,-1.9516,0.0,0.0,0.0,0.0,0.0,0.0,0.0,0.0,0.0,0.0,0.0,0.0,0.0,0.0,0.0,0.0,0.0,0.0,0.0,0.0,0.0,0.0,0.0,0.0,0.0,0.0,-2.441,-2.5456,-2.7007,-2.7933,-2.7753,-2.8366,-2.922,-3.0302,-3.0699,-3.1444,-3.2695,-3.2923,-3.326,-3.3789,-3.4258,-3.4775,-3.5352,-3.4913,-3.4886,-3.5338,-3.3356,-3.3048,-3.4223,-3.2244,-3.2405,-3.4275,-3.4159,-3.4589,-3.539,-3.6093,-3.4807,-3.2412,-3.3073,-3.3377,-3.3402,-3.3887,-3.4078,-3.4054,-3.3873,-3.3693,-3.3489,-3.3128,-3.2418,-3.1697,-3.1697,-3.1444,-3.1132,-3.0951,-3.0903,-3.0855,-3.0675,-3.0657,-3.0657,-3.0657,-3.0657,-3.0567,-3.0398,-3.035,-3.0194,-2.9665,-2.9136,-2.8378,-2.7128,-2.7512,-2.7741,-2.7019,-2.7524,-2.8114,-2.8462,-2.851,-2.851,-2.851,-2.851,-2.851,-2.851,-2.7498,-2.6741,-2.6406,-2.5372,-2.4554,-2.4049,-2.389,-2.3312,-2.2209,-2.15,-2.0261,-1.847,0.0,0.0,0.0,0.0,0.0,0.0,0.0,0.0,0.0,0.0,0.0,0.0,0.0,0.0,0.0,0.0,0.0,0.0,0.0,0.0,0.0,0.0,0.0,-2.1548,-2.4206,-2.6178,-2.6238,-2.8546,-2.9941,-2.9448,-3.0338,-3.1396,-3.2466,-3.2551,-3.2791,-3.3332,-3.3825,-3.4282,-3.4811,-3.5376,-3.5893,-3.6423,-3.6384,-3.6384,-3.6459,-3.5333,-3.5385,-3.6396,-3.5282,-3.5397,-3.6459,-3.6396,-3.6408,-3.6459,-3.6459,-3.6459,-3.6459,-3.6423,-3.6411,-3.6338,-3.5833,-3.5629,-3.5545,-3.504,-3.445,-3.4018,-3.4018,-3.3729,-3.3308,-3.3308,-3.3308,-3.3176,-3.2671,-3.2527,-3.2394,-3.1886,-3.1729,-3.1729,-3.1717,-3.1705,-3.1573,-3.1055,-3.0946,-3.079,-3.0218,-2.9701,-2.9172,-2.8631,-2.8522,-2.851,-2.851,-2.851,0.0,-2.851,-2.851,-2.851,-2.851,-2.851,-2.851,-2.851,-2.7522,-2.691,-2.6873,-2.5865,-2.5071,-2.4508,-2.4049,-2.3348,-2.2282,-2.1235,-2.067,-2.0675,0.0,0.0,0.0,0.0,0.0,0.0,0.0,0.0,0.0,0.0,0.0,0.0,0.0,0.0,0.0,0.0,0.0,0.0,0.0,0.0,0.0,0.0,-2.4807,-2.4807,-2.6226,-2.7849,-2.9376,-3.0585,-3.1336,-3.1601,-3.2238,-3.2899,-3.3514,-3.3574,-3.4018,-3.4931,-3.5112,-3.5425,-3.5954,-3.611,-3.6447,-3.6976,-3.6097,-3.6297,-3.7553,-3.5472,-3.558,-3.7488,-3.5418,-3.5634,-3.75,-3.6632,-3.6738,-3.7553,-3.7553,-3.7553,-3.7469,-3.6699,-3.6411,-3.6386,-3.6242,-3.5942,-3.5593,-3.5449,-3.5003,-3.457,-3.457,-3.421,-3.379,-3.379,-3.3585,-3.326,-3.3116,-3.308,-3.2947,-3.2406,-3.2274,-3.2166,-3.1801,-3.1705,-3.1669,-3.1524,-3.1488,-3.1332,-3.0759,-3.0543,-3.0158,-2.9232,-2.8763,-2.851,-2.851,-2.851,0.0,-2.851,-2.851,-2.851,-2.851,-2.851,-2.851,-2.851,-2.7858,-2.7126,-2.6382,-2.5685,-2.5071,-2.4508,-2.4386,-2.4181,-2.3881,-2.2859,-2.233,0.0,0.0,0.0,0.0,0.0,0.0,0.0,0.0,0.0,0.0,0.0,0.0,0.0,0.0,0.0,0.0,0.0,0.0,0.0,0.0,0.0,0.0,-2.5083,-2.7079,-2.7969,-2.8643,-2.9581,-3.1079,-3.1729,-3.231,-3.3068,-3.3428,-3.3813,-3.4282,-3.4522,-3.4919,-3.5581,-3.5821,-3.6194,-3.6723,-3.6735,-3.6988,-3.7517,-3.6861,-3.7015,-3.7974,-3.6599,-3.6654,-3.7921,-3.6545,-3.6654,0.0,-3.7269,-3.7322,-3.7986,-3.7986,-3.7986,0.0,0.0,0.0,0.0,0.0,-3.6398,-3.5954,-3.5954,-3.5605,-3.516,-3.516,-3.4751,-3.4318,-3.4318,-3.4114,-3.3885,-3.3669,-3.3609,-3.3489,-3.2959,-3.2671,-3.2418,-3.2094,-3.1874,-3.1705,-3.1705,-3.1705,-3.1621,-3.1308,-3.1067,0.0,-3.0062,-2.934,-2.8763,-2.8546,-2.851,-2.851,-2.851,-2.851,-2.851,-2.851,-2.851,-2.851,-2.851,-2.8029,0.0,0.0,0.0,-2.5648,-2.4879,-2.4604,0.0,0.0,0.0,0.0,0.0,0.0,0.0,0.0,-2.2606,-2.2582,0.0,0.0,0.0,0.0,0.0,0.0,0.0,0.0,0.0,0.0,0.0,0.0,0.0,0.0,0.0,0.0,-2.7248,-2.8739,-3.0615,-3.0975,-3.1284,-3.1741,-3.225,-3.2971,-3.3898,-3.4042,-3.4294,-3.4823,-3.5352,-3.5665,-3.5785,0.0,0.0,0.0,0.0,-3.7505,-3.7974,-3.7986,-3.7986,-3.7986,-3.7986,-3.7986,-3.7986,-3.7986,-3.7986,-3.7986,-3.7986,-3.7986,-3.7986,-3.7986,-3.7986,-3.7986,-3.7986,-3.7986,-3.7926,-3.7457,-3.6952,-3.6495,-3.6495,0.0,0.0,-3.5701,-3.5352,-3.4871,-3.4871,-3.4823,-3.4679,-3.421,-3.4078,-3.397,-3.3501,-3.3032,-3.2659,-3.2599,-3.2166,-3.1801,-3.1801,-3.1753,-3.1705,-3.1705,-3.1332,-3.0995,-3.0922,-3.005,-2.9208,-2.8679,-2.8595,-2.8582,-2.8522,-2.851,-2.851,-2.851,0.0,0.0,-2.851,-2.8077,-2.775,-2.7678,-2.7246,-2.6549,-2.5624,-2.5192,-2.5168,-2.5576,-2.5576,-2.6057,-2.6982,-2.745,-2.7474,-2.7018,-2.4638,-2.4013,0.0,0.0,0.0,0.0,0.0,0.0,0.0,0.0,0.0,0.0,0.0,0.0,0.0,0.0,0.0,-2.6561,-2.8739,-3.041,-3.0819,-3.1637,-3.2226,-3.2322,-3.2815,-3.3368,-3.3934,-3.4378,-3.4895,-3.5425,-3.5557,-3.599,-3.6843,-3.6988,0.0,-3.7817,-3.7829,-3.7878,-3.7986,-3.7986,-3.7986,-3.7986,0.0,0.0,-3.7986,-3.7986,-3.7986,-3.7986,-3.7986,-3.7986,-3.7986,-3.7986,-3.7986,-3.7986,-3.7986,-3.7986,-3.7974,-3.7866,-3.7493,-3.7048,-3.7048,-3.6699,-3.6254,-3.6254,-3.5893,-3.5473,-3.5473,-3.5111,0.0,-3.4655,-3.4631,-3.4498,-3.3982,-3.3778,-3.3598,-3.3236,-3.2731,-3.2346,-3.2346,-3.203,-3.1705,-3.1705,-3.1633,-3.1416,-3.0995,-3.035,-2.9749,-2.9232,-2.9148,-2.8991,-2.857,-2.851,-2.851,-2.851,-2.851,-2.851,-2.851,-2.8414,-2.8174,-2.7753,-2.7582,-2.7438,-2.7222,-2.7572,-2.7584,-2.7222,-2.726,-2.7356,-2.7534,-2.763,-2.7885,-2.8186,-2.7248,-2.6911,0.0,0.0,0.0,0.0,0.0,0.0,0.0,0.0,0.0,0.0,0.0,-2.3376,0.0,0.0,-2.7657,-2.8739,-3.0013,-3.1072,-3.1613,-3.2154,-3.2599,-3.2863,-3.3344,-3.3861,-3.4342,-3.4871,-3.5328,-3.5593,-3.611,-3.6627,-3.7168,-3.7445,-3.7709,-3.7974,-3.7986,-3.7986,-3.7986,-3.7986,-3.7986,-3.7986,-3.7986,-3.7986,-3.7986,-3.7986,-3.7986,-3.7986,-3.7986,-3.7986,-3.7986,-3.7986,-3.7986,-3.7986,-3.7986,-3.7986,-3.7986,-3.7986,-3.7817,-3.7589,-3.7589,-3.724,-3.6795,-3.6795,-3.6447,-3.5966,-3.5701,-3.5437,-3.5111,-3.4907,-3.4775,-3.4715,-3.445,-3.4186,-3.3934,-3.3729,-3.3272,-3.2827,-3.2563,-3.2286,-3.1997,-3.1765,-3.1705,-3.1621,-3.1356,-3.1091,-3.0645,-2.9809,-2.9689,-2.9508,-2.8979,-2.8907,-2.8799,-2.8546,-2.851,-2.851,-2.851,-2.851,-2.8402,-2.8138,-2.8114,-2.8114,-2.8114,-2.8366,-2.8378,-2.8126,-2.8114,-2.8114,-2.8114,-2.8114,-2.8246,-2.851,-2.851,-2.8366,0.0,0.0,0.0,0.0,0.0,0.0,0.0,0.0,-2.2702,-2.4073,-2.5023,-2.5997,-2.727,-2.833,-2.9424,-3.085,-3.1163,-3.1529,-3.2515,-3.2743,-3.2923,-3.3248,-3.3729,-3.4198,-3.4727,-3.5304,-3.5653,-3.5761,-3.6651,-3.724,-3.7336,-3.7757,-3.7986,-3.7986,-3.7986,-3.7986,-3.7986,-3.7986,-3.7986,-3.7986,-3.7986,-3.7986,-3.7986,-3.7986,-3.7986,-3.7986,-3.7986,-3.7986,-3.7986,-3.7986,-3.7986,-3.7986,-3.7986,-3.7986,-3.7986,-3.7986,-3.7986,-3.7986,-3.7986,-3.7709,-3.7348,-3.7348,-3.6988,-3.6471,-3.605,-3.5785,-3.5533,-3.51,-3.4859,-3.4775,-3.4775,-3.4462,-3.415,-3.415,-3.3801,-3.332,-3.2887,-3.2647,-3.237,-3.1958,-3.1789,-3.1705,-3.1705,-3.1705,-3.138,-3.0386,-3.0242,-3.005,-2.952,-2.9448,-2.9256,-2.8727,-2.8667,-2.8619,-2.8522,-2.851,-2.851,-2.851,-2.851,-2.851,-2.851,-2.851,-2.851,-2.851,-2.8607,-2.8667,-2.8667,-2.8775,-2.8823,-2.8823,-2.9256,-2.9172,-1.7556,-1.8614,0.0,-2.1957,-2.1873,-2.2522,0.0,0.0,-2.6274,-2.8775,-2.9388,-2.952,-2.9701,-3.0218,-3.0862,-3.1512,-3.1997,-3.2527,-3.3116,-3.3585,-3.3717,-3.3332,-3.3729,-3.4198,-3.4727,-3.5304,-3.5809,-3.6278,-3.6855,-3.7397,-3.7878,-3.795,-3.7986,-3.7986,-3.7986,-3.7986,-3.7986,-3.7986,-3.7986,-3.7986,-3.7986,-3.7986,-3.7986,-3.7986,-3.7986,-3.7986,-3.7986,-3.7986,-3.7986,-3.7986,-3.7986,-3.7986,-3.7986,-3.7986,-3.7986,-3.7986,-3.7986,-3.7986,-3.7986,-3.7938,-3.789,-3.789,-3.7529,-3.7096,-3.7036,-3.6362,-3.5605,-3.5545,-3.5196,-3.4775,-3.4775,-3.4787,-3.4691,-3.4691,-3.4294,-3.3898,-3.3838,-3.3152,-3.2478,-3.2418,-3.2054,-3.1705,-3.1705,-3.1705,-3.1512,-3.0922,-3.0826,-3.0603,-3.0062,-3.0001,-2.9797,-2.9268,-2.9208,-2.9027,-2.8546,-2.851,-2.851,-2.851,-2.851,-2.851,-2.851,-2.851,-2.851,-2.851,-2.8967,-2.9208,-2.9208,-2.9689,-2.9917,-2.9917,-2.9965,-2.9713,-2.1344,0.0,0.0,0.0,-2.5168,-2.6117,-2.833,-2.8378,-2.8366,-2.9785,-3.0338,-3.0585,-3.0585,-3.1019,-3.156,0.0,-3.2346,-3.2791,-3.3609,-3.3657,-3.3633,-3.3717,-3.3862,-3.4078,-3.4294,-3.54,-3.617,-3.6386,-3.718,-3.7745,-3.7974,-3.7986,-3.7986,-3.7986,-3.7986,-3.7986,-3.7986,-3.7986,-3.7986,-3.7986,-3.7986,-3.7986,-3.7986,-3.7986,-3.7986,-3.7986,-3.7986,-3.7986,-3.7986,-3.7986,-3.7986,-3.7986,-3.7986,-3.7986,-3.7986,-3.7986,-3.7986,-3.7986,-3.7986,-3.7986,-3.7986,-3.7986,-3.7829,-3.7601,-3.7288,-3.6892,-3.6411,-3.5797,-3.5461,-3.5208,-3.4859,-3.4775,-3.4775,-3.4775,-3.4619,-3.4366,-3.4054,-3.3658,-3.3212,-3.2611,-3.231,-3.209,-3.1765,-3.1705,-3.1633,-3.1404,-3.138,-3.1187,-3.0615,-3.0585,-3.035,-2.9809,-2.9761,-2.9665,-2.9448,-2.9424,-2.9424,-2.9424,-2.9424,-2.9424,-2.9424,-2.9424,-2.9424,-2.9424,-2.9641,-2.9761,-2.9761,-2.9977,-3.0086,-3.0098,-3.0398,-3.0477,-2.3256,0.0,0.0,-2.6009,-2.7536,-2.8799,-2.9088,-2.946,-2.9881,-3.041,-3.0711,-3.0922,-3.0922,-3.1235,0.0,-3.2382,-3.2623,-3.308,-3.4066,-3.3813,-3.3585,-3.3754,-3.391,-3.3934,-3.3802,-3.5256,-3.6242,-3.6398,-3.7252,-3.7829,-3.7974,-3.7986,-3.7986,-3.7986,-3.7986,-3.7986,-3.7986,-3.7986,-3.7986,-3.7986,-3.7986,-3.7986,-3.7986,-3.7986,-3.7986,-3.7986,-3.7986,-3.7986,-3.7986,-3.7986,-3.7986,-3.7986,-3.7986,-3.7986,-3.7986,-3.7986,-3.7986,-3.7986,-3.7986,-3.7986,-3.7986,-3.7986,-3.7986,-3.7914,-3.7529,-3.7312,-3.7036,-3.6266,-3.5845,-3.5533,-3.5148,-3.4895,-3.4775,-3.4775,-3.4775,-3.4679,-3.4294,-3.409,-3.3766,-3.3068,-3.2815,-3.2539,-3.1985,-3.1934,-3.1886,-3.1729,-3.1705,-3.1573,-3.1187,-3.1007,-3.0766,-3.035,-3.017,-3.0086,-3.0086,-3.0086,-3.0086,-3.0086,-3.0086,-3.0086,-3.0086,-3.0086,-3.0086,-3.0086,-3.023,-3.0302,-3.0302,-3.0446,-3.0518,-3.053,-3.0958,-3.1139,0.0,0.0,-2.6178,-2.6717,-2.8102,-2.9544,-3.0567,-3.0862,-3.1019,-3.1548,-3.1259,-3.0922,-3.0922,-3.0891,-3.1252,-3.2322,-3.2935,-3.3633,-3.4607,-3.4306,-3.3802,-3.3368,-3.3741,-3.3802,0.0,-3.4727,-3.5857,-3.6362,-3.6904,-3.7433,-3.795,-3.7986,-3.7986,-3.7986,-3.7986,-3.7986,-3.7986,-3.7986,-3.7986,-3.7986,-3.7986,-3.7986,-3.7986,-3.7986,-3.7986,-3.7986,-3.7986,-3.7986,-3.7986,-3.7986,-3.7986,-3.7986,-3.7986,-3.7986,-3.7986,-3.7986,-3.7986,-3.7986,-3.7986,-3.7986,-3.7986,-3.7986,-3.7986,-3.7986,-3.7962,-3.7601,-3.718,-3.7156,-3.6411,-3.5617,-3.5593,-3.5208,-3.4775,-3.4775,-3.4775,-3.4823,-3.4763,-3.4354,-3.3982,-3.3958,-3.3597,-3.3104,-3.2563,-3.2478,-3.2286,-3.1789,-3.1705,-3.1705,-3.1681,-3.1235,-3.091,-3.0898,-3.0398,-3.0086,-3.0086,-3.0086,-3.0086,-3.0086,-3.0086,-3.0086,-3.0086,-3.0086,-3.0086,-3.0086,-3.0591,-3.0898,-3.0898,-3.1404,-3.1657,-3.1657,-3.1681,-3.1681,0.0,0.0,-2.7476,-2.8715,-2.9689,-3.053,-3.1284,-3.144,-3.1392,-3.1223,-3.1043,-3.0814,-3.041,-3.035,-3.0819,-3.2274,-3.2647,-3.3248,-3.4583,-3.4631,-3.4318,-3.3849,-3.4198,0.0,0.0,0.0,0.0,-3.6362,-3.6892,-3.7421,-3.795,-3.7986,-3.7986,-3.7986,-3.7986,-3.7986,-3.7986,-3.7986,-3.7986,-3.7986,-3.7986,-3.7986,-3.7986,-3.7986,-3.7986,-3.7986,-3.7986,-3.7986,-3.7986,-3.7986,-3.7986,-3.7986,-3.7986,-3.7986,-3.7986,-3.7986,-3.7986,-3.7986,-3.7986,-3.7986,-3.7986,-3.7986,-3.7986,-3.7986,-3.7986,-3.7853,-3.7649,-3.7288,-3.694,-3.6507,-3.5797,-3.5485,-3.5256,-3.4859,-3.4775,-3.4775,-3.4775,-3.4643,-3.4414,-3.4066,-3.385,-3.3621,-3.3116,-3.2731,-3.231,-3.1789,-3.1705,-3.1705,-3.1705,-3.1548,-3.144,-3.144,-3.1284,-3.1175,-3.1175,-3.1175,-3.1175,-3.1175,-3.1175,-3.1175,-3.1175,-3.1175,-3.1175,-3.1175,-3.1356,-3.144,-3.144,-3.1621,-3.1705,-3.1717,-3.209,-3.2214,0.0,-2.7993,-2.8619,-3.0013,-3.0814,-3.1296,-3.1633,-3.156,-3.1271,-3.0699,-3.0146,-2.9641,-2.9304,-2.9088,-2.9544,-3.1348,-3.1949,-3.2815,-3.4583,-3.4619,-3.451,-3.4546,-3.4691,0.0,0.0,0.0,0.0,-3.6374,-3.6892,-3.7421,-3.795,-3.7986,-3.7986,-3.7986,-3.7986,-3.7986,-3.7986,-3.7986,-3.7986,-3.7986,-3.7986,-3.7986,-3.7986,-3.7986,-3.7986,-3.7986,-3.7986,-3.7986,-3.7986,-3.7986,-3.7986,-3.7986,-3.7986,-3.7986,-3.7986,-3.7986,-3.7986,-3.7986,-3.7986,-3.7986,-3.7986,-3.7986,-3.7986,-3.7986,-3.7986,-3.7986,-3.7914,-3.7565,-3.7336,-3.7036,-3.6362,-3.5905,-3.5533,-3.5196,-3.4968,-3.4775,-3.4775,-3.4775,-3.4679,-3.4342,-3.4282,-3.4114,-3.3645,-3.3128,-3.2599,-3.209,-3.2006,-3.1934,-3.1729,-3.1705,-3.1705,-3.1705,-3.1705,-3.1705,-3.1705,-3.1705,-3.1705,-3.1705,-3.1705,-3.1705,-3.1705,-3.1705,-3.1705,-3.1705,-3.1705,-3.1705,-3.1705,-3.191,-3.2006,-3.2018,-3.2527,-3.2791,-2.7681,-2.8595,-2.967,-3.0706,-3.1332,-3.1705,-3.1669,-3.1259,-3.0706,-3.0128,-2.8727,-2.7621,0.0,0.0,-2.7572,-2.9665,-3.0983,-3.2452,-3.4535,-3.439,-3.4486,0.0,0.0,0.0,0.0,0.0,0.0,-3.6447,0.0,-3.7421,-3.795,-3.7986,-3.7986,-3.7986,-3.7986,-3.7986,-3.7986,-3.7986,-3.7986,-3.7986,-3.7986,-3.7986,-3.7986,-3.7986,-3.7986,-3.7986,-3.7986,-3.7986,-3.7986,-3.7986,-3.7986,-3.7986,-3.7986,-3.7986,-3.7986,-3.7986,-3.7986,-3.7986,-3.7986,-3.7986,-3.7986,-3.7986,-3.7986,-3.7986,-3.7986,-3.7986,-3.7986,-3.7986,-3.7613,-3.7228,-3.7204,-3.6447,-3.5689,-3.5629,-3.5232,-3.4811,-3.4787,-3.4775,-3.4775,-3.4775,-3.4775,-3.4619,-3.409,-3.3645,-3.314,-3.2623,-3.2539,-3.2334,-3.1789,-3.1705,-3.1705,-3.1705,-3.1705,-3.1705,-3.1705,-3.1705,-3.1705,-3.1705,-3.1705,-3.1705,-3.1705,-3.1705,-3.1717,-3.1753,-3.1753,-3.1765,-3.1789,-3.2286,-3.2539,-3.2551,-3.308,-3.3332,-2.9326,-3.0191,-3.0913,-3.1791,-3.1972,-3.1828,-3.1416,-3.0895,-3.0143,-2.8806,-2.7521,-2.6432,0.0,0.0,0.0,-2.8631,-3.0458,0.0,-3.4535,-3.5388,0.0,0.0,0.0,-3.6483,-3.623,-3.6675,0.0,0.0,-3.712,-3.7421,-3.795,-3.7986,-3.7986,-3.7986,-3.7986,-3.7986,-3.7986,-3.7986,-3.7986,-3.7986,-3.7986,-3.7986,-3.7986,-3.7986,-3.7986,-3.7986,-3.7986,-3.7986,-3.7986,-3.7986,-3.7986,-3.7986,-3.7986,-3.7986,-3.7986,-3.7986,-3.7986,-3.7986,-3.7986,-3.7986,-3.7986,-3.7986,-3.7986,-3.7986,-3.7986,-3.7986,-3.7986,-3.7986,-3.789,-3.7685,-3.7288,-3.7,-3.6591,-3.5809,-3.5521,-3.5304,-3.4871,-3.4775,-3.4775,-3.4775,-3.4775,-3.4619,-3.409,-3.3886,-3.3681,-3.3164,-3.3092,-3.2743,-3.1837,-3.1705,-3.1705,-3.1705,-3.1705,-3.1705,-3.1705,-3.1705,-3.1705,-3.1705,-3.1705,-3.1705,-3.1705,-3.1705,-3.191,-3.2286,-3.2286,-3.2478,-3.2875,-3.302,-3.3092,-3.3104,-3.3609,-3.3802,-3.0382,-3.1138,-3.1636,-3.2096,-3.1942,-3.1435,-3.0634,-2.9744,-2.8553,-2.67,-2.5458,0.0,0.0,0.0,0.0,0.0,0.0,0.0,-3.4186,-3.5388,-3.6314,0.0,-3.7156,0.0,-3.7108,-3.736,-3.7541,0.0,-3.7541,-3.7661,-3.7962,-3.7986,-3.7986,-3.7986,-3.7986,-3.7986,-3.7986,-3.7986,-3.7986,-3.7986,-3.7986,-3.7986,-3.7986,-3.7986,-3.7986,-3.7986,0.0,-3.7986,-3.7986,-3.7986,-3.7986,-3.7986,-3.7986,-3.7986,-3.7986,-3.7986,-3.7986,-3.7986,-3.7986,-3.7986,-3.7986,-3.7986,-3.7986,-3.7986,-3.7986,-3.7986,-3.7986,-3.7986,-3.7986,-3.7914,-3.7613,-3.7372,-3.7048,-3.6459,-3.5954,-3.5533,-3.5244,-3.4943,-3.4775,-3.4775,-3.4775,-3.4679,-3.439,-3.4342,-3.4162,-3.3693,-3.3621,-3.332,-3.2536,-3.2223,-3.1982,-3.1729,-3.1705,-3.1705,-3.1705,-3.1705,-3.1705,-3.1705,-3.1934,-3.2034,-3.2034,-3.2307,-3.2527,-3.2839,-3.2851,-3.2996,-3.3284,-3.3513,-3.3621,-3.3633,-3.4102,-3.4342,-3.1186,-3.1747,-3.2113,-3.2125,-3.1723,-3.0974,-2.9764,-2.8299,-2.6636,-2.4455,0.0,0.0,-2.0909,0.0,-2.4122,-2.5307,0.0,-3.15,-3.3682,-3.4895,-3.6182,-3.7697,-3.7529,-3.7481,-3.7938,-3.7986,-3.7986,-3.7986,-3.7986,-3.7986,-3.7986,-3.7986,-3.7986,-3.7986,-3.7986,-3.7986,-3.7986,-3.7986,-3.7986,-3.7986,-3.7986,-3.7986,-3.7986,-3.7986,-3.7986,-3.7986,0.0,0.0,-3.7986,-3.7986,-3.7986,-3.7986,-3.7986,-3.7986,-3.7986,-3.7986,-3.7986,-3.7986,-3.7986,-3.7986,-3.7986,-3.7986,-3.7986,-3.7986,-3.7986,-3.7986,-3.7986,-3.7986,-3.7986,-3.7986,-3.7986,-3.7637,-3.7276,-3.7216,-3.6495,-3.5785,-3.5653,-3.5196,-3.4775,-3.4775,-3.4775,-3.4775,-3.4775,-3.4775,-3.4619,-3.4162,-3.4102,-3.391,-3.3452,-3.2935,-3.2418,-3.1982,-3.1922,-3.1922,-3.1922,-3.1922,-3.1922,-3.1922,-3.2334,-3.2611,-3.2611,-3.3044,-3.332,-3.3392,-3.3392,-3.3428,-3.3501,-3.3933,-3.4102,-3.4114,-3.457,-3.4775,-3.2233,-3.2519,-3.2624,-3.2853,-3.2356,-3.1368,-2.9757,-2.7854,0.0,0.0,0.0,-2.0044,-1.986,0.0,0.0,-2.516,0.0,0.0,0.0,0.0,0.0,0.0,0.0,0.0,0.0,0.0,0.0,0.0,0.0,0.0,-3.7986,-3.7986,-3.7986,-3.7986,-3.7986,-3.7986,-3.7986,-3.7986,-3.7986,-3.7986,-3.7986,-3.7986,-3.7986,-3.7986,-3.7986,-3.7986,-3.7986,0.0,-3.7986,-3.7986,-3.7986,-3.7986,-3.7986,-3.7986,-3.7986,-3.7986,-3.7986,-3.7986,-3.7986,-3.7986,-3.7986,-3.7986,-3.7986,-3.7986,-3.7986,-3.7986,-3.7986,-3.7986,-3.7986,-3.7986,-3.7986,-3.7914,-3.7733,-3.73,-3.7048,-3.6675,-3.5809,-3.5196,-3.4775,-3.4775,-3.4775,-3.4775,-3.4775,-3.4775,-3.4751,-3.4655,-3.4643,-3.445,-3.3934,-3.3464,-3.3116,-3.302,-3.3008,-3.3008,-3.3008,-3.3008,-3.3008,-3.3008,-3.3104,-3.3152,-3.3152,-3.3236,-3.3489,-3.385,-3.3862,-3.4078,-3.4559,-3.4595,-3.4643,-3.4643,-3.4739,-3.4775,-3.2107,-3.25,-3.2723,-3.2853,-3.2174,-3.0897,-2.8623,0.0,0.0,0.0,0.0,-1.8784,-1.8509,0.0,0.0,0.0,0.0,0.0,0.0,0.0,0.0,0.0,0.0,0.0,0.0,0.0,0.0,0.0,0.0,0.0,-3.7986,-3.7986,-3.7986,-3.7986,-3.7986,-3.7986,-3.7986,-3.7986,-3.7986,-3.7986,-3.7986,-3.7986,-3.7986,-3.7986,-3.7986,-3.7986,-3.7986,0.0,-3.7986,-3.7986,-3.7986,-3.7986,-3.7986,-3.7986,-3.7986,-3.7986,-3.7986,-3.7986,-3.7986,-3.7986,-3.7986,-3.7986,-3.7986,-3.7986,-3.7986,-3.7986,-3.7986,-3.7986,-3.7986,-3.7986,-3.7986,-3.7986,-3.7926,-3.7661,-3.718,-3.6567,-3.5785,-3.5196,-3.4775,-3.4775,-3.4775,-3.4775,-3.4775,-3.4775,-3.4775,-3.4775,-3.4775,-3.4691,-3.4438,-3.4234,-3.3885,-3.3344,-3.3284,-3.3284,-3.3284,-3.3284,-3.3284,-3.3284,-3.3537,-3.3681,-3.3681,-3.3945,-3.4198,-3.439,-3.4402,-3.4522,-3.4775,-3.4775,-3.4775,-3.4775,-3.4775,-3.4775,-3.1868,-3.2386,-3.281,-3.281,-3.1888,-3.0306,-2.7592,-2.5253,0.0,0.0,0.0,0.0,-1.7589,0.0,0.0,0.0,0.0,0.0,0.0,0.0,0.0,0.0,0.0,0.0,0.0,0.0,0.0,0.0,0.0,0.0,-3.7986,-3.7986,-3.7986,-3.7986,-3.7986,-3.7986,-3.7986,-3.7986,-3.7986,-3.7986,-3.7986,-3.7986,-3.7986,-3.7986,-3.7986,-3.7986,-3.7986,0.0,0.0,-3.7986,-3.7986,-3.7986,-3.7986,-3.7986,-3.7986,-3.7986,-3.7986,-3.7986,-3.7986,-3.7986,-3.7986,-3.7986,-3.7986,-3.7986,-3.7986,-3.7986,-3.7986,-3.7986,-3.7986,-3.7986,-3.7986,-3.7986,-3.7986,-3.7986,-3.7264,-3.6423,-3.5905,-3.5376,-3.4968,-3.4799,-3.4775,-3.4775,-3.4775,-3.4775,-3.4775,-3.4775,-3.4775,-3.4775,-3.4775,-3.4775,-3.4523,-3.3705,-3.3621,-3.3621,-3.3621,-3.3621,-3.3621,-3.3621,-3.3994,-3.4162,-3.4162,-3.4558,-3.4775,-3.4775,-3.4775,-3.4775,-3.4775,-3.4775,-3.4775,-3.4775,-3.4775,-3.4775,-3.2022,-3.2599,-3.3081,-3.3081,-3.1834,-3.0054,-2.7759,0.0,0.0,0.0,-1.7754,-1.6951,-1.794,0.0,0.0,0.0,0.0,0.0,0.0,0.0,0.0,0.0,0.0,0.0,0.0,0.0,0.0,0.0,0.0,0.0,0.0,-3.7986,-3.7986,-3.7986,-3.7986,-3.7986,-3.7986,-3.7986,-3.7986,-3.7986,-3.7986,-3.7986,-3.7986,-3.7986,-3.7986,-3.7986,-3.7986,0.0,0.0,-3.7986,-3.7986,-3.7986,-3.7986,-3.7986,-3.7986,-3.7986,-3.7986,-3.7986,-3.7986,-3.7986,-3.7986,-3.7986,-3.7986,-3.7986,-3.7986,-3.7986,-3.7986,-3.7986,-3.7986,-3.7986,-3.7986,-3.7986,-3.7986,-3.7986,-3.7541,-3.6976,-3.6447,-3.5918,-3.54,-3.4871,-3.4775,-3.4775,-3.4775,-3.4775,-3.4775,-3.4775,-3.4775,-3.4775,-3.4775,-3.4775,-3.4739,-3.4643,-3.4643,-3.4643,-3.4643,-3.4643,-3.4643,-3.4643,-3.4679,-3.4715,-3.4715,-3.4751,-3.4775,-3.4775,-3.4775,-3.4775,-3.4775,-3.4775,-3.4775,-3.4775,-3.4775,-3.4775,-3.1386,-3.2127,-3.2554,-3.2554,-3.1574,-2.9854,-2.6929,0.0,0.0,-1.9033,-1.744,-1.6839,-1.799,-1.8356,0.0,0.0,0.0,0.0,0.0,0.0,0.0,0.0,0.0,0.0,0.0,0.0,0.0,0.0,0.0,0.0,0.0,-3.7986,-3.7986,-3.7986,-3.7986,-3.7986,-3.7986,-3.7986,-3.7986,-3.7986,-3.7986,-3.7986,-3.7986,-3.7986,-3.7986,-3.7986,-3.7986,0.0,0.0,-3.7986,-3.7986,-3.7986,-3.7986,-3.7986,-3.7986,-3.7986,-3.7986,-3.7986,-3.7986,-3.7986,-3.7986,-3.7986,-3.7986,-3.7986,-3.7986,-3.7986,-3.7986,-3.7986,-3.7986,-3.7986,-3.7986,-3.7986,-3.7986,-3.7986,-3.7577,-3.7132,-3.6928,-3.6218,-3.5557,-3.534,-3.5003,-3.4775,-3.4775,-3.4775,-3.4775,-3.4775,-3.4775,-3.4775,-3.4775,-3.4775,-3.4775,-3.4775,-3.4775,-3.4775,-3.4775,-3.4775,-3.4775,-3.4775,-3.4775,-3.4775,-3.4775,-3.4775,-3.4775,-3.4775,-3.4775,-3.4775,-3.4775,-3.4775,-3.4775,-3.4775,-3.4775,-3.4775,-3.0306,-3.1298,-3.1964,-3.1964,-3.1035,-2.9327,0.0,0.0,-2.133,-1.8744,-1.7277,-1.6839,-1.799,-1.8204,-1.8945,0.0,0.0,0.0,0.0,0.0,0.0,0.0,0.0,0.0,0.0,0.0,0.0,0.0,0.0,0.0,0.0,-3.8145,-3.8092,-3.7986,-3.7986,-3.7986,-3.7986,-3.7986,-3.7986,-3.7986,-3.7986,-3.7986,-3.7986,-3.7986,-3.7986,-3.7986,0.0,0.0,0.0,-3.7986,-3.7986,-3.8039,-3.8092,-3.8145,-3.8145,-3.8145,-3.8198,-3.825,-3.8145,-3.8145,-3.8145,-3.8145,-3.8092,-3.7986,-3.7986,-3.7986,-3.7986,-3.7986,-3.7986,-3.7986,-3.7986,-3.7986,-3.7986,-3.7986,-3.7697,-3.7385,-3.7228,-3.6483,-3.5809,-3.5653,-3.5196,-3.4775,-3.4775,-3.4775,-3.4775,-3.4775,-3.4775,-3.4775,-3.4775,-3.4775,-3.4775,-3.4775,-3.4775,-3.4775,-3.4775,-3.4775,-3.4775,-3.4775,-3.4775,-3.4775,-3.4775,-3.4775,-3.4775,-3.4775,-3.4775,-3.4775,-3.4775,-3.4775,-3.4775,-3.4775,-3.4775,-3.4775,-2.8762,-3.0156,-3.1399,-3.1399,-3.0156,-2.836,0.0,-2.3464,-2.0878,-1.8656,-1.7277,-1.6839,-1.799,-1.8204,-1.8744,-2.044,0.0,0.0,0.0,0.0,0.0,0.0,0.0,0.0,0.0,0.0,0.0,0.0,0.0,0.0,0.0,-3.8409,-3.825,-3.8039,-3.7986,-3.7986,-3.7986,-3.7986,-3.7986,-3.7986,-3.7986,-3.7986,-3.7986,-3.7986,-3.7986,0.0,0.0,0.0,0.0,-3.7986,-3.7986,-3.8039,-3.8303,-3.8409,-3.8409,-3.8409,-3.8579,-3.8736,-3.8461,-3.8409,-3.8409,-3.8409,-3.8198,-3.7986,-3.7986,-3.7986,-3.7986,-3.7986,-3.7986,-3.7986,-3.7986,-3.7986,-3.7986,-3.7986,-3.7974,-3.7829,-3.73,-3.6771,-3.6242,-3.5713,-3.5196,-3.4775,-3.4775,-3.4775,-3.4775,-3.4775,-3.4775,-3.4775,-3.4775,-3.4775,-3.4775,-3.4775,-3.4775,-3.4775,-3.4775,-3.4775,-3.4775,-3.4775,-3.4775,-3.4775,-3.4775,-3.4775,-3.4775,-3.4775,-3.4775,-3.4775,-3.4775,-3.4775,-3.4775,-3.4775,-3.4775,-3.4775,-2.5828,-2.6766,-2.7344,-2.6992,-2.6226,-2.5172,-2.369,-2.1794,-1.9924,-1.8505,-1.7626,-1.7338,-1.8078,-1.8505,-1.9534,-2.1942,-2.2697,0.0,0.0,0.0,0.0,0.0,0.0,0.0,0.0,0.0,0.0,0.0,0.0,0.0,0.0,-3.8684,-3.8473,-3.8039,-3.8198,-3.8198,-3.7986,-3.7986,-3.8092,-3.825,-3.825,-3.8356,-3.8579,-3.8579,0.0,0.0,0.0,0.0,0.0,-3.8579,-3.8579,-3.8579,-3.8631,-3.8684,-3.8684,-3.8684,-3.8736,-3.8788,-3.8684,-3.8684,-3.8631,-3.8473,-3.8356,-3.825,-3.8039,-3.7986,-3.7986,-3.7986,-3.7986,-3.7986,-3.7986,-3.7986,-3.7986,-3.7986,-3.7986,-3.7938,-3.7769,-3.7036,-3.6362,-3.6182,-3.5437,-3.4775,-3.4775,-3.4775,-3.4775,-3.4775,-3.4775,-3.4775,-3.4775,-3.4775,-3.4775,-3.4775,-3.4775,-3.4775,-3.4775,-3.4775,-3.4775,-3.4775,-3.4775,-3.4775,-3.4775,-3.4775,-3.4775,-3.4775,-3.4775,-3.4775,-3.4775,-3.4775,-3.4775,-3.4775,-3.4775,-3.4979,0.0,-2.4104,-2.4644,-2.4531,-2.3929,-2.3125,-2.2209,-2.0715,-1.9196,-1.8116,-1.7451,-1.7287,-1.8066,-1.8456,-1.9459,-2.182,-2.2518,0.0,0.0,0.0,0.0,0.0,0.0,0.0,0.0,0.0,0.0,0.0,0.0,0.0,0.0,0.0,-3.8788,-3.8303,-3.8461,-3.8473,-3.8303,-3.8303,-3.8409,-3.8579,-3.8579,-3.8631,-3.8788,-3.8788,0.0,0.0,0.0,0.0,0.0,-3.8788,-3.8788,-3.8788,-3.8945,-3.8998,-3.8998,-3.8998,-3.905,-3.9114,-3.8998,-3.8893,-3.8788,-3.8631,-3.8409,-3.8198,-3.8039,-3.7986,-3.7986,-3.7986,-3.7986,-3.7986,-3.7986,-3.7986,-3.7986,-3.7986,-3.7986,-3.7986,-3.7986,-3.7312,-3.6639,-3.6447,-3.5713,-3.5015,-3.4811,-3.4775,-3.4775,-3.4775,-3.4775,-3.4775,-3.4775,-3.4775,-3.4775,-3.4775,-3.4775,-3.4775,-3.4775,-3.4775,-3.4775,-3.4775,-3.4775,-3.4775,-3.4775,-3.4775,-3.4775,-3.4775,-3.4775,-3.4775,-3.4775,-3.4775,-3.4883,-3.5075,-3.5075,-3.5412,0.0,-2.1945,-2.2882,-2.3401,-2.2736,-2.1832,-2.1355,-2.0037,0.0,-1.7624,-1.6948,-1.6948,-1.8154,-1.8342,-1.892,-2.0805,0.0,0.0,0.0,0.0,0.0,0.0,0.0,0.0,0.0,0.0,0.0,0.0,0.0,0.0,0.0,0.0,-3.9206,-3.8893,-3.8841,-3.8841,-3.8788,-3.8788,-3.8788,-3.8841,-3.8841,-3.8841,-3.8841,-3.8841,0.0,0.0,0.0,0.0,0.0,-3.8841,-3.8841,-3.8893,-3.9218,-3.9322,-3.9322,-3.9322,-3.9478,-3.9645,-3.9374,-3.9102,-3.8841,-3.8788,-3.8461,-3.8027,-3.7986,-3.7986,-3.7986,-3.7986,-3.7986,-3.7986,-3.7986,-3.7986,-3.7986,-3.7986,-3.7986,-3.7986,-3.7986,-3.7565,-3.7036,-3.6507,-3.5978,-3.5449,-3.4871,-3.4775,-3.4775,-3.4775,-3.4775,-3.4775,-3.4775,-3.4775,-3.4775,-3.4775,-3.4775,-3.4775,-3.4775,-3.4775,-3.4775,-3.4775,-3.4775,-3.4775,-3.4775,-3.4775,-3.4775,-3.4775,-3.4775,-3.4775,-3.4775,-3.4823,-3.5087,-3.5617,-3.5653,-3.5954,-1.7561,0.0,-1.9296,-1.9007,-1.8756,-1.8618,0.0,-1.8355,-1.7689,0.0,0.0,0.0,0.0,-1.9723,0.0,0.0,0.0,0.0,0.0,0.0,0.0,0.0,0.0,0.0,0.0,0.0,0.0,0.0,0.0,0.0,0.0,0.0,-3.9581,-3.9478,-3.9478,-3.927,-3.8788,-3.8788,-3.8945,-3.9154,-3.9154,-3.927,-3.9478,-3.9478,0.0,0.0,0.0,0.0,-3.9478,-3.9478,-3.9478,-3.9478,-3.9594,-3.9594,-3.9594,-3.9594,-3.9645,-3.9645,-3.9374,-3.9374,-3.9426,-3.8945,-3.8579,-3.825,-3.8092,-3.7986,-3.7986,-3.7986,-3.7986,-3.7986,-3.7986,-3.7986,-3.7986,-3.7986,-3.7986,-3.7986,-3.7986,-3.7565,-3.7036,-3.6507,-3.5978,-3.5449,-3.4871,-3.4775,-3.4775,-3.4775,-3.4775,-3.4775,-3.4775,-3.4775,-3.4775,-3.4775,-3.4775,-3.4775,-3.4775,-3.4775,-3.4775,-3.4775,-3.4775,-3.4775,-3.4775,-3.4775,-3.4775,-3.4775,-3.4775,-3.4775,-3.4775,-3.5232,-3.5497,-3.5629,-3.6038,-3.6507,-1.6871,-1.7685,-1.8568,-1.8505,-1.8317,-1.8279,-1.8819,0.0,0.0,0.0,0.0,0.0,0.0,0.0,0.0,0.0,0.0,0.0,0.0,0.0,0.0,0.0,0.0,0.0,0.0,0.0,0.0,0.0,0.0,0.0,0.0,0.0,-3.9697,-3.9697,-3.9697,-3.953,-3.9218,-3.9218,-3.9322,-3.9478,-3.9478,-3.953,-3.9697,-3.9697,-3.9697,0.0,0.0,0.0,-3.9697,-3.9697,-3.9697,-3.9697,-3.9697,-3.9697,-3.9697,-3.9697,-3.9697,-3.9697,-3.953,-3.9478,-3.9426,-3.8945,-3.8684,-3.8514,-3.825,-3.8198,-3.8145,-3.8027,-3.7986,-3.7986,-3.7986,-3.7986,-3.7986,-3.7986,-3.7986,-3.7986,-3.7986,-3.7757,-3.7324,-3.6555,-3.6182,-3.5737,-3.4907,-3.4775,-3.4775,-3.4775,-3.4775,-3.4775,-3.4775,-3.4775,-3.4775,-3.4775,-3.4775,-3.4775,-3.4775,-3.4775,-3.4775,-3.4775,-3.4775,-3.4775,-3.4775,-3.4775,-3.4775,-3.4775,-3.4775,-3.4895,-3.5196,-3.5473,-3.5869,-3.635,-3.6627,-3.7048,-1.7525,-1.8444,-1.9497,-1.961,-1.9522,-1.9472,-1.9737,0.0,0.0,0.0,0.0,0.0,0.0,0.0,0.0,0.0,0.0,0.0,0.0,0.0,0.0,0.0,0.0,0.0,0.0,0.0,0.0,0.0,0.0,0.0,0.0,0.0,0.0,-3.9697,-3.9697,-3.9697,-3.9697,-3.9697,-3.9697,-3.9697,-3.9697,-3.9697,-3.9697,-3.9697,-3.9697,0.0,0.0,0.0,-3.9697,-3.9697,-3.9697,-3.9697,-3.9697,-3.9697,-3.9697,-3.9697,-3.9697,-3.9697,-3.9697,-3.953,-3.9258,-3.8945,-3.8893,-3.8841,-3.8526,-3.8409,-3.8356,-3.8092,-3.7986,-3.7986,-3.7986,-3.7986,-3.7986,-3.7986,-3.7986,-3.7986,-3.7986,-3.7986,-3.7697,-3.6711,-3.6459,-3.6098,-3.5063,-3.4835,-3.4775,-3.4775,-3.4775,-3.4775,-3.4775,-3.4775,-3.4775,-3.4775,-3.4775,-3.4775,-3.4775,-3.4775,-3.4775,-3.4775,-3.4775,-3.4775,-3.4775,-3.4775,-3.4775,-3.4775,-3.4859,-3.5172,-3.5617,-3.5773,-3.6314,-3.7192,-3.7276,-3.7553,-1.8467,-2.0144,-2.1186,-1.939,-2.0078,-2.0951,0.0,0.0,0.0,0.0,0.0,0.0,0.0,0.0,0.0,0.0,0.0,0.0,0.0,0.0,0.0,0.0,0.0,0.0,0.0,0.0,0.0,0.0,0.0,0.0,0.0,0.0,0.0,-3.9697,-3.9697,-3.9697,-3.9697,-3.9697,-3.9697,-3.9697,-3.9697,-3.9697,-3.9697,-3.9697,-3.9697,0.0,0.0,-3.9697,-3.9697,-3.9697,-3.9697,-3.9697,-3.9697,-3.9697,-3.9697,-3.9697,-3.9697,-3.9697,-3.9697,-3.953,-3.927,-3.9258,-3.9206,-3.9102,-3.8566,-3.8409,-3.8356,-3.8092,-3.7986,-3.7986,-3.7986,-3.7986,-3.7986,-3.7986,-3.7986,-3.7986,-3.7986,-3.7986,-3.7805,-3.7192,-3.6711,-3.6206,-3.5605,-3.5075,-3.4775,-3.4775,-3.4775,-3.4775,-3.4775,-3.4775,-3.4775,-3.4775,-3.4775,-3.4775,-3.4775,-3.4775,-3.4775,-3.4775,-3.4775,-3.4775,-3.4775,-3.4775,-3.4775,-3.4775,-3.5268,-3.5533,-3.5617,-3.6519,-3.7036,-3.7204,-3.7649,-3.7902,-1.8575,-2.0328,-2.1835,-2.1176,-2.2174,-2.3173,0.0,0.0,0.0,0.0,0.0,0.0,0.0,0.0,0.0,0.0,0.0,0.0,0.0,0.0,0.0,0.0,0.0,0.0,0.0,0.0,0.0,0.0,0.0,0.0,0.0,0.0,0.0,0.0,-3.9697,-3.9697,-3.9697,-3.9697,-3.9697,-3.9697,-3.9697,-3.9697,-3.9697,-3.9697,-3.9697,-3.9697,0.0,-3.9697,-3.9697,-3.9697,-3.9697,-3.9697,-3.9697,-3.9697,-3.9697,-3.9697,-3.9697,-3.9697,-3.9697,-3.9633,-3.953,-3.953,-3.9426,-3.9206,-3.8736,-3.8816,-3.9013,-3.8699,-3.8344,-3.7986,-3.7986,-3.7986,-3.7986,-3.7986,-3.7986,-3.7986,-3.7986,-3.7986,-3.7829,-3.7288,-3.6771,-3.6242,-3.5713,-3.5172,-3.4775,-3.4775,-3.4775,-3.4775,-3.4775,-3.4775,-3.4775,-3.4775,-3.4775,-3.4775,-3.4775,-3.4775,-3.4775,-3.4775,-3.4775,-3.4775,-3.4775,-3.4775,-3.4968,-3.5244,-3.5485,-3.5905,-3.6471,-3.6952,-3.7336,-3.7625,-3.7878,-3.7986,-1.8854,-2.0273,-2.1913,-2.2843,0.0,-2.4931,-2.5394,0.0,0.0,0.0,0.0,0.0,0.0,0.0,0.0,0.0,0.0,0.0,0.0,0.0,0.0,0.0,0.0,0.0,0.0,0.0,0.0,0.0,0.0,0.0,0.0,0.0,0.0,0.0,-3.9697,-3.9697,-3.9697,-3.9697,-3.9697,-3.9697,-3.9697,-3.9697,-3.9697,-3.9697,-3.9697,-3.9697,-3.9697,-3.9697,-3.9697,-3.9697,-3.9697,-3.9697,-3.9697,-3.9697,-3.9697,-3.9697,-3.9697,-3.9697,-3.9697,-3.9697,-3.9697,-3.9697,-3.9633,-3.9517,-3.9206,-3.9324,-3.9558,-3.9272,-3.8607,-3.808,-3.8437,-3.8542,-3.8542,-3.8542,-3.8542,-3.8542,-3.8542,-3.8384,-3.817,-3.777,-3.7106,-3.6423,-3.5893,-3.5364,-3.4919,-3.4799,-3.4775,-3.4775,-3.4775,-3.4775,-3.4775,-3.4775,-3.4775,-3.4775,-3.4775,-3.4775,-3.4775,-3.4775,-3.4775,-3.4835,-3.4955,-3.5016,-3.5256,-3.5797,-3.5918,-3.6386,-3.7192,-3.7324,-3.7589,-3.7986,-3.7986,-3.7986,-1.9872,-2.0607,-2.1466,-2.3216,0.0,0.0,-2.7153,0.0,0.0,0.0,0.0,0.0,0.0,0.0,0.0,0.0,0.0,0.0,0.0,0.0,0.0,0.0,0.0,0.0,0.0,0.0,0.0,0.0,0.0,0.0,0.0,0.0,0.0,0.0,0.0,-3.9697,-3.9697,-3.9697,-3.9697,-3.9697,-3.9697,-3.9697,-3.9697,-3.9697,-3.9697,-3.9697,-3.9697,-3.9697,-3.9697,-3.9697,-3.9697,-3.9697,-3.9697,-3.9697,-3.9697,-3.9697,-3.9697,-3.9697,-3.9697,-3.9697,-3.9697,-3.9697,-3.9993,-4.0351,-4.0083,-3.984,-3.9558,-3.9272,-3.8607,-3.8332,-3.9853,-4.0211,-4.0211,-4.0211,-4.0211,-4.0211,-4.0211,-3.9609,-3.9104,-3.9067,-3.8014,-3.6976,-3.6435,-3.5905,-3.5388,-3.4847,-3.4775,-3.4775,-3.4775,-3.4775,-3.4775,-3.4775,-3.4775,-3.4775,-3.4775,-3.4775,-3.4775,-3.4775,-3.4775,-3.5003,-3.5533,-3.5557,-3.5809,-3.6338,-3.6831,-3.712,-3.7192,-3.7685,-3.7938,-3.7986,-3.7986,-3.7986,-1.9321,-2.0848,-2.2457,-2.3547,0.0,0.0,0.0,0.0,0.0,0.0,0.0,0.0,0.0,0.0,0.0,0.0,0.0,0.0,0.0,0.0,0.0,0.0,0.0,0.0,0.0,0.0,0.0,0.0,0.0,0.0,0.0,0.0,0.0,0.0,0.0,-3.9697,-3.9697,-3.9697,-3.9697,-3.9697,-3.9697,-3.9697,-3.9697,-3.9697,-3.9697,-3.9697,-3.9697,-3.9697,-3.9697,-3.9697,-3.9697,-3.9697,-3.9697,-4.007,-4.0655,-4.0655,-4.1045,-4.1531,-4.0844,-4.1095,-4.1531,-4.0844,-4.0895,-4.1196,-4.1082,-4.0995,-4.0857,-4.0769,-4.0908,-4.0844,-3.9879,-3.9661,-3.9763,-4.0262,-4.0414,-4.0414,-4.0414,-4.016,-3.9968,-3.9968,-3.8863,-3.7782,-3.7242,-3.6316,-3.5437,-3.4859,-3.4775,-3.4775,-3.4775,-3.4775,-3.4775,-3.4775,-3.5259,-3.5536,-3.5536,-3.5953,-3.6036,-3.5584,-3.5381,-3.5412,-3.5605,-3.593,-3.6362,-3.6892,-3.7096,-3.736,-3.7685,-3.789,-3.7986,-3.7986,-3.7986,-3.7986,-1.9043,-2.0683,0.0,0.0,0.0,0.0,0.0,0.0,0.0,0.0,0.0,0.0,0.0,0.0,0.0,0.0,0.0,0.0,0.0,0.0,0.0,0.0,0.0,0.0,0.0,0.0,0.0,0.0,0.0,0.0,0.0,0.0,0.0,0.0,0.0,-4.0173,-4.0173,-4.0173,-4.0313,-4.0668,-4.0668,-4.0326,-3.9697,-3.9697,-3.9697,-3.9697,-3.9697,-3.989,-4.0173,-4.0173,-4.0364,-4.0668,-4.0668,-4.1095,-4.1716,-4.1716,-4.2146,-4.2695,-4.1963,-4.2208,-4.2695,-4.195,-4.1815,-4.1963,-4.1963,-4.1855,-4.1746,-4.1881,-4.2016,-4.1805,-4.0528,-4.0287,-4.0491,-4.1032,-4.1182,-4.1182,-4.1182,-4.0982,-4.0781,-4.0781,-3.9626,-3.8438,-3.7717,-3.6837,-3.5964,-3.526,-3.5391,-3.5523,-3.5523,-3.5523,-3.5523,-3.5523,-3.6001,-3.6332,-3.6332,-3.6602,-3.6555,-3.6013,-3.5758,-3.5689,-3.5857,-3.6374,-3.6904,-3.7433,-3.7445,-3.7613,-3.7986,-3.7986,-3.7986,-3.7986,-3.7986,-3.7986,-1.929,-2.0045,0.0,0.0,0.0,0.0,0.0,0.0,0.0,0.0,0.0,0.0,0.0,0.0,0.0,0.0,0.0,0.0,0.0,0.0,0.0,0.0,0.0,0.0,0.0,0.0,0.0,0.0,0.0,0.0,0.0,0.0,0.0,0.0,0.0,0.0,-4.1219,-4.1219,-4.1752,-4.2792,-4.2792,-4.173,-3.9749,-3.9749,-3.9749,-3.9749,-3.9749,-4.0275,-4.1219,-4.1219,-4.1864,-4.2792,-4.2792,-4.2792,-4.2792,-4.2792,-4.284,-4.284,-4.284,-4.284,-4.284,-4.284,-4.2819,-4.2833,-4.2833,-4.2311,-4.1832,-4.2271,-4.1455,-4.0755,-4.2061,-4.2652,-4.2887,-4.2887,-4.2887,-4.2887,-4.2887,-4.2289,-4.1696,-4.1696,-4.0351,-3.8873,-3.7829,-3.7568,-3.7134,-3.6175,-3.6649,-3.7103,-3.7103,-3.7103,-3.7103,-3.7103,-3.7103,-3.7103,-3.7103,-3.6427,-3.6013,-3.6013,-3.5758,-3.5857,-3.6374,-3.6904,-3.7433,-3.7962,-3.7974,-3.7974,-3.7986,-3.7986,-3.7986,-3.7986,-3.7986,-3.7986,-1.9725,0.0,0.0,0.0,0.0,0.0,0.0,0.0,0.0,0.0,0.0,0.0,0.0,0.0,0.0,0.0,0.0,0.0,0.0,0.0,0.0,0.0,0.0,0.0,0.0,0.0,0.0,0.0,0.0,0.0,0.0,0.0,0.0,0.0,0.0,0.0,-4.1601,-4.1601,-4.2022,-4.2792,-4.2792,-4.2501,-4.1878,-4.1878,-4.1878,-4.1828,-4.1082,-4.1369,-4.2341,-4.2341,-4.2501,-4.2792,-4.2792,-4.3211,-4.3876,-4.3876,-4.4326,-4.4865,-4.4125,-4.4373,-4.4865,-4.4078,-4.4092,-4.4415,-4.4415,-4.404,-4.3642,-4.377,-4.3505,-4.3204,-4.3252,-4.3314,-4.3293,-4.2984,-4.2887,-4.2887,-4.2887,-4.2693,-4.2547,-4.2547,-4.1327,-4.0102,-3.9423,-3.8428,-3.7546,-3.6904,-3.6977,-3.7103,-3.7103,-3.7103,-3.7103,-3.7103,-3.7579,-3.7684,-3.715,-3.7348,-3.7083,-3.6061,-3.6221,-3.6198,-3.5845,-3.6362,-3.6892,-3.7421,-3.7433,-3.7613,-3.7986,-3.7986,-3.7986,-3.7986,-3.7986,-3.7986,-2.0895,0.0,0.0,0.0,0.0,0.0,0.0,0.0,0.0,0.0,0.0,0.0,0.0,0.0,0.0,0.0,0.0,0.0,0.0,0.0,0.0,0.0,0.0,0.0,0.0,0.0,0.0,0.0,0.0,0.0,0.0,0.0,0.0,0.0,0.0,0.0,-4.2029,-4.2029,-4.2468,-4.3273,-4.3273,-4.3273,-4.3255,-4.2958,-4.2792,-4.2792,-4.2536,-4.2813,-4.3402,-4.3857,-4.4045,-4.4045,-4.4045,-4.4373,-4.4943,-4.4943,-4.5338,-4.579,-4.5141,-4.5353,-4.579,-4.5155,-4.5018,-4.5124,-4.5124,-4.4769,-4.4457,-4.463,-4.4551,-4.4364,-4.4228,-4.3885,-4.3471,-4.3018,-4.2887,-4.2887,-4.2887,-4.2887,-4.2819,-4.2588,-4.1584,-4.0522,-3.9778,-3.8919,-3.816,-3.7624,-3.7763,-3.7946,-3.7946,-3.7946,-3.7946,-3.7946,-3.8381,-3.8472,-3.7991,-3.8109,-3.7835,-3.6943,-3.6859,-3.6666,-3.6196,-3.6352,-3.6651,-3.718,-3.7491,-3.7758,-3.7986,-3.8344,-3.8291,-3.7986,-3.7986,-3.7986,0.0,0.0,0.0,0.0,0.0,0.0,0.0,0.0,0.0,0.0,0.0,0.0,0.0,0.0,0.0,0.0,0.0,0.0,0.0,0.0,0.0,0.0,0.0,0.0,0.0,0.0,0.0,0.0,0.0,0.0,0.0,0.0,0.0,0.0,0.0,-4.239,-4.2432,-4.2432,-4.2991,0.0,-4.3993,-4.3993,-4.3979,-4.3292,-4.2978,-4.2985,-4.4031,-4.4406,-4.4359,-4.5444,-4.588,-4.588,-4.588,-4.588,-4.588,-4.588,-4.588,-4.588,-4.588,-4.588,-4.588,-4.588,-4.5549,-4.517,-4.517,-4.4862,-4.4644,-4.5032,-4.4862,-4.463,-4.4986,-4.4415,-4.3614,-4.3163,-4.2984,-4.2887,-4.2887,-4.2846,-4.2656,-4.2114,-4.1312,-4.0394,-3.9382,-3.9111,-3.8853,-3.837,-3.889,-3.9305,-3.9305,-3.9305,-3.9305,-3.9305,-3.9305,-3.9247,-3.9216,-3.8575,-3.8154,-3.8109,-3.7487,-3.7103,-3.7103,-3.6702,-3.671,-3.7139,-3.7857,-3.8128,-3.7841,-3.8617,-3.8564,-3.7841,-3.7841,-3.7841,0.0,0.0,0.0,0.0,0.0,0.0,0.0,0.0,0.0,0.0,0.0,0.0,0.0,0.0,0.0,0.0,0.0,0.0,0.0,0.0,0.0,0.0,0.0,0.0,0.0,0.0,0.0,0.0,0.0,0.0,0.0,0.0,0.0,0.0,-4.2176,-4.2407,-4.2883,-4.2883,-4.3242,0.0,-4.3993,-4.3993,-4.4023,-4.4292,-4.4276,-4.4031,-4.5095,-4.5095,-4.4359,-4.5444,-4.588,-4.588,-4.588,-4.588,-4.588,-4.588,-4.588,-4.588,-4.588,-4.588,-4.588,-4.588,-4.5835,-4.5745,-4.5745,-4.5654,-4.5609,-4.57,-4.5654,-4.5504,-4.517,-4.4926,-4.4662,-4.4162,-4.3465,-4.2887,-4.2887,-4.2521,-4.2154,-4.2032,-4.1078,-4.0256,-4.0,-3.9568,-3.9217,-3.9096,-3.9216,-3.9305,-3.9305,-3.9305,-3.9305,-3.9305,-3.9305,-3.9069,-3.8485,-3.8304,-3.7959,-3.7348,-3.7209,-3.7103,-3.7103,-3.7006,-3.6923,-3.6789,-3.6998,-3.6985,-3.6747,-3.6901,-3.6889,-3.6747,-3.6747,-3.6747,0.0,0.0,0.0,0.0,0.0,0.0,0.0,0.0,0.0,0.0,0.0,0.0,0.0,0.0,0.0,0.0,0.0,0.0,0.0,0.0,0.0,0.0,0.0,0.0,0.0,0.0,0.0,0.0,0.0,0.0,0.0,0.0,0.0,0.0,-4.2092,-4.2237,-4.2557,-4.2571,-4.2731,-4.3079,-4.3079,-4.3239,-4.3529,-4.4168,-4.4354,-4.421,-4.473,-4.4844,-4.4624,-4.5208,-4.559,-4.588,-4.588,-4.588,-4.588,-4.588,-4.588,-4.588,-4.588,-4.588,-4.588,-4.588,-4.588,-4.588,-4.588,-4.588,-4.588,-4.588,-4.588,-4.5835,-4.5549,-4.5307,-4.5032,-4.4815,-4.4162,-4.3608,-4.3608,-4.3111,-4.2587,-4.2311,-4.1497,-4.0766,-4.0476,-3.9983,-3.9557,-3.9349,-3.9305,-3.9305,-3.9305,-3.9305,-3.9305,-3.9305,-3.9305,-3.9158,-3.8756,-3.8711,-3.8562,-3.8187,-3.8128,-3.8128,-3.8128,-3.8128,-3.7699,-3.6723,-3.7088,-3.7034,-3.6411,-3.6804,-3.6804,-3.6411,-3.6411,-3.6411,0.0,0.0,0.0,0.0,0.0,0.0,0.0,0.0,0.0,0.0,0.0,0.0,0.0,0.0,0.0,0.0,0.0,0.0,0.0,0.0,0.0,0.0,0.0,0.0,0.0,0.0,0.0,0.0,0.0,0.0,0.0,0.0,-4.1918,-4.1918,-4.2034,-4.2092,-4.2092,-4.2092,-4.2092,-4.2092,-4.2092,-4.2353,-4.2861,-4.3413,-4.3776,-4.3993,-4.3993,-4.4269,-4.4734,-4.4734,-4.5111,-4.5706,-4.5706,-4.5779,-4.588,-4.588,-4.588,-4.588,-4.588,-4.588,-4.588,-4.588,-4.588,-4.588,-4.588,-4.588,-4.588,-4.588,-4.588,-4.588,-4.588,-4.5549,-4.5187,-4.5072,-4.4783,-4.4428,-4.4242,-4.3606,-4.2932,-4.2427,-4.1882,-4.1292,-4.0786,-4.0386,-3.9952,-3.9482,-3.9438,-3.9394,-3.9305,-3.9305,-3.9305,-3.9305,-3.9305,-3.9305,-3.9305,-3.9305,-3.9305,-3.9305,-3.9305,-3.9305,-3.9305,-3.9305,-3.8548,-3.6973,-3.7537,-3.7346,-3.6323,-3.6874,-3.6774,-3.6134,-3.6285,-3.6323,0.0,0.0,0.0,0.0,0.0,0.0,0.0,0.0,0.0,0.0,0.0,0.0,0.0,0.0,0.0,0.0,0.0,0.0,0.0,0.0,0.0,0.0,0.0,0.0,0.0,0.0,0.0,0.0,0.0,0.0,0.0,-4.0916,-4.1221,-4.1221,-4.1802,-4.2092,-4.2092,-4.2092,-4.2092,-4.2092,-4.2092,-4.2136,-4.2223,-4.231,-4.2948,-4.3993,-4.3993,-4.4037,-4.411,-4.411,-4.4472,-4.5024,-4.5024,-4.5372,-4.588,-4.588,-4.588,-4.588,-4.588,-4.588,-4.588,-4.588,-4.588,-4.588,-4.588,-4.588,-4.588,-4.588,-4.588,-4.588,-4.588,-4.5835,-4.5645,-4.5066,-4.4877,-4.4609,-4.3705,-4.2624,-4.184,-4.1755,-4.1235,-4.0786,-4.0702,-4.0659,-4.043,-3.9996,-3.9908,-3.9733,-3.9349,-3.9305,-3.9305,-3.9305,-3.9305,-3.9305,-3.9305,-3.9305,-3.9305,-3.9305,-3.9305,-3.9305,-3.9305,-3.9305,-3.8886,-3.8031,-3.7511,-3.6848,-3.6033,-3.5466,-3.5137,-3.504,-3.5757,-3.6033,0.0,0.0,0.0,0.0,0.0,0.0,0.0,0.0,0.0,0.0,0.0,0.0,0.0,0.0,0.0,0.0,0.0,0.0,0.0,0.0,0.0,0.0,0.0,0.0,0.0,0.0,0.0,0.0,0.0,0.0,-4.0104,-4.0379,-4.0539,-4.0539,-4.0829,-4.1149,-4.1541,-4.1541,-4.1729,-4.2092,-4.2092,-4.2092,-4.2092,-4.2092,-4.2397,-4.2934,-4.2934,-4.3123,-4.3427,-4.3427,-4.3805,-4.4385,-4.4385,-4.4763,-4.5329,-4.5329,-4.5561,-4.588,-4.588,-4.588,-4.588,-4.588,-4.588,-4.588,-4.588,-4.588,-4.588,-4.588,-4.588,-4.588,-4.588,-4.5605,-4.5256,-4.4951,-4.4342,-4.369,-4.3255,-4.2768,-4.2281,-4.1966,-4.168,-4.1396,-4.1128,-4.1086,-4.083,-4.0126,-3.9996,-3.9908,-3.9733,-3.9689,-3.9777,-4.0039,-3.9865,-3.9689,-3.9689,-3.9438,-3.9305,-3.9305,-3.9305,-3.9305,-3.9305,-3.9305,-3.9172,-3.8845,-3.8096,-3.7348,-3.6602,-3.6273,-3.6083,-3.6083,-3.6439,-3.6628,0.0,0.0,0.0,0.0,0.0,0.0,0.0,0.0,0.0,0.0,0.0,0.0,0.0,0.0,0.0,0.0,0.0,0.0,0.0,0.0,0.0,0.0,0.0,0.0,0.0,0.0,0.0,0.0,0.0,0.0,-3.9625,-3.977,-3.9871,-3.9871,-4.0017,-4.0336,-4.0844,-4.0844,-4.1178,-4.1845,-4.1845,-4.1932,-4.2092,-4.2092,-4.2092,-4.2092,-4.2092,-4.2353,-4.276,-4.276,-4.3152,-4.3732,-4.3732,-4.411,-4.4676,-4.4821,-4.5198,-4.5648,-4.5822,-4.588,-4.588,-4.588,-4.588,-4.588,-4.588,-4.588,-4.5851,-4.5677,-4.5634,-4.559,-4.5445,-4.5039,-4.4618,-4.4443,-4.3674,-4.2948,-4.2803,-4.276,-4.2629,-4.2179,-4.2092,-4.2009,-4.1662,-4.1578,-4.1311,-4.0487,-4.0343,-4.03,-4.017,-4.017,-4.0257,-4.0487,-4.03,-4.0126,-3.9996,-3.9689,-3.9482,-3.9482,-3.9394,-3.9305,-3.9305,-3.9305,-3.9305,-3.9305,-3.8756,-3.8109,-3.7394,-3.7209,-3.7103,-3.7103,-3.7268,-3.7374,0.0,0.0,0.0,0.0,0.0,0.0,0.0,0.0,0.0,0.0,0.0,0.0,0.0,0.0,0.0,0.0,0.0,0.0,0.0,0.0,0.0,0.0,0.0,0.0,0.0,0.0,0.0,0.0,0.0,0.0,-3.8304,-3.8899,-3.9247,-3.9247,-3.9799,-4.0118,-4.0147,-4.0147,-4.0481,-4.1149,-4.1149,-4.1482,-4.2092,-4.2092,-4.2092,-4.2092,-4.2092,-4.2121,-4.215,-4.215,-4.2498,-4.305,-4.305,-4.3442,-4.411,-4.4676,-4.4908,-4.5024,-4.5663,-4.588,-4.588,-4.588,-4.588,-4.588,-4.588,-4.588,-4.575,-4.5111,-4.4937,-4.4806,-4.424,-4.4066,-4.3877,-4.3239,-4.3036,-4.2832,-4.2266,-4.215,-4.2136,-4.2107,-4.2092,-4.2092,-4.2051,-4.2051,-4.1926,-4.1396,-4.1311,-4.1185,-4.0702,-4.0659,-4.0487,-4.0083,-4.0386,-4.0487,-4.0039,-3.9996,-3.9952,-3.9952,-3.9557,-3.9305,-3.9305,-3.9305,-3.9305,-3.9305,-3.9247,-3.889,-3.8154,-3.7441,-3.7103,-3.7116,-3.7835,-3.8154,0.0,0.0,0.0,0.0,0.0,0.0,0.0,0.0,0.0,0.0,0.0,0.0,0.0,0.0,0.0,0.0,0.0,0.0,0.0,0.0,0.0,0.0,0.0,0.0,0.0,0.0,0.0,0.0,0.0,0.0,-3.8202,-3.8434,-3.8565,-3.8565,-3.8768,-3.9088,-3.9523,-3.99,-4.022,-4.0452,-4.0452,-4.08,-4.1453,-4.1453,-4.1686,-4.2092,-4.2092,-4.2092,-4.2092,-4.2092,-4.2223,-4.2411,-4.2411,-4.2803,-4.3369,-4.3587,-4.3935,-4.4342,-4.4589,-4.4676,-4.4676,-4.4676,-4.4676,-4.4676,-4.4676,-4.4676,-4.4618,-4.4385,-4.4313,-4.4255,-4.4052,-4.3674,-4.3195,-4.2571,-4.2411,-4.2353,-4.215,-4.2092,-4.2092,-4.2092,-4.2092,-4.2092,-4.2092,-4.2092,-4.1926,-4.148,-4.1128,-4.1001,-4.1128,-4.0873,-4.0873,-4.1311,-4.1227,-4.1086,-4.0915,-4.0616,-4.043,-4.043,-4.03,-4.0213,-4.0213,-3.9908,-3.9733,-3.9733,-3.9438,-3.9172,-3.889,-3.8652,-3.8504,-3.8517,-3.8787,-3.889,0.0,0.0,0.0,0.0,0.0,0.0,0.0,0.0,0.0,0.0,0.0,0.0,0.0,0.0,0.0,0.0,0.0,0.0,0.0,0.0,0.0,0.0,0.0,0.0,0.0,0.0,0.0,0.0,0.0,0.0,-3.7897,-3.7897,-3.7984,-3.8188,-3.8202,-3.8405,-3.8855,-3.9262,-3.9581,-3.9799,-3.9799,-4.0133,-4.0771,-4.1004,-4.1337,-4.1773,-4.199,-4.2092,-4.2092,-4.2092,-4.2092,-4.2092,-4.2092,-4.2339,-4.2716,-4.2919,-4.3268,-4.3689,-4.3906,-4.3993,-4.3993,-4.3993,-4.3993,-4.3993,-4.3993,-4.3993,-4.395,-4.3718,-4.366,-4.3616,-4.3413,-4.3021,-4.2586,-4.2194,-4.2092,-4.2092,-4.2092,-4.2092,-4.2092,-4.2092,-4.2092,-4.2092,-4.2092,-4.2092,-4.2009,-4.1662,-4.1354,-4.1269,-4.1578,-4.1354,-4.1354,-4.1829,-4.1745,-4.1578,-4.1396,-4.1086,-4.0915,-4.0915,-4.0787,-4.0702,-4.0702,-4.0386,-4.017,-3.9996,-3.9689,-3.9482,-3.9305,-3.9305,-3.9305,-3.9305,-3.9305,-3.9305,0.0,0.0,0.0,0.0,0.0,0.0,0.0,0.0,0.0,0.0,0.0,0.0,0.0,0.0,0.0,0.0,0.0,0.0,0.0,0.0,0.0,0.0,0.0,0.0,0.0,0.0,0.0,0.0,0.0,-3.6591,-3.7244,-3.7302,-3.7578,-3.8159,-3.8188,-3.8202,-3.8202,-3.8202,-3.8522,-3.9175,-3.9175,-3.9494,-4.0104,-4.0742,-4.1047,-4.1105,-4.1773,-4.2063,-4.2063,-4.2092,-4.2092,-4.2092,-4.2092,-4.2092,-4.2165,-4.2745,-4.2963,-4.3065,-4.3718,-4.3935,-4.3935,-4.3935,-4.3935,-4.3935,-4.3935,-4.3935,-4.3805,-4.3152,-4.2963,-4.2832,-4.2252,-4.2092,-4.2092,-4.2092,-4.2092,-4.2092,-4.2092,-4.2092,-4.2092,-4.2092,-4.2092,-4.2092,-4.2092,-4.2092,-4.2092,-4.2092,-4.2092,-4.2092,-4.2092,-4.2092,-4.1926,-4.148,-4.1829,-4.1926,-4.1438,-4.1438,-4.1438,-4.1438,-4.1001,-4.0744,-4.0744,-4.0744,-4.053,-4.0039,-4.0039,-3.9777,-3.9349,-3.9305,-3.9305,-3.9305,-3.9305,-3.9305,-1.558,0.0,0.0,0.0,0.0,0.0,0.0,0.0,0.0,0.0,0.0,0.0,0.0,0.0,0.0,0.0,0.0,0.0,0.0,0.0,0.0,0.0,0.0,0.0,0.0,0.0,0.0,0.0,-3.6301,-3.6388,-3.6577,-3.7041,-3.7389,-3.7549,-3.797,-3.8202,-3.8202,-3.8202,-3.8289,-3.8478,-3.8478,-3.8826,-3.9465,-3.9639,-3.9958,-4.0408,-4.1091,-4.1381,-4.141,-4.1903,-4.2092,-4.2092,-4.2092,-4.2092,-4.2121,-4.2281,-4.2339,-4.2382,-4.2557,-4.2629,-4.2629,-4.2629,-4.2629,-4.2629,-4.2629,-4.2629,-4.2586,-4.2397,-4.2339,-4.231,-4.2136,-4.2092,-4.2092,-4.2092,-4.2092,-4.2092,-4.2092,-4.2092,-4.2092,-4.2092,-4.2092,-4.2092,-4.2092,-4.2092,-4.2092,-4.2092,-4.1787,-4.1704,-4.2051,-4.1787,-4.1662,-4.1885,-4.2009,-4.2051,-4.1926,-4.1926,-4.1926,-4.1926,-4.1787,-4.1704,-4.1704,-4.1396,-4.1142,-4.1001,-4.0702,-4.043,-4.03,-3.9645,-3.9305,-3.9305,-3.9305,-3.9305,0.0,0.0,0.0,0.0,0.0,0.0,0.0,0.0,0.0,0.0,0.0,0.0,0.0,0.0,0.0,0.0,0.0,0.0,0.0,0.0,0.0,0.0,0.0,0.0,0.0,0.0,0.0,0.0,-3.5656,-3.5703,-3.5894,-3.6533,-3.6881,-3.6881,-3.7506,-3.7825,-3.7825,-3.8072,-3.8202,-3.8202,-3.8202,-3.8405,-3.8797,-3.9073,-3.9392,-3.9755,-4.0394,-4.0844,-4.1134,-4.1512,-4.1845,-4.2092,-4.2092,-4.2092,-4.2092,-4.2092,-4.2092,-4.2092,-4.2092,-4.2092,-4.2092,-4.2092,-4.2092,-4.2092,-4.2092,-4.2092,-4.2092,-4.2092,-4.2092,-4.2092,-4.2092,-4.2092,-4.2092,-4.2092,-4.2092,-4.2092,-4.2092,-4.2092,-4.2092,-4.2092,-4.2092,-4.2092,-4.2092,-4.2092,-4.2092,-4.2092,-4.187,-4.1787,-4.2051,-4.187,-4.1787,-4.2051,-4.2092,-4.2092,-4.2092,-4.2092,-4.2092,-4.2092,-4.2092,-4.2092,-4.2092,-4.1829,-4.162,-4.1396,-4.1128,-4.0915,-4.0702,-4.0126,-3.9865,-3.9865,-3.9865,-3.9865,0.0,0.0,0.0,0.0,0.0,0.0,0.0,-2.2027,0.0,0.0,0.0,0.0,0.0,0.0,0.0,0.0,0.0,0.0,0.0,0.0,0.0,0.0,0.0,0.0,0.0,0.0,-3.4731,-3.4835,-3.4716,-3.4845,-3.5261,-3.5865,-3.6199,-3.6199,-3.6852,-3.7201,-3.7201,-3.7796,-3.8101,-3.8101,-3.8173,-3.8202,-3.8217,-3.8826,-3.9088,-3.9117,-3.9726,-4.0336,-4.0887,-4.096,-4.1424,-4.2092,-4.2092,-4.2092,-4.2092,-4.2092,-4.2092,-4.2092,-4.2092,-4.2092,-4.2092,-4.2092,-4.2092,-4.2092,-4.2092,-4.2092,-4.2092,-4.2092,-4.2092,-4.2092,-4.2092,-4.2092,-4.2092,-4.2092,-4.2092,-4.2092,-4.2092,-4.2092,-4.2092,-4.2092,-4.2092,-4.2092,-4.2092,-4.2092,-4.2092,-4.2092,-4.2092,-4.2092,-4.2092,-4.2092,-4.2092,-4.2092,-4.2092,-4.2092,-4.2092,-4.2092,-4.2092,-4.2092,-4.2092,-4.2092,-4.2092,-4.2092,-4.1926,-4.148,-4.148,-4.1269,-4.0873,-4.0744,-4.0702,-4.0702,-4.0702,-4.0702,0.0,0.0,0.0,0.0,0.0,0.0,0.0,-2.0941,0.0,0.0,0.0,0.0,0.0,0.0,0.0,0.0,0.0,0.0,0.0,0.0,0.0,0.0,0.0,0.0,0.0,0.0,-3.4481,-3.4515,-3.4481,-3.4506,-3.4588,-3.5198,-3.5581,-3.5581,-3.617,-3.6504,-3.6504,-3.7157,-3.7491,-3.7491,-3.797,-3.8202,-3.8202,-3.8333,-3.8405,-3.8434,-3.9088,-3.945,-3.961,-4.0089,-4.1004,-4.2092,-4.2092,-4.2092,-4.2092,-4.2092,-4.2092,-4.2092,-4.2092,-4.2092,-4.2092,-4.2092,-4.2092,-4.2092,-4.2092,-4.2092,-4.2092,-4.2092,-4.2092,-4.2092,-4.2092,-4.2092,-4.2092,-4.2092,-4.2092,-4.2092,-4.2092,-4.2092,-4.2092,-4.2092,-4.2092,-4.2092,-4.2092,-4.2092,-4.2092,-4.2092,-4.2092,-4.2092,-4.2092,-4.2092,-4.2092,-4.2092,-4.2092,-4.2092,-4.2092,-4.2092,-4.2092,-4.2092,-4.2092,-4.2092,-4.2092,-4.2092,-4.2051,-4.1968,-4.1968,-4.1926,-4.1829,-4.1086,-4.0702,-4.0702,-4.0702,-4.0702,0.0,0.0,0.0,-2.3804,0.0,0.0,0.0,0.0,0.0,0.0,0.0,0.0,0.0,0.0,0.0,0.0,0.0,0.0,0.0,0.0,0.0,0.0,0.0,0.0,0.0,0.0,-3.4365,-3.4754,-3.4716,-3.4635,-3.4635,-3.4821,-3.4961,-3.503,-3.5572,-3.5836,-3.5836,-3.6475,-3.6983,-3.7302,-3.7607,-3.7912,-3.8202,-3.8202,-3.8202,-3.8217,-3.8565,-3.8884,-3.9218,-3.9523,-4.022,-4.1134,-4.1468,-4.1802,-4.2092,-4.2092,-4.2092,-4.2092,-4.2092,-4.2092,-4.2092,-4.2092,-4.2092,-4.2092,-4.2092,-4.2092,-4.2092,-4.2092,-4.2092,-4.2092,-4.2092,-4.2092,-4.2092,-4.2092,-4.2092,-4.2092,-4.2092,-4.2092,-4.2092,-4.2092,-4.2092,-4.2092,-4.2092,-4.2092,-4.2092,-4.2092,-4.2092,-4.2092,-4.2092,-4.2092,-4.2092,-4.2092,-4.2092,-4.2092,-4.2092,-4.2092,-4.2092,-4.2092,-4.2092,-4.2092,-4.2092,-4.2092,-4.2092,-4.2092,-4.2092,-4.2092,-4.2092,-4.162,-4.1396,-4.1396,-4.1396,-4.1396,0.0,0.0,0.0,0.0,0.0,-2.4784,0.0,0.0,0.0,0.0,0.0,0.0,0.0,0.0,0.0,0.0,0.0,0.0,0.0,0.0,0.0,0.0,0.0,0.0,0.0,0.0,-3.3657,-3.4703,-3.441,-3.428,-3.4662,-3.4543,-3.4515,-3.4631,-3.5025,-3.5218,-3.5218,-3.5807,-3.6402,-3.6939,-3.7186,-3.7564,-3.8028,-3.8144,-3.8202,-3.8202,-3.8202,-3.8507,-3.9015,-3.9015,-3.9363,-4.0002,-4.0786,-4.1424,-4.1918,-4.2049,-4.2092,-4.2092,-4.2092,-4.2092,-4.2092,-4.2092,-4.2092,-4.2092,-4.2092,-4.2092,-4.2092,-4.2092,-4.2092,-4.2092,-4.2092,-4.2092,-4.2092,-4.2092,-4.2092,-4.2092,-4.2092,-4.2092,-4.2092,-4.2092,-4.2092,-4.2092,-4.2092,-4.2092,-4.2092,-4.2092,-4.2092,-4.2092,-4.2092,-4.2092,-4.2092,-4.2092,-4.2092,-4.2092,-4.2092,-4.2092,-4.2092,-4.2092,-4.2092,-4.2092,-4.2092,-4.2092,-4.2092,-4.2092,-4.2092,-4.2092,-4.2092,-4.2092,-4.2092,-4.2092,-4.2092,-4.2092,0.0,0.0,0.0,0.0,-2.8115,0.0,0.0,0.0,0.0,0.0,0.0,0.0,0.0,0.0,0.0,0.0,0.0,0.0,0.0,0.0,0.0,0.0,0.0,0.0,0.0,0.0,0.0,-3.3124,-3.2133,-3.2144,-3.375,-3.4376,-3.4597,-3.4448,-3.4486,-3.4516,-3.4516,-3.5189,-3.5552,-3.5639,-3.6751,-3.7346,-3.7433,-3.7955,-3.8202,-3.8202,-3.8202,-3.8246,-3.8318,-3.8318,-3.8696,-3.9421,-4.0626,-4.1149,-4.1279,-4.1874,-4.2092,-4.2092,-4.2092,-4.2092,-4.2092,-4.2092,-4.2092,-4.2092,-4.2092,-4.2092,-4.2092,-4.2092,-4.2092,-4.2092,-4.2092,-4.2092,-4.2092,-4.2092,-4.2092,-4.2092,-4.2092,-4.2092,-4.2092,-4.2092,-4.2092,-4.2092,-4.2092,-4.2092,-4.2092,-4.2092,-4.2092,-4.2092,-4.2092,-4.2092,-4.2092,-4.2092,-4.2092,-4.2092,-4.2092,-4.2092,-4.2092,-4.2092,-4.2092,-4.2092,-4.2092,-4.2092,-4.2092,-4.2092,-4.2092,-4.2092,-4.2092,-4.2092,-4.2092,-4.2092,-4.2092,-4.2092,0.0,0.0,0.0,0.0,0.0,0.0,0.0,0.0,-2.3939,0.0,0.0,0.0,0.0,0.0,0.0,0.0,0.0,0.0,0.0,0.0,0.0,0.0,0.0,0.0,0.0,0.0,0.0,0.0,0.0,-3.1294,-3.2908,-3.3814,-3.442,-3.4687,-3.4616,-3.4515,-3.4414,-3.4675,-3.5029,-3.5407,-3.5944,-3.6577,-3.7317,-3.7564,-3.7883,-3.8202,-3.8202,-3.8202,-3.8202,-3.8202,-3.8376,-3.871,-3.9639,-4.0205,-4.0554,-4.0829,-4.1192,-4.1512,-4.1512,-4.1773,-4.2092,-4.2092,-4.2092,-4.2092,-4.2092,-4.2092,-4.2092,-4.2092,-4.2092,-4.2092,-4.2092,-4.2092,-4.2092,-4.2092,-4.2092,-4.2092,-4.2092,-4.2092,-4.2092,-4.2092,-4.2092,-4.2092,-4.2092,-4.2092,-4.2092,-4.2092,-4.2092,-4.2092,-4.2092,-4.2092,-4.2092,-4.2092,-4.2092,-4.2092,-4.2092,-4.2092,-4.2092,-4.2092,-4.2092,-4.2092,-4.2092,-4.2092,-4.2092,-4.2092,-4.2092,-4.2092,-4.2092,-4.2092,-4.2092,-4.2092,-4.2092,-4.2092,-3.0235,0.0,0.0,0.0,0.0,0.0,0.0,0.0,0.0,0.0,0.0,0.0,0.0,0.0,0.0,0.0,0.0,0.0,0.0,0.0,0.0,0.0,0.0,0.0,0.0,0.0,0.0,0.0,0.0,0.0,-3.1766,-3.2909,-3.3846,-3.464,-3.4695,-3.4631,-3.4481,-3.4414,-3.4646,-3.5145,-3.5319,-3.5886,-3.678,-3.7143,-3.7549,-3.797,-3.813,-3.8202,-3.8202,-3.8202,-3.8202,-3.8246,-3.8739,-3.9189,-3.9625,-3.9958,-4.0408,-4.0829,-4.0829,-4.1265,-4.186,-4.2034,-4.2092,-4.2092,-4.2092,-4.2092,-4.2092,-4.2092,-4.2092,-4.2092,-4.2092,-4.2092,-4.2092,-4.2092,-4.2092,-4.2092,-4.2092,-4.2092,-4.2092,-4.2092,-4.2092,-4.2092,-4.2092,-4.2092,-4.2092,-4.2092,-4.2092,-4.2092,-4.2092,-4.2092,-4.2092,-4.2092,-4.2092,-4.2092,-4.2092,-4.2092,-4.2092,-4.2092,-4.2092,-4.2092,-4.2092,-4.2092,-4.2092,-4.2092,-4.2092,-4.2092,-4.2092,-4.2092,-4.2092,-4.2092,-4.2092,-4.2092,0.0,0.0,0.0,-2.9363,0.0,0.0,0.0,0.0,-2.7656,0.0,0.0,0.0,0.0,0.0,0.0,-2.4087,0.0,0.0,0.0,0.0,0.0,0.0,0.0,0.0,0.0,0.0,0.0,0.0,0.0,0.0,-3.0164,-3.1575,-3.2819,-3.3994,-3.446,-3.4698,-3.4698,-3.4481,-3.4428,-3.4443,-3.5101,-3.5421,-3.5508,-3.6736,-3.7317,-3.736,-3.7955,-3.8202,-3.8202,-3.8202,-3.8202,-3.8202,-3.8217,-3.8246,-3.8405,-3.9639,-4.0104,-4.0133,-4.0133,-4.0568,-4.1236,-4.1889,-4.2092,-4.2092,-4.2092,-4.2092,-4.2092,-4.2092,-4.2092,-4.2092,-4.2092,-4.2092,-4.2092,-4.2092,-4.2092,-4.2092,-4.2092,-4.2092,-4.2092,-4.2092,-4.2092,-4.2092,-4.2092,-4.2092,-4.2092,-4.2092,-4.2092,-4.2092,-4.2092,-4.2092,-4.2092,-4.2092,-4.2092,-4.2092,-4.2092,-4.2092,-4.2092,-4.2092,-4.2092,-4.2092,-4.2092,-4.2092,-4.2092,-4.2092,-4.2092,-4.2092,-4.2092,-4.2092,-4.2092,-4.2092,-4.2092,-4.2092,0.0,0.0,-3.5351,-3.1525,0.0,0.0,0.0,0.0,0.0,0.0,0.0,0.0,0.0,0.0,-2.6341,-2.4634,-2.3953,0.0,0.0,0.0,0.0,0.0,0.0,0.0,0.0,0.0,0.0,0.0,0.0,0.0,0.0,-3.099,-3.272,-3.3441,-3.4487,-3.4931,-3.4698,-3.4631,-3.4515,-3.4414,-3.4632,-3.4951,-3.5407,-3.5857,-3.6489,-3.7317,-3.752,-3.7839,-3.8202,-3.8202,-3.8202,-3.8202,-3.8202,-3.8202,-3.826,-3.8681,-3.9117,-3.9567,-3.9958,-4.0249,-4.0481,-4.0699,-4.0771,-4.0858,-4.1294,-4.1439,-4.1526,-4.1976,-4.2092,-4.2092,-4.2092,-4.2092,-4.2092,-4.2092,-4.2092,-4.2092,-4.2092,-4.2092,-4.2092,-4.2092,-4.2092,-4.2092,-4.2092,-4.2092,-4.2092,-4.2092,-4.2092,-4.2092,-4.2092,-4.2092,-4.2092,-4.2092,-4.2092,-4.2092,-4.2092,-4.2092,-4.2092,-4.2092,-4.2092,-4.2092,-4.2092,-4.2092,-4.2092,-4.2092,-4.2092,-4.2092,-4.2092,-4.2092,-4.2092,-4.2092,-4.2092,-4.2092,-3.5787,-3.6385,0.0,-3.3297,-3.2462,0.0,-2.7427,0.0,0.0,0.0,0.0,0.0,0.0,0.0,0.0,-2.6147,-2.4668,0.0,0.0,0.0,0.0,0.0,0.0,0.0,0.0,0.0,-2.139,-2.2493,0.0,0.0,0.0,0.0,-3.1676,-3.2898,-3.4191,-3.4845,-3.4898,-3.4765,-3.4631,-3.4515,-3.4414,-3.4632,-3.5058,-3.529,-3.5857,-3.6635,-3.7099,-3.7535,-3.7897,-3.8115,-3.8202,-3.8202,-3.8202,-3.8202,-3.8202,-3.8202,-3.8478,-3.8928,-3.9567,-3.9784,-3.9813,-4.0031,-4.0104,-4.0176,-4.0612,-4.0742,-4.0887,-4.1555,-4.1744,-4.1802,-4.2034,-4.2092,-4.2092,-4.2092,-4.2092,-4.2092,-4.2092,-4.2092,-4.2092,-4.2092,-4.2092,-4.2092,-4.2092,-4.2092,-4.2092,-4.2092,-4.2092,-4.2092,-4.2092,-4.2092,-4.2092,-4.2092,-4.2092,-4.2092,-4.2092,-4.2092,-4.2092,-4.2092,-4.2092,-4.2092,-4.2092,-4.2092,-4.2092,-4.2092,-4.2092,-4.2092,-4.2092,-4.2092,-4.2092,-4.2092,-4.2092,-4.2092]},{"header":{"parameterUnit":"m.s-1","parameterCategory":1,"la1":30.6,"la2":29.2853,"lo1":-89.7004,"lo2":-87.6739,"dy":0.0162,"dx":0.0183,"nx":112,"ny":82,"refTime":"2025-07-06T12:00:00:Z","depth":0,"parameterNumber":3,"parameterNumberName":"V-component_of_WINDS"},"data":[0.0,0.0,0.0,0.0,0.0,0.0,0.0,0.0,0.0,0.0,0.0,0.0,0.0,0.0,0.0,0.0,0.0,0.0,0.0,0.0,0.0,0.0,0.0,0.0,0.0,0.0,0.0,0.0,0.0,0.0,0.0,0.0,0.0,0.0,0.0,0.0,0.0,0.0,0.0,0.0,0.0,0.0,0.0,0.0,0.0,0.0,0.0,0.0,0.0,0.0,0.0,0.0,0.0,0.0,0.0,0.0,0.0,0.0,0.0,0.0,0.0,0.0,0.0,0.0,0.0,0.0,0.0,0.0,0.0,0.0,0.0,0.0,0.0,0.0,0.0,0.0,0.0,0.0,0.0,0.0,0.0,0.0,0.0,0.0,0.0,0.0,0.0,0.0,0.0,0.0,0.0,-2.4943,-2.9027,-3.1563,-3.1563,-3.1351,-2.9581,-2.5696,0.0,0.0,0.0,0.0,0.0,0.0,0.0,0.0,0.0,0.0,0.0,0.0,0.0,0.0,0.0,0.0,0.0,0.0,0.0,0.0,0.0,0.0,0.0,0.0,0.0,0.0,0.0,0.0,0.0,0.0,0.0,0.0,0.0,0.0,0.0,0.0,0.0,0.0,0.0,0.0,0.0,0.0,0.0,0.0,0.0,0.0,0.0,0.0,0.0,0.0,0.0,0.0,0.0,0.0,0.0,0.0,0.0,0.0,0.0,0.0,0.0,0.0,0.0,0.0,0.0,0.0,0.0,0.0,0.0,0.0,0.0,0.0,0.0,0.0,0.0,0.0,0.0,0.0,0.0,0.0,0.0,0.0,0.0,0.0,0.0,0.0,0.0,0.0,0.0,0.0,0.0,0.0,0.0,0.0,0.0,0.0,0.0,0.0,0.0,0.0,0.0,0.0,0.0,0.0,-2.3394,-2.8879,-3.1151,-3.2244,-3.2244,-3.1213,-2.9335,-2.6411,0.0,0.0,0.0,0.0,0.0,0.0,0.0,0.0,0.0,0.0,0.0,0.0,0.0,0.0,0.0,0.0,0.0,0.0,0.0,0.0,0.0,0.0,0.0,0.0,0.0,0.0,0.0,0.0,0.0,0.0,0.0,0.0,0.0,0.0,0.0,0.0,0.0,0.0,0.0,0.0,0.0,0.0,0.0,0.0,0.0,0.0,0.0,0.0,0.0,0.0,0.0,0.0,0.0,0.0,0.0,0.0,0.0,0.0,0.0,0.0,0.0,0.0,0.0,0.0,0.0,0.0,0.0,0.0,0.0,0.0,0.0,0.0,0.0,0.0,0.0,0.0,0.0,0.0,0.0,0.0,0.0,0.0,0.0,0.0,0.0,0.0,0.0,0.0,0.0,0.0,0.0,0.0,0.0,0.0,0.0,0.0,0.0,0.0,0.0,0.0,0.0,0.0,0.0,-2.2682,-2.5395,-3.0412,-3.1813,-3.2398,-3.2398,-3.1182,-2.9233,-2.6534,-2.3748,0.0,0.0,0.0,0.0,0.0,0.0,0.0,0.0,0.0,0.0,0.0,0.0,0.0,0.0,0.0,0.0,0.0,0.0,0.0,0.0,0.0,0.0,0.0,0.0,0.0,0.0,0.0,0.0,0.0,0.0,0.0,0.0,0.0,0.0,0.0,0.0,0.0,0.0,0.0,0.0,0.0,0.0,0.0,0.0,0.0,0.0,0.0,0.0,0.0,0.0,0.0,0.0,0.0,0.0,0.0,0.0,0.0,0.0,0.0,0.0,0.0,0.0,0.0,0.0,0.0,0.0,0.0,0.0,0.0,0.0,0.0,0.0,0.0,0.0,0.0,0.0,0.0,0.0,0.0,0.0,0.0,0.0,0.0,0.0,0.0,0.0,0.0,0.0,0.0,0.0,0.0,0.0,0.0,0.0,0.0,0.0,0.0,0.0,0.0,0.0,0.0,0.0,-2.5758,-2.7657,-3.1243,-3.209,-3.2398,-3.2398,-3.0889,-2.8895,-2.645,-2.2701,0.0,0.0,0.0,0.0,0.0,0.0,0.0,0.0,0.0,0.0,0.0,0.0,0.0,0.0,0.0,0.0,0.0,0.0,0.0,0.0,0.0,0.0,0.0,0.0,0.0,0.0,0.0,0.0,0.0,0.0,0.0,0.0,0.0,0.0,0.0,0.0,0.0,0.0,0.0,0.0,0.0,0.0,0.0,0.0,0.0,0.0,0.0,0.0,0.0,0.0,0.0,0.0,0.0,0.0,0.0,0.0,0.0,0.0,0.0,0.0,0.0,0.0,0.0,0.0,0.0,0.0,0.0,0.0,0.0,0.0,0.0,0.0,0.0,0.0,0.0,0.0,0.0,0.0,0.0,0.0,0.0,0.0,0.0,0.0,0.0,0.0,0.0,0.0,0.0,0.0,0.0,0.0,0.0,0.0,0.0,0.0,0.0,0.0,0.0,0.0,0.0,0.0,-2.7165,-2.995,-3.209,-3.2367,-3.2398,-3.2398,-3.0027,-2.7904,-2.6388,-2.1341,0.0,0.0,0.0,0.0,0.0,0.0,0.0,0.0,0.0,0.0,0.0,0.0,0.0,0.0,0.0,0.0,0.0,0.0,0.0,0.0,0.0,0.0,0.0,0.0,0.0,0.0,0.0,0.0,0.0,0.0,0.0,0.0,0.0,0.0,0.0,0.0,0.0,0.0,0.0,0.0,0.0,0.0,0.0,0.0,0.0,0.0,0.0,0.0,0.0,0.0,0.0,0.0,0.0,0.0,0.0,0.0,0.0,0.0,0.0,0.0,0.0,0.0,0.0,0.0,0.0,0.0,0.0,0.0,0.0,0.0,0.0,0.0,0.0,0.0,0.0,0.0,0.0,0.0,0.0,0.0,0.0,0.0,0.0,0.0,0.0,0.0,0.0,0.0,0.0,0.0,0.0,0.0,0.0,0.0,0.0,0.0,0.0,0.0,0.0,0.0,0.0,0.0,-2.6811,-2.9243,0.0,-3.2398,-3.2398,-3.2398,-3.072,-2.8679,-2.645,0.0,0.0,0.0,0.0,0.0,0.0,0.0,0.0,0.0,0.0,0.0,0.0,0.0,0.0,0.0,0.0,0.0,0.0,0.0,0.0,0.0,0.0,0.0,0.0,0.0,0.0,0.0,0.0,0.0,0.0,0.0,0.0,0.0,0.0,0.0,0.0,0.0,0.0,0.0,0.0,0.0,0.0,0.0,0.0,0.0,0.0,0.0,0.0,0.0,0.0,0.0,0.0,0.0,0.0,0.0,0.0,0.0,0.0,0.0,0.0,0.0,0.0,0.0,0.0,0.0,0.0,0.0,0.0,0.0,0.0,0.0,0.0,0.0,0.0,0.0,0.0,0.0,0.0,0.0,0.0,0.0,0.0,0.0,0.0,0.0,0.0,0.0,0.0,0.0,0.0,0.0,0.0,0.0,0.0,0.0,0.0,0.0,0.0,0.0,0.0,0.0,0.0,-2.4681,-2.7103,-2.9396,0.0,-3.2398,-3.2398,-3.2398,-3.0797,-2.8772,-2.6488,0.0,0.0,0.0,0.0,0.0,0.0,0.0,0.0,0.0,0.0,0.0,0.0,0.0,0.0,0.0,0.0,0.0,0.0,0.0,0.0,0.0,0.0,0.0,0.0,0.0,0.0,0.0,0.0,0.0,0.0,0.0,0.0,0.0,0.0,0.0,0.0,0.0,0.0,0.0,0.0,0.0,0.0,0.0,0.0,0.0,0.0,0.0,0.0,0.0,0.0,0.0,0.0,0.0,0.0,0.0,0.0,0.0,0.0,0.0,0.0,0.0,0.0,0.0,0.0,0.0,0.0,0.0,0.0,0.0,0.0,0.0,0.0,0.0,0.0,0.0,0.0,0.0,0.0,0.0,0.0,0.0,0.0,0.0,0.0,0.0,0.0,0.0,0.0,0.0,0.0,0.0,0.0,0.0,0.0,0.0,0.0,0.0,0.0,0.0,0.0,0.0,0.0,-2.4887,-2.828,-3.0909,-3.2259,-3.2398,-3.2398,-3.2398,-2.9966,-2.7842,0.0,0.0,0.0,0.0,0.0,0.0,0.0,0.0,0.0,0.0,0.0,0.0,0.0,0.0,0.0,0.0,0.0,0.0,0.0,0.0,0.0,0.0,0.0,0.0,0.0,0.0,0.0,0.0,0.0,0.0,0.0,0.0,0.0,0.0,0.0,0.0,0.0,0.0,0.0,0.0,0.0,0.0,0.0,0.0,0.0,0.0,0.0,0.0,0.0,0.0,0.0,0.0,0.0,0.0,0.0,0.0,0.0,0.0,0.0,0.0,0.0,0.0,0.0,0.0,0.0,0.0,0.0,0.0,0.0,0.0,0.0,0.0,0.0,0.0,0.0,0.0,0.0,0.0,0.0,0.0,0.0,0.0,0.0,0.0,0.0,0.0,0.0,0.0,0.0,0.0,0.0,0.0,0.0,0.0,0.0,0.0,0.0,0.0,0.0,0.0,0.0,0.0,0.0,-2.558,-2.8602,-3.1078,-3.2921,-3.2675,-3.2582,-3.3059,-3.1063,-2.8802,-2.6465,0.0,0.0,0.0,0.0,0.0,0.0,0.0,0.0,0.0,0.0,0.0,0.0,0.0,0.0,0.0,0.0,0.0,0.0,0.0,0.0,0.0,0.0,0.0,0.0,0.0,0.0,0.0,0.0,0.0,0.0,0.0,0.0,0.0,0.0,0.0,0.0,0.0,0.0,0.0,0.0,0.0,0.0,0.0,0.0,0.0,0.0,0.0,0.0,0.0,0.0,0.0,0.0,0.0,0.0,0.0,0.0,0.0,0.0,0.0,0.0,0.0,0.0,0.0,0.0,0.0,0.0,0.0,0.0,0.0,0.0,0.0,0.0,0.0,0.0,0.0,0.0,0.0,0.0,0.0,0.0,0.0,0.0,0.0,0.0,0.0,0.0,0.0,0.0,0.0,0.0,0.0,0.0,0.0,0.0,0.0,0.0,0.0,0.0,0.0,0.0,0.0,0.0,-2.5841,-2.8965,-3.1474,-3.3213,-3.329,-3.3275,-3.3398,-3.2059,-2.9935,-2.6926,0.0,0.0,0.0,0.0,0.0,0.0,0.0,0.0,0.0,0.0,0.0,0.0,0.0,0.0,0.0,0.0,0.0,0.0,0.0,0.0,0.0,0.0,0.0,0.0,0.0,0.0,0.0,0.0,0.0,0.0,0.0,0.0,0.0,0.0,0.0,0.0,0.0,0.0,0.0,0.0,0.0,0.0,0.0,0.0,0.0,0.0,0.0,0.0,0.0,0.0,0.0,0.0,0.0,0.0,0.0,0.0,0.0,0.0,0.0,0.0,0.0,0.0,0.0,0.0,0.0,0.0,0.0,0.0,0.0,0.0,0.0,0.0,0.0,0.0,0.0,0.0,0.0,0.0,0.0,0.0,0.0,0.0,0.0,0.0,0.0,0.0,0.0,0.0,0.0,0.0,0.0,0.0,0.0,0.0,0.0,0.0,0.0,0.0,0.0,0.0,0.0,0.0,-2.5896,-2.9381,-3.2013,-3.3444,-3.415,-3.4243,-3.3567,-3.2813,-3.0997,-2.7703,0.0,0.0,0.0,0.0,0.0,0.0,0.0,0.0,0.0,0.0,0.0,0.0,0.0,0.0,0.0,0.0,0.0,0.0,0.0,0.0,0.0,0.0,0.0,0.0,0.0,0.0,0.0,0.0,0.0,0.0,0.0,0.0,0.0,0.0,0.0,0.0,0.0,0.0,0.0,0.0,0.0,0.0,0.0,0.0,0.0,0.0,0.0,0.0,0.0,0.0,0.0,0.0,0.0,0.0,0.0,0.0,0.0,0.0,0.0,0.0,-2.7276,0.0,0.0,0.0,0.0,0.0,0.0,0.0,0.0,0.0,0.0,0.0,0.0,0.0,0.0,0.0,0.0,0.0,0.0,0.0,0.0,0.0,0.0,0.0,0.0,0.0,0.0,0.0,0.0,0.0,0.0,0.0,0.0,0.0,0.0,0.0,0.0,0.0,0.0,0.0,0.0,0.0,-2.6718,-3.0089,-3.2906,-3.4829,-3.472,-3.4443,-3.4289,-3.3106,-3.1182,-2.8365,0.0,0.0,0.0,0.0,0.0,0.0,0.0,0.0,0.0,0.0,0.0,0.0,0.0,0.0,0.0,0.0,0.0,0.0,0.0,0.0,0.0,0.0,0.0,0.0,0.0,0.0,0.0,0.0,0.0,0.0,0.0,0.0,0.0,0.0,0.0,0.0,0.0,0.0,0.0,0.0,0.0,0.0,0.0,0.0,0.0,0.0,0.0,0.0,0.0,0.0,0.0,0.0,0.0,0.0,0.0,0.0,0.0,0.0,0.0,0.0,0.0,-2.9702,0.0,0.0,0.0,0.0,0.0,0.0,0.0,0.0,0.0,0.0,0.0,0.0,0.0,0.0,0.0,0.0,0.0,0.0,0.0,0.0,0.0,0.0,0.0,0.0,0.0,0.0,0.0,0.0,0.0,0.0,0.0,0.0,0.0,0.0,0.0,0.0,0.0,0.0,0.0,0.0,-2.7442,-3.0812,-3.3537,-3.5291,-3.5491,-3.5337,-3.5013,-3.4027,-3.2382,-2.9981,-2.7596,0.0,0.0,0.0,0.0,0.0,0.0,0.0,0.0,0.0,0.0,0.0,0.0,0.0,0.0,0.0,0.0,0.0,0.0,0.0,0.0,0.0,0.0,0.0,0.0,0.0,0.0,0.0,0.0,0.0,0.0,0.0,0.0,0.0,0.0,0.0,0.0,0.0,0.0,0.0,0.0,0.0,0.0,0.0,0.0,0.0,0.0,0.0,0.0,0.0,0.0,0.0,0.0,0.0,-3.2793,-3.4046,-3.6001,-3.6911,-3.7641,-3.8055,-3.5553,-3.4376,-3.4105,0.0,0.0,0.0,0.0,0.0,0.0,0.0,0.0,0.0,0.0,0.0,0.0,0.0,0.0,0.0,0.0,0.0,0.0,0.0,0.0,0.0,0.0,0.0,0.0,0.0,-3.0228,-2.9986,0.0,0.0,0.0,0.0,0.0,0.0,0.0,0.0,0.0,0.0,0.0,0.0,-2.835,-3.169,-3.4245,-3.5552,-3.6153,-3.6215,-3.5568,-3.489,-3.3673,-3.169,-2.9797,-2.7642,0.0,0.0,0.0,0.0,0.0,0.0,0.0,0.0,0.0,0.0,0.0,0.0,0.0,0.0,0.0,0.0,0.0,0.0,0.0,0.0,0.0,0.0,0.0,0.0,0.0,0.0,0.0,0.0,0.0,0.0,0.0,0.0,-1.9071,-2.0597,0.0,0.0,0.0,0.0,0.0,0.0,0.0,0.0,0.0,0.0,0.0,0.0,0.0,0.0,-3.2804,-3.4572,-3.5874,-3.674,-3.9601,-4.1142,-4.1498,-4.2819,-4.3121,-4.2593,-4.2858,0.0,-3.6562,-3.4271,0.0,0.0,0.0,0.0,0.0,0.0,0.0,0.0,0.0,0.0,0.0,0.0,0.0,0.0,0.0,0.0,0.0,0.0,0.0,0.0,0.0,0.0,-3.4166,-3.3013,-3.3352,-3.3598,0.0,-2.8879,-2.5911,-2.545,-2.3563,0.0,0.0,0.0,0.0,0.0,0.0,0.0,-2.9848,-3.3106,-3.5537,-3.6276,-3.6445,-3.6215,-3.5568,-3.489,-3.3873,-3.2351,-3.0936,-2.9433,-2.7934,-2.5964,0.0,0.0,0.0,0.0,0.0,0.0,0.0,0.0,0.0,0.0,0.0,0.0,0.0,0.0,0.0,0.0,0.0,0.0,0.0,0.0,0.0,0.0,0.0,0.0,0.0,0.0,0.0,0.0,0.0,-1.8638,-2.135,-2.232,-2.2825,-2.2809,0.0,0.0,0.0,0.0,0.0,0.0,0.0,0.0,0.0,-3.3183,-3.4014,-3.5183,-3.683,-3.812,-3.9313,-4.0452,-4.1916,-4.3221,-4.4367,-4.4987,-4.5303,-4.5286,-4.4848,-4.3436,-4.1255,-3.8935,-3.7199,-3.5761,0.0,0.0,0.0,0.0,-3.1959,-3.1982,-3.3121,-3.3521,0.0,0.0,0.0,0.0,0.0,0.0,0.0,0.0,0.0,0.0,0.0,0.0,0.0,-3.5106,-3.5383,-3.5552,-3.5199,-3.3213,-3.0905,0.0,-2.8273,-2.6903,-2.3563,0.0,0.0,0.0,0.0,0.0,-3.1844,-3.4075,-3.5753,-3.6415,-3.6492,-3.6368,-3.6076,-3.5106,-3.4243,-3.3627,-3.1921,-3.0705,-3.0104,-2.8134,-2.5949,0.0,0.0,0.0,0.0,0.0,0.0,0.0,0.0,0.0,0.0,0.0,0.0,0.0,0.0,0.0,0.0,0.0,0.0,0.0,0.0,0.0,0.0,0.0,0.0,0.0,0.0,0.0,0.0,-2.1085,-2.3594,-2.4271,-2.5665,-2.6065,0.0,0.0,0.0,0.0,0.0,0.0,-3.1613,-3.2675,-3.4306,-3.6692,-3.7923,-3.9123,-4.0293,-4.0959,-4.1819,-4.2936,-4.3499,-4.4447,-4.5792,-4.618,-4.6389,-4.6452,-4.562,-4.5011,-4.4491,-4.2209,-4.0651,-3.9462,-3.7379,-3.6171,-3.5697,-3.5946,-3.603,-3.6245,-3.7754,-3.8277,-3.7938,-3.5891,0.0,-3.3721,-3.1228,0.0,0.0,0.0,0.0,-3.2585,-3.4275,-3.5106,-3.5799,-3.6769,-3.7015,-3.6953,-3.6784,-3.6353,-3.5153,0.0,-3.2228,-3.132,-2.7103,0.0,0.0,0.0,0.0,-3.1797,-3.346,-3.4891,-3.5938,-3.6445,-3.6492,-3.6492,-3.6492,-3.5275,-3.4505,-3.4505,-3.2718,-3.167,-3.167,-3.0043,-2.8211,-2.6127,0.0,0.0,0.0,0.0,0.0,0.0,0.0,0.0,0.0,0.0,0.0,0.0,0.0,0.0,0.0,0.0,0.0,0.0,0.0,0.0,0.0,0.0,0.0,0.0,0.0,0.0,0.0,0.0,0.0,-2.7103,-2.8925,0.0,0.0,0.0,0.0,-3.0048,-3.1397,-3.3044,-3.5122,-3.7092,-3.88,-4.0197,-4.1001,-4.174,-4.2448,-4.311,-4.346,-4.3576,-4.562,-4.629,-4.5744,-4.7161,-4.7056,-4.5802,-4.6421,-4.5894,-4.4457,-4.2416,-4.155,-4.1376,-4.0566,-4.0208,-4.0192,-4.0201,-4.0197,-4.0197,-4.0305,-4.0336,-4.032,-4.0182,-3.8431,-3.6307,-3.6138,-3.5213,0.0,0.0,-3.663,-3.7307,-3.8061,-3.8277,-3.8323,-3.8385,-3.8415,-3.8231,-3.7584,-3.7415,-3.6969,0.0,-3.4214,-3.3059,-3.2151,0.0,-3.1166,-3.1116,-3.2321,-3.3537,-3.4351,-3.5599,-3.6445,-3.6492,-3.6492,-3.6492,-3.6492,-3.5275,-3.4505,-3.4505,-3.3165,-3.2336,-3.2336,-3.1628,-3.0289,-2.8288,-2.6157,0.0,0.0,0.0,0.0,0.0,0.0,0.0,0.0,0.0,0.0,0.0,0.0,0.0,0.0,0.0,0.0,0.0,0.0,0.0,0.0,0.0,0.0,0.0,0.0,0.0,0.0,0.0,0.0,-3.0428,-3.2044,0.0,0.0,-3.2705,-3.3521,-3.4876,-3.5814,-3.723,-3.9308,-4.0108,-4.0924,-4.1832,-4.2509,-4.3223,-4.3864,-4.5065,-4.5839,-4.626,-4.8052,-4.8475,-4.7764,-4.931,-4.9192,-4.7706,-4.8029,-4.7562,-4.6481,-4.5292,-4.431,-4.3452,-4.2771,-4.2504,-4.2435,-4.2025,-4.1863,-4.1863,-4.1863,-4.1863,-4.1786,-4.1355,-3.9955,-3.8431,-3.8431,-3.78,-3.7169,-3.7646,-3.7969,-3.82,-3.8446,-3.8508,-3.8508,-3.8508,-3.8508,-3.8446,-3.82,-3.8138,-3.7877,-3.6953,-3.603,-3.4891,-3.3321,-3.3583,-3.3721,-3.2813,-3.386,-3.4983,-3.5722,-3.6184,-3.6492,-3.6492,-3.6492,-3.6492,-3.6492,-3.5275,-3.4305,-3.3814,-3.2505,-3.1551,-3.1124,-3.0889,-3.0027,-2.8427,-2.7257,-2.4979,0.0,0.0,0.0,0.0,0.0,0.0,0.0,0.0,0.0,0.0,0.0,0.0,0.0,0.0,0.0,0.0,0.0,0.0,0.0,0.0,0.0,0.0,0.0,0.0,0.0,0.0,-3.1243,-3.2582,-3.4568,-3.5753,-3.5522,-3.6307,-3.74,-3.8785,-3.9293,-4.0247,-4.1848,-4.214,-4.2571,-4.3248,-4.3947,-4.461,-4.5249,-4.6227,-4.6931,-4.7324,-4.8647,-4.888,-4.8089,-4.9415,-4.9309,-4.8052,-4.8111,-4.7826,-4.7285,-4.6825,-4.6086,-4.523,-4.4798,-4.4596,-4.4528,-4.3865,-4.3618,-4.3587,-4.3356,-4.3125,-4.2863,-4.2402,-4.1494,-4.057,-4.057,-4.0247,-3.9847,-3.9616,-3.9554,-3.9493,-3.9262,-3.9152,-3.9152,-3.9152,-3.9152,-3.9123,-3.8908,-3.8846,-3.8646,-3.7969,-3.7292,-3.6322,-3.4722,-3.5214,-3.5507,-3.4583,-3.523,-3.5984,-3.643,-3.6492,-3.6492,-3.6492,-3.6492,-3.6492,-3.6492,-3.5275,-3.4305,-3.3798,-3.2475,-3.1428,-3.0782,-3.0509,-2.9771,-2.8427,-2.7519,-2.5933,-2.364,0.0,0.0,0.0,0.0,0.0,0.0,0.0,0.0,0.0,0.0,0.0,0.0,0.0,0.0,0.0,0.0,0.0,0.0,0.0,0.0,0.0,0.0,0.0,-2.758,-3.0982,-3.3506,-3.3583,-3.6538,-3.8323,-3.7692,-3.8831,-4.0185,-4.1555,-4.1663,-4.1971,-4.2663,-4.3294,-4.3978,-4.4656,-4.528,-4.5942,-4.6619,-4.6674,-4.6674,-4.6665,-4.7425,-4.7387,-4.6689,-4.7464,-4.7402,-4.6665,-4.6689,-4.6705,-4.6665,-4.6665,-4.6665,-4.6665,-4.6619,-4.6603,-4.6511,-4.5865,-4.5603,-4.5495,-4.4849,-4.4194,-4.3639,-4.3639,-4.3171,-4.2633,-4.2633,-4.2633,-4.2463,-4.1817,-4.1632,-4.1463,-4.072,-4.052,-4.052,-4.0505,-4.0489,-4.032,-3.9659,-3.9521,-3.9321,-3.8677,-3.8015,-3.7338,-3.6645,-3.6507,-3.6492,-3.6492,-3.6492,0.0,-3.6492,-3.6492,-3.6492,-3.6492,-3.6492,-3.6492,-3.6492,-3.5306,-3.452,-3.4474,-3.318,-3.209,-3.1439,-3.0782,-2.9817,-2.8519,-2.718,-2.6457,-2.6403,0.0,0.0,0.0,0.0,0.0,0.0,0.0,0.0,0.0,0.0,0.0,0.0,0.0,0.0,0.0,0.0,0.0,0.0,0.0,0.0,0.0,0.0,-3.1751,-3.1751,-3.3567,-3.5645,-3.76,-3.9059,-4.0108,-4.0447,-4.1263,-4.2109,-4.2992,-4.3069,-4.3541,-4.471,-4.4941,-4.5341,-4.6018,-4.6219,-4.665,-4.7327,-4.7902,-4.8168,-4.8065,-4.9501,-4.9423,-4.8091,-4.954,-4.9385,-4.8106,-4.8722,-4.8642,-4.8065,-4.8065,-4.8065,-4.7958,-4.6973,-4.6603,-4.6573,-4.6388,-4.6003,-4.5557,-4.5372,-4.4902,-4.4348,-4.4348,-4.3886,-4.3347,-4.3347,-4.2987,-4.2571,-4.2386,-4.234,-4.2171,-4.1478,-4.1309,-4.117,-4.0612,-4.0489,-4.0443,-4.0259,-4.0213,-4.0013,-3.937,-3.9093,-3.86,-3.7415,-3.6815,-3.6492,-3.6492,-3.6492,0.0,-3.6492,-3.6492,-3.6492,-3.6492,-3.6492,-3.6492,-3.6492,-3.5737,-3.4797,-3.3767,-3.2875,-3.209,-3.1439,-3.1213,-3.0951,-3.0566,-2.9258,-2.8581,0.0,0.0,0.0,0.0,0.0,0.0,0.0,0.0,0.0,0.0,0.0,0.0,0.0,0.0,0.0,0.0,0.0,0.0,0.0,0.0,0.0,0.0,-3.2105,-3.466,-3.5799,-3.6661,-3.7861,-3.969,-4.052,-4.1355,-4.2325,-4.2786,-4.3279,-4.3978,-4.4286,-4.4795,-4.5541,-4.5849,-4.6326,-4.7004,-4.7019,-4.7342,-4.8019,-4.8475,-4.8677,-4.8604,-4.9574,-4.9534,-4.8646,-4.9614,-4.9534,0.0,-4.9122,-4.9081,-4.862,-4.862,-4.862,0.0,0.0,0.0,0.0,0.0,-4.6588,-4.6018,-4.6018,-4.5572,-4.5003,-4.5003,-4.4579,-4.4024,-4.4024,-4.3762,-4.3371,-4.3094,-4.3017,-4.2863,-4.2186,-4.1817,-4.1494,-4.1078,-4.0705,-4.0489,-4.0489,-4.0489,-4.0382,-3.9982,-3.9674,0.0,-3.8477,-3.7554,-3.6815,-3.6538,-3.6492,-3.6492,-3.6492,-3.6492,-3.6492,-3.6492,-3.6492,-3.6492,-3.6492,-3.5876,0.0,0.0,0.0,-3.2829,-3.1844,-3.1563,0.0,0.0,0.0,0.0,0.0,0.0,0.0,0.0,-2.8935,-2.8904,0.0,0.0,0.0,0.0,0.0,0.0,0.0,0.0,0.0,0.0,0.0,0.0,0.0,0.0,0.0,0.0,-3.4876,-3.6784,-3.9185,-3.9647,-3.9951,-4.0536,-4.1278,-4.2202,-4.3485,-4.367,-4.3994,-4.4671,-4.5249,-4.5649,-4.5803,0.0,0.0,0.0,0.0,-4.8004,-4.8604,-4.862,-4.862,-4.862,-4.862,-4.862,-4.862,-4.862,-4.862,-4.862,-4.862,-4.862,-4.862,-4.862,-4.862,-4.862,-4.862,-4.862,-4.8543,-4.7942,-4.7296,-4.6711,-4.6711,0.0,0.0,-4.5695,-4.5249,-4.4733,-4.4733,-4.4671,-4.4486,-4.3886,-4.3716,-4.3578,-4.2879,-4.2279,-4.1801,-4.1724,-4.117,-4.0612,-4.0612,-4.0551,-4.0489,-4.0489,-4.0013,-3.9582,-3.949,-3.8462,-3.7384,-3.6707,-3.6599,-3.6584,-3.6507,-3.6492,-3.6492,-3.6492,0.0,0.0,-3.6492,-3.5938,-3.5598,-3.5506,-3.4951,-3.4058,-3.2798,-3.2244,-3.2213,-3.2736,-3.2736,-3.3352,-3.4613,-3.5213,-3.5244,-3.4659,-3.1536,-3.0735,0.0,0.0,0.0,0.0,0.0,0.0,0.0,0.0,0.0,0.0,0.0,0.0,0.0,0.0,0.0,-3.4073,-3.6784,-3.8923,-3.9447,-4.0493,-4.1247,-4.137,-4.2001,-4.2709,-4.3531,-4.4101,-4.4664,-4.5341,-4.5511,-4.6065,-4.7157,-4.7342,0.0,-4.8404,-4.8419,-4.8481,-4.862,-4.862,-4.862,-4.862,0.0,0.0,-4.862,-4.862,-4.862,-4.862,-4.862,-4.862,-4.862,-4.862,-4.862,-4.862,-4.862,-4.862,-4.8604,-4.8466,-4.7989,-4.7419,-4.7419,-4.6973,-4.6403,-4.6403,-4.5942,-4.5403,-4.5403,-4.5041,0.0,-4.4456,-4.4425,-4.4255,-4.3593,-4.3331,-4.31,-4.254,-4.1894,-4.1401,-4.1401,-4.0905,-4.0489,-4.0489,-4.0397,-4.012,-3.9582,-3.8846,-3.8077,-3.7415,-3.7307,-3.7107,-3.6569,-3.6492,-3.6492,-3.6492,-3.6492,-3.6492,-3.6492,-3.6368,-3.6061,-3.5522,-3.5383,-3.5198,-3.4921,-3.5291,-3.5306,-3.4921,-3.4891,-3.5014,-3.5321,-3.5444,-3.5691,-3.6076,-3.4876,-3.4445,0.0,0.0,0.0,0.0,0.0,0.0,0.0,0.0,0.0,0.0,0.0,-2.992,0.0,0.0,-3.5399,-3.6784,-3.8415,-3.977,-4.0462,-4.1155,-4.1724,-4.2063,-4.2679,-4.334,-4.4055,-4.4733,-4.5218,-4.5557,-4.6219,-4.688,-4.7573,-4.7927,-4.8266,-4.8604,-4.862,-4.862,-4.862,-4.862,-4.862,-4.862,-4.862,-4.862,-4.862,-4.862,-4.862,-4.862,-4.862,-4.862,-4.862,-4.862,-4.862,-4.862,-4.862,-4.862,-4.862,-4.862,-4.8404,-4.8112,-4.8112,-4.7665,-4.7096,-4.7096,-4.665,-4.6034,-4.5695,-4.5357,-4.5041,-4.4679,-4.461,-4.4533,-4.4194,-4.3855,-4.3531,-4.3171,-4.2586,-4.2017,-4.1678,-4.1324,-4.0955,-4.0566,-4.0489,-4.0382,-4.0043,-3.9705,-3.9136,-3.8154,-3.8,-3.7769,-3.7092,-3.6999,-3.6861,-3.6538,-3.6492,-3.6492,-3.6492,-3.6492,-3.6353,-3.6014,-3.5984,-3.5984,-3.5984,-3.6307,-3.6322,-3.5999,-3.5984,-3.5984,-3.5984,-3.5984,-3.6153,-3.6492,-3.6492,-3.6307,0.0,0.0,0.0,0.0,0.0,0.0,0.0,0.0,-2.9058,-3.0812,-3.2028,-3.3275,-3.4982,-3.6261,-3.7661,-3.9398,-3.9797,-4.0355,-4.1617,-4.1909,-4.214,-4.2556,-4.3171,-4.387,-4.4548,-4.5187,-4.5634,-4.5772,-4.6911,-4.7665,-4.7788,-4.8327,-4.862,-4.862,-4.862,-4.862,-4.862,-4.862,-4.862,-4.862,-4.862,-4.862,-4.862,-4.862,-4.862,-4.862,-4.862,-4.862,-4.862,-4.862,-4.862,-4.862,-4.862,-4.862,-4.862,-4.862,-4.862,-4.862,-4.862,-4.8266,-4.7804,-4.7804,-4.7342,-4.668,-4.6142,-4.5803,-4.548,-4.4926,-4.4718,-4.461,-4.461,-4.4209,-4.3809,-4.3809,-4.3264,-4.2648,-4.2094,-4.1786,-4.1432,-4.0812,-4.0597,-4.0489,-4.0489,-4.0489,-4.0074,-3.8893,-3.8708,-3.8462,-3.7784,-3.7692,-3.7446,-3.6769,-3.6692,-3.663,-3.6507,-3.6492,-3.6492,-3.6492,-3.6492,-3.6492,-3.6492,-3.6492,-3.6492,-3.6492,-3.6615,-3.6692,-3.6692,-3.683,-3.6892,-3.6892,-3.7446,-3.7338,-2.2471,-2.3825,0.0,-2.8104,-2.7996,-2.8827,0.0,0.0,-3.3629,-3.683,-3.7615,-3.7784,-3.8015,-3.8677,-3.9413,-4.0243,-4.0955,-4.1632,-4.2386,-4.2987,-4.3156,-4.2663,-4.3171,-4.387,-4.4548,-4.5187,-4.5834,-4.6434,-4.7173,-4.7865,-4.8481,-4.8573,-4.862,-4.862,-4.862,-4.862,-4.862,-4.862,-4.862,-4.862,-4.862,-4.862,-4.862,-4.862,-4.862,-4.862,-4.862,-4.862,-4.862,-4.862,-4.862,-4.862,-4.862,-4.862,-4.862,-4.862,-4.862,-4.862,-4.862,-4.8558,-4.8496,-4.8496,-4.8035,-4.7481,-4.7404,-4.6542,-4.5572,-4.5495,-4.5049,-4.461,-4.461,-4.4526,-4.4502,-4.4502,-4.3994,-4.3485,-4.3408,-4.2432,-4.1571,-4.1494,-4.0935,-4.0489,-4.0489,-4.0489,-4.0243,-3.949,-3.9367,-3.917,-3.8477,-3.84,-3.8138,-3.7461,-3.7384,-3.7153,-3.6538,-3.6492,-3.6492,-3.6492,-3.6492,-3.6492,-3.6492,-3.6492,-3.6492,-3.6492,-3.7076,-3.7384,-3.7384,-3.8,-3.8292,-3.8292,-3.8354,-3.8031,-2.7319,0.0,0.0,0.0,-3.2213,-3.3429,-3.6261,-3.6322,-3.6307,-3.8123,-3.8831,-3.9059,-3.9059,-3.9613,-4.0305,0.0,-4.1401,-4.1971,-4.3017,-4.3079,-4.3048,-4.3156,-4.3439,-4.3716,-4.3994,-4.5311,-4.6296,-4.6573,-4.7588,-4.8312,-4.8604,-4.862,-4.862,-4.862,-4.862,-4.862,-4.862,-4.862,-4.862,-4.862,-4.862,-4.862,-4.862,-4.862,-4.862,-4.862,-4.862,-4.862,-4.862,-4.862,-4.862,-4.862,-4.862,-4.862,-4.862,-4.862,-4.862,-4.862,-4.862,-4.862,-4.862,-4.862,-4.8419,-4.8127,-4.7727,-4.7219,-4.6603,-4.5818,-4.5387,-4.5064,-4.4718,-4.461,-4.461,-4.461,-4.4409,-4.4086,-4.3685,-4.3177,-4.2509,-4.174,-4.1355,-4.0981,-4.0566,-4.0489,-4.0397,-4.0105,-4.0074,-3.9828,-3.9185,-3.9059,-3.8846,-3.8154,-3.8092,-3.7969,-3.7692,-3.7661,-3.7661,-3.7661,-3.7661,-3.7661,-3.7661,-3.7661,-3.7661,-3.7661,-3.7938,-3.8092,-3.8092,-3.8369,-3.8508,-3.8523,-3.8908,-3.8921,-2.9766,0.0,0.0,-3.329,-3.5245,-3.6861,-3.723,-3.7707,-3.8246,-3.8923,-3.9308,-3.949,-3.949,-3.989,0.0,-4.1447,-4.1755,-4.234,-4.3701,-4.3279,-4.2987,-4.33,-4.3501,-4.3531,-4.3362,-4.5126,-4.6388,-4.6588,-4.7681,-4.8419,-4.8604,-4.862,-4.862,-4.862,-4.862,-4.862,-4.862,-4.862,-4.862,-4.862,-4.862,-4.862,-4.862,-4.862,-4.862,-4.862,-4.862,-4.862,-4.862,-4.862,-4.862,-4.862,-4.862,-4.862,-4.862,-4.862,-4.862,-4.862,-4.862,-4.862,-4.862,-4.862,-4.862,-4.8527,-4.8035,-4.7758,-4.7404,-4.6419,-4.588,-4.548,-4.4987,-4.4764,-4.461,-4.461,-4.461,-4.4486,-4.3994,-4.3732,-4.3316,-4.2325,-4.2001,-4.1648,-4.094,-4.0782,-4.072,-4.052,-4.0489,-4.032,-3.9828,-3.9598,-3.929,-3.8846,-3.8616,-3.8508,-3.8508,-3.8508,-3.8508,-3.8508,-3.8508,-3.8508,-3.8508,-3.8508,-3.8508,-3.8508,-3.8692,-3.8785,-3.8785,-3.897,-3.9062,-3.9077,-3.9536,-3.9767,0.0,0.0,-3.3506,-3.4274,-3.5968,-3.7815,-3.9123,-3.9413,-3.9613,-4.029,-3.992,-3.949,-3.949,-3.9539,-4.0001,-4.137,-4.2155,-4.3048,-4.4394,-4.4009,-4.3362,-4.2709,-4.3187,-4.3362,0.0,-4.4449,-4.5895,-4.6542,-4.7234,-4.7912,-4.8573,-4.862,-4.862,-4.862,-4.862,-4.862,-4.862,-4.862,-4.862,-4.862,-4.862,-4.862,-4.862,-4.862,-4.862,-4.862,-4.862,-4.862,-4.862,-4.862,-4.862,-4.862,-4.862,-4.862,-4.862,-4.862,-4.862,-4.862,-4.862,-4.862,-4.862,-4.862,-4.862,-4.862,-4.8589,-4.8127,-4.7588,-4.7558,-4.6603,-4.5588,-4.5557,-4.5064,-4.461,-4.461,-4.461,-4.4572,-4.4594,-4.4071,-4.3593,-4.3562,-4.3002,-4.2371,-4.1678,-4.1571,-4.1324,-4.0597,-4.0489,-4.0489,-4.0459,-3.989,-3.9474,-3.9459,-3.8908,-3.8508,-3.8508,-3.8508,-3.8508,-3.8508,-3.8508,-3.8508,-3.8508,-3.8508,-3.8508,-3.8508,-3.9154,-3.9459,-3.9459,-4.0105,-4.0428,-4.0428,-4.0459,-4.0459,0.0,0.0,-3.5168,-3.6753,-3.8,-3.9077,-3.9951,-4.0151,-4.009,-3.9874,-3.9644,-3.9351,-3.8923,-3.8846,-3.9447,-4.1309,-4.1786,-4.2556,-4.4363,-4.4425,-4.4024,-4.3325,-4.387,0.0,0.0,0.0,0.0,-4.6542,-4.7219,-4.7896,-4.8573,-4.862,-4.862,-4.862,-4.862,-4.862,-4.862,-4.862,-4.862,-4.862,-4.862,-4.862,-4.862,-4.862,-4.862,-4.862,-4.862,-4.862,-4.862,-4.862,-4.862,-4.862,-4.862,-4.862,-4.862,-4.862,-4.862,-4.862,-4.862,-4.862,-4.862,-4.862,-4.862,-4.862,-4.862,-4.845,-4.8189,-4.7727,-4.7281,-4.6726,-4.5818,-4.5418,-4.5126,-4.4718,-4.461,-4.461,-4.461,-4.444,-4.4148,-4.3701,-4.3424,-4.3033,-4.2386,-4.1894,-4.1355,-4.0597,-4.0489,-4.0489,-4.0489,-4.029,-4.0151,-4.0151,-3.9951,-3.9813,-3.9813,-3.9813,-3.9813,-3.9813,-3.9813,-3.9813,-3.9813,-3.9813,-3.9813,-3.9813,-4.0043,-4.0151,-4.0151,-4.0382,-4.0489,-4.0505,-4.0981,-4.1232,0.0,-3.583,-3.663,-3.8415,-3.9351,-3.9967,-4.0397,-4.0305,-3.9936,-3.9293,-3.8585,-3.7938,-3.7507,-3.723,-3.7815,-4.0124,-4.0893,-4.2001,-4.4264,-4.4409,-4.4271,-4.4317,-4.4502,0.0,0.0,0.0,0.0,-4.6557,-4.7219,-4.7896,-4.8573,-4.862,-4.862,-4.862,-4.862,-4.862,-4.862,-4.862,-4.862,-4.862,-4.862,-4.862,-4.862,-4.862,-4.862,-4.862,-4.862,-4.862,-4.862,-4.862,-4.862,-4.862,-4.862,-4.862,-4.862,-4.862,-4.862,-4.862,-4.862,-4.862,-4.862,-4.862,-4.862,-4.862,-4.862,-4.862,-4.8527,-4.8081,-4.7788,-4.7404,-4.6542,-4.5957,-4.548,-4.5049,-4.4756,-4.461,-4.461,-4.461,-4.4486,-4.4055,-4.3978,-4.3762,-4.3063,-4.2402,-4.1724,-4.0981,-4.0874,-4.0782,-4.052,-4.0489,-4.0489,-4.0489,-4.0489,-4.0489,-4.0489,-4.0489,-4.0489,-4.0489,-4.0489,-4.0489,-4.0489,-4.0489,-4.0489,-4.0489,-4.0489,-4.0489,-4.0489,-4.0751,-4.0874,-4.0889,-4.1632,-4.1971,-3.543,-3.6599,-3.7891,-3.9213,-4.0013,-4.0489,-4.0443,-3.992,-3.9213,-3.8475,-3.6769,-3.5353,0.0,0.0,-3.5291,-3.7969,-3.9567,-4.1443,-4.4202,-4.4117,-4.424,0.0,0.0,0.0,0.0,0.0,0.0,-4.665,0.0,-4.7896,-4.8573,-4.862,-4.862,-4.862,-4.862,-4.862,-4.862,-4.862,-4.862,-4.862,-4.862,-4.862,-4.862,-4.862,-4.862,-4.862,-4.862,-4.862,-4.862,-4.862,-4.862,-4.862,-4.862,-4.862,-4.862,-4.862,-4.862,-4.862,-4.862,-4.862,-4.862,-4.862,-4.862,-4.862,-4.862,-4.862,-4.862,-4.862,-4.8142,-4.765,-4.7619,-4.665,-4.568,-4.5603,-4.5095,-4.4656,-4.4625,-4.461,-4.461,-4.461,-4.461,-4.4409,-4.3732,-4.3063,-4.2417,-4.1755,-4.1648,-4.1386,-4.0597,-4.0489,-4.0489,-4.0489,-4.0489,-4.0489,-4.0489,-4.0489,-4.0489,-4.0489,-4.0489,-4.0489,-4.0489,-4.0489,-4.0505,-4.0551,-4.0551,-4.0566,-4.0597,-4.1324,-4.1648,-4.1663,-4.234,-4.2663,-3.6868,-3.8126,-3.895,-3.9699,-4.0104,-4.0193,-3.9673,-3.9014,-3.8065,-3.6458,-3.491,-3.3529,0.0,0.0,0.0,-3.6645,-3.8985,0.0,-4.4202,-4.5295,0.0,0.0,0.0,-4.6696,-4.6372,-4.6942,0.0,0.0,-4.7511,-4.7896,-4.8573,-4.862,-4.862,-4.862,-4.862,-4.862,-4.862,-4.862,-4.862,-4.862,-4.862,-4.862,-4.862,-4.862,-4.862,-4.862,-4.862,-4.862,-4.862,-4.862,-4.862,-4.862,-4.862,-4.862,-4.862,-4.862,-4.862,-4.862,-4.862,-4.862,-4.862,-4.862,-4.862,-4.862,-4.862,-4.862,-4.862,-4.862,-4.8496,-4.8235,-4.7727,-4.7357,-4.6834,-4.5834,-4.5464,-4.5187,-4.4733,-4.461,-4.461,-4.461,-4.461,-4.4409,-4.3732,-4.347,-4.311,-4.2448,-4.2355,-4.1909,-4.0659,-4.0489,-4.0489,-4.0489,-4.0489,-4.0489,-4.0489,-4.0489,-4.0489,-4.0489,-4.0489,-4.0489,-4.0489,-4.0489,-4.0751,-4.1324,-4.1324,-4.1571,-4.2078,-4.2263,-4.2355,-4.2371,-4.3017,-4.3362,-3.8025,-3.9146,-3.9772,-4.008,-3.9978,-3.9608,-3.8598,-3.731,-3.5736,-3.3492,-3.1934,0.0,0.0,0.0,0.0,0.0,0.0,0.0,-4.3756,-4.5295,-4.648,0.0,-4.7558,0.0,-4.7496,-4.7819,-4.805,0.0,-4.805,-4.8204,-4.8589,-4.862,-4.862,-4.862,-4.862,-4.862,-4.862,-4.862,-4.862,-4.862,-4.862,-4.862,-4.862,-4.862,-4.862,-4.862,0.0,-4.862,-4.862,-4.862,-4.862,-4.862,-4.862,-4.862,-4.862,-4.862,-4.862,-4.862,-4.862,-4.862,-4.862,-4.862,-4.862,-4.862,-4.862,-4.862,-4.862,-4.862,-4.862,-4.8527,-4.8142,-4.7835,-4.7419,-4.6665,-4.6018,-4.548,-4.511,-4.4825,-4.461,-4.461,-4.461,-4.4486,-4.4117,-4.4055,-4.3824,-4.3125,-4.3033,-4.2648,-4.155,-4.1151,-4.0843,-4.052,-4.0489,-4.0489,-4.0489,-4.0489,-4.0489,-4.0489,-4.0782,-4.1001,-4.1001,-4.1258,-4.1632,-4.2032,-4.2048,-4.2232,-4.2602,-4.2894,-4.3033,-4.3048,-4.3747,-4.4055,-3.8857,-3.9734,-4.0191,-4.0207,-3.9703,-3.8852,-3.7418,-3.5339,-3.2967,-3.0335,0.0,0.0,-2.5994,0.0,-3.0326,-3.2029,0.0,-4.0228,-4.3208,-4.4764,-4.6311,-4.825,-4.8035,-4.7973,-4.8558,-4.862,-4.862,-4.862,-4.862,-4.862,-4.862,-4.862,-4.862,-4.862,-4.862,-4.862,-4.862,-4.862,-4.862,-4.862,-4.862,-4.862,-4.862,-4.862,-4.862,-4.862,0.0,0.0,-4.862,-4.862,-4.862,-4.862,-4.862,-4.862,-4.862,-4.862,-4.862,-4.862,-4.862,-4.862,-4.862,-4.862,-4.862,-4.862,-4.862,-4.862,-4.862,-4.862,-4.862,-4.862,-4.862,-4.8173,-4.7711,-4.7635,-4.6711,-4.5803,-4.5634,-4.5049,-4.461,-4.461,-4.461,-4.461,-4.461,-4.461,-4.4409,-4.3824,-4.3747,-4.3501,-4.2817,-4.2155,-4.1494,-4.0843,-4.0766,-4.0766,-4.0766,-4.0766,-4.0766,-4.0766,-4.1386,-4.174,-4.174,-4.2294,-4.2648,-4.274,-4.274,-4.2786,-4.2879,-4.3433,-4.3747,-4.3762,-4.4348,-4.461,-3.9189,-3.9713,-3.9753,-3.9589,-3.9164,-3.8307,-3.6421,-3.4016,0.0,0.0,0.0,-2.4532,-2.4254,0.0,0.0,-3.1772,0.0,0.0,0.0,0.0,0.0,0.0,0.0,0.0,0.0,0.0,0.0,0.0,0.0,0.0,-4.862,-4.862,-4.862,-4.862,-4.862,-4.862,-4.862,-4.862,-4.862,-4.862,-4.862,-4.862,-4.862,-4.862,-4.862,-4.862,-4.862,0.0,-4.862,-4.862,-4.862,-4.862,-4.862,-4.862,-4.862,-4.862,-4.862,-4.862,-4.862,-4.862,-4.862,-4.862,-4.862,-4.862,-4.862,-4.862,-4.862,-4.862,-4.862,-4.862,-4.862,-4.8527,-4.8296,-4.7742,-4.7419,-4.6942,-4.5834,-4.5049,-4.461,-4.461,-4.461,-4.461,-4.461,-4.461,-4.4579,-4.4456,-4.444,-4.4194,-4.3531,-4.2833,-4.2386,-4.2263,-4.2248,-4.2248,-4.2248,-4.2248,-4.2248,-4.2248,-4.2371,-4.2432,-4.2432,-4.254,-4.2863,-4.3424,-4.3439,-4.3716,-4.4233,-4.4379,-4.444,-4.444,-4.4564,-4.461,-3.8863,-3.9425,-3.9696,-3.9589,-3.8858,-3.7481,-3.4799,0.0,0.0,0.0,0.0,-2.2635,-2.2254,0.0,0.0,0.0,0.0,0.0,0.0,0.0,0.0,0.0,0.0,0.0,0.0,0.0,0.0,0.0,0.0,0.0,-4.862,-4.862,-4.862,-4.862,-4.862,-4.862,-4.862,-4.862,-4.862,-4.862,-4.862,-4.862,-4.862,-4.862,-4.862,-4.862,-4.862,0.0,-4.862,-4.862,-4.862,-4.862,-4.862,-4.862,-4.862,-4.862,-4.862,-4.862,-4.862,-4.862,-4.862,-4.862,-4.862,-4.862,-4.862,-4.862,-4.862,-4.862,-4.862,-4.862,-4.862,-4.862,-4.8543,-4.8204,-4.7588,-4.6803,-4.5803,-4.5049,-4.461,-4.461,-4.461,-4.461,-4.461,-4.461,-4.461,-4.461,-4.461,-4.4502,-4.4178,-4.3818,-4.3371,-4.2679,-4.2602,-4.2602,-4.2602,-4.2602,-4.2602,-4.2602,-4.2925,-4.311,-4.311,-4.3448,-4.3771,-4.4117,-4.4132,-4.4286,-4.461,-4.461,-4.461,-4.461,-4.461,-4.461,-3.8402,-3.9113,-3.9625,-3.9625,-3.8512,-3.6601,-3.3472,-3.0363,0.0,0.0,0.0,0.0,-2.0961,0.0,0.0,0.0,0.0,0.0,0.0,0.0,0.0,0.0,0.0,0.0,0.0,0.0,0.0,0.0,0.0,0.0,-4.862,-4.862,-4.862,-4.862,-4.862,-4.862,-4.862,-4.862,-4.862,-4.862,-4.862,-4.862,-4.862,-4.862,-4.862,-4.862,-4.862,0.0,0.0,-4.862,-4.862,-4.862,-4.862,-4.862,-4.862,-4.862,-4.862,-4.862,-4.862,-4.862,-4.862,-4.862,-4.862,-4.862,-4.862,-4.862,-4.862,-4.862,-4.862,-4.862,-4.862,-4.862,-4.862,-4.862,-4.7696,-4.6619,-4.5957,-4.528,-4.4756,-4.4641,-4.461,-4.461,-4.461,-4.461,-4.461,-4.461,-4.461,-4.461,-4.461,-4.461,-4.4187,-4.314,-4.3033,-4.3033,-4.3033,-4.3033,-4.3033,-4.3033,-4.351,-4.3824,-4.3824,-4.4332,-4.461,-4.461,-4.461,-4.461,-4.461,-4.461,-4.461,-4.461,-4.461,-4.461,-3.8247,-3.8936,-3.9424,-3.9424,-3.8023,-3.5896,-3.3156,0.0,0.0,0.0,-2.1205,-2.0247,-2.138,0.0,0.0,0.0,0.0,0.0,0.0,0.0,0.0,0.0,0.0,0.0,0.0,0.0,0.0,0.0,0.0,0.0,0.0,-4.862,-4.862,-4.862,-4.862,-4.862,-4.862,-4.862,-4.862,-4.862,-4.862,-4.862,-4.862,-4.862,-4.862,-4.862,-4.862,0.0,0.0,-4.862,-4.862,-4.862,-4.862,-4.862,-4.862,-4.862,-4.862,-4.862,-4.862,-4.862,-4.862,-4.862,-4.862,-4.862,-4.862,-4.862,-4.862,-4.862,-4.862,-4.862,-4.862,-4.862,-4.862,-4.862,-4.805,-4.7327,-4.665,-4.5972,-4.5311,-4.4733,-4.461,-4.461,-4.461,-4.461,-4.461,-4.461,-4.461,-4.461,-4.461,-4.461,-4.4564,-4.444,-4.444,-4.444,-4.444,-4.444,-4.444,-4.444,-4.4486,-4.4533,-4.4533,-4.4579,-4.461,-4.461,-4.461,-4.461,-4.461,-4.461,-4.461,-4.461,-4.461,-4.461,-3.7404,-3.8287,-3.8796,-3.8796,-3.7629,-3.5579,-3.2093,0.0,0.0,-2.2733,-2.0831,-2.0112,-2.144,-2.1924,0.0,0.0,0.0,0.0,0.0,0.0,0.0,0.0,0.0,0.0,0.0,0.0,0.0,0.0,0.0,0.0,0.0,-4.862,-4.862,-4.862,-4.862,-4.862,-4.862,-4.862,-4.862,-4.862,-4.862,-4.862,-4.862,-4.862,-4.862,-4.862,-4.862,0.0,0.0,-4.862,-4.862,-4.862,-4.862,-4.862,-4.862,-4.862,-4.862,-4.862,-4.862,-4.862,-4.862,-4.862,-4.862,-4.862,-4.862,-4.862,-4.862,-4.862,-4.862,-4.862,-4.862,-4.862,-4.862,-4.862,-4.8096,-4.7527,-4.7265,-4.6357,-4.5511,-4.5234,-4.4902,-4.461,-4.461,-4.461,-4.461,-4.461,-4.461,-4.461,-4.461,-4.461,-4.461,-4.461,-4.461,-4.461,-4.461,-4.461,-4.461,-4.461,-4.461,-4.461,-4.461,-4.461,-4.461,-4.461,-4.461,-4.461,-4.461,-4.461,-4.461,-4.461,-4.461,-4.461,-3.6118,-3.73,-3.8093,-3.8093,-3.6985,-3.4951,0.0,0.0,-2.542,-2.2338,-2.0636,-2.0112,-2.144,-2.1695,-2.2679,0.0,0.0,0.0,0.0,0.0,0.0,0.0,0.0,0.0,0.0,0.0,0.0,0.0,0.0,0.0,0.0,-4.8495,-4.8537,-4.862,-4.862,-4.862,-4.862,-4.862,-4.862,-4.862,-4.862,-4.862,-4.862,-4.862,-4.862,-4.862,0.0,0.0,0.0,-4.862,-4.862,-4.8578,-4.8537,-4.8495,-4.8495,-4.8495,-4.8453,-4.8412,-4.8495,-4.8495,-4.8495,-4.8495,-4.8537,-4.862,-4.862,-4.862,-4.862,-4.862,-4.862,-4.862,-4.862,-4.862,-4.862,-4.862,-4.825,-4.785,-4.765,-4.6696,-4.5834,-4.5634,-4.5049,-4.461,-4.461,-4.461,-4.461,-4.461,-4.461,-4.461,-4.461,-4.461,-4.461,-4.461,-4.461,-4.461,-4.461,-4.461,-4.461,-4.461,-4.461,-4.461,-4.461,-4.461,-4.461,-4.461,-4.461,-4.461,-4.461,-4.461,-4.461,-4.461,-4.461,-4.461,-3.4354,-3.5938,-3.7419,-3.7419,-3.5938,-3.3799,0.0,-2.7964,-2.4881,-2.2233,-2.0636,-2.0112,-2.144,-2.1695,-2.2338,-2.4306,0.0,0.0,0.0,0.0,0.0,0.0,0.0,0.0,0.0,0.0,0.0,0.0,0.0,0.0,0.0,-4.8286,-4.8412,-4.8578,-4.862,-4.862,-4.862,-4.862,-4.862,-4.862,-4.862,-4.862,-4.862,-4.862,-4.862,0.0,0.0,0.0,0.0,-4.862,-4.862,-4.8578,-4.837,-4.8286,-4.8286,-4.8286,-4.8175,-4.8049,-4.8244,-4.8286,-4.8286,-4.8286,-4.8453,-4.862,-4.862,-4.862,-4.862,-4.862,-4.862,-4.862,-4.862,-4.862,-4.862,-4.862,-4.8604,-4.8419,-4.7742,-4.7065,-4.6388,-4.5711,-4.5049,-4.461,-4.461,-4.461,-4.461,-4.461,-4.461,-4.461,-4.461,-4.461,-4.461,-4.461,-4.461,-4.461,-4.461,-4.461,-4.461,-4.461,-4.461,-4.461,-4.461,-4.461,-4.461,-4.461,-4.461,-4.461,-4.461,-4.461,-4.461,-4.461,-4.461,-4.461,-3.0849,-3.1898,-3.2587,-3.2168,-3.1255,-2.9998,-2.8233,-2.5974,-2.3744,-2.2054,-2.1006,-2.0662,-2.1545,-2.2054,-2.3332,-2.6207,-2.723,0.0,0.0,0.0,0.0,0.0,0.0,0.0,0.0,0.0,0.0,0.0,0.0,0.0,0.0,-4.8091,-4.826,-4.8578,-4.8453,-4.8453,-4.862,-4.862,-4.8537,-4.8412,-4.8412,-4.8328,-4.8175,-4.8175,0.0,0.0,0.0,0.0,0.0,-4.8175,-4.8175,-4.8175,-4.8133,-4.8091,-4.8091,-4.8091,-4.8049,-4.8007,-4.8091,-4.8091,-4.8133,-4.826,-4.8328,-4.8412,-4.8578,-4.862,-4.862,-4.862,-4.862,-4.862,-4.862,-4.862,-4.862,-4.862,-4.862,-4.8558,-4.8343,-4.7404,-4.6542,-4.6311,-4.5357,-4.461,-4.461,-4.461,-4.461,-4.461,-4.461,-4.461,-4.461,-4.461,-4.461,-4.461,-4.461,-4.461,-4.461,-4.461,-4.461,-4.461,-4.461,-4.461,-4.461,-4.461,-4.461,-4.461,-4.461,-4.461,-4.461,-4.461,-4.461,-4.461,-4.461,-4.4872,0.0,-2.8727,-2.937,-2.9235,-2.8517,-2.756,-2.6467,-2.4687,-2.2877,-2.159,-2.0797,-2.0602,-2.153,-2.2044,-2.3242,-2.6004,-2.6896,0.0,0.0,0.0,0.0,0.0,0.0,0.0,0.0,0.0,0.0,0.0,0.0,0.0,0.0,0.0,-4.8007,-4.837,-4.8244,-4.826,-4.837,-4.837,-4.8286,-4.8175,-4.8175,-4.8133,-4.8007,-4.8007,0.0,0.0,0.0,0.0,0.0,-4.8007,-4.8007,-4.8007,-4.788,-4.7837,-4.7837,-4.7837,-4.7794,-4.7767,-4.7837,-4.7922,-4.8007,-4.8133,-4.8286,-4.8453,-4.8578,-4.862,-4.862,-4.862,-4.862,-4.862,-4.862,-4.862,-4.862,-4.862,-4.862,-4.862,-4.862,-4.7758,-4.6896,-4.665,-4.5711,-4.4918,-4.4656,-4.461,-4.461,-4.461,-4.461,-4.461,-4.461,-4.461,-4.461,-4.461,-4.461,-4.461,-4.461,-4.461,-4.461,-4.461,-4.461,-4.461,-4.461,-4.461,-4.461,-4.461,-4.461,-4.461,-4.461,-4.461,-4.4748,-4.4995,-4.4995,-4.5326,0.0,-2.6153,-2.733,-2.7889,-2.7096,-2.6019,-2.545,-2.3879,0.0,-2.0957,-2.0198,-2.0198,-2.1635,-2.1859,-2.2547,-2.4739,0.0,0.0,0.0,0.0,0.0,0.0,0.0,0.0,0.0,0.0,0.0,0.0,0.0,0.0,0.0,0.0,-4.7666,-4.7922,-4.7964,-4.7964,-4.8007,-4.8007,-4.8007,-4.7964,-4.7964,-4.7964,-4.7964,-4.7964,0.0,0.0,0.0,0.0,0.0,-4.7964,-4.7964,-4.7922,-4.7681,-4.7596,-4.7596,-4.7596,-4.7467,-4.7352,-4.7553,-4.7752,-4.7964,-4.8007,-4.8244,-4.8563,-4.862,-4.862,-4.862,-4.862,-4.862,-4.862,-4.862,-4.862,-4.862,-4.862,-4.862,-4.862,-4.862,-4.8081,-4.7404,-4.6726,-4.6049,-4.5372,-4.4733,-4.461,-4.461,-4.461,-4.461,-4.461,-4.461,-4.461,-4.461,-4.461,-4.461,-4.461,-4.461,-4.461,-4.461,-4.461,-4.461,-4.461,-4.461,-4.461,-4.461,-4.461,-4.461,-4.461,-4.461,-4.4671,-4.501,-4.5588,-4.5634,-4.6018,-2.0882,0.0,-2.2996,-2.2652,-2.2303,-2.2188,0.0,-2.1874,-2.1081,0.0,0.0,0.0,0.0,-2.3505,0.0,0.0,0.0,0.0,0.0,0.0,0.0,0.0,0.0,0.0,0.0,0.0,0.0,0.0,0.0,0.0,0.0,0.0,-4.7381,-4.7467,-4.7467,-4.7639,-4.8007,-4.8007,-4.788,-4.7709,-4.7709,-4.7639,-4.7467,-4.7467,0.0,0.0,0.0,0.0,-4.7467,-4.7467,-4.7467,-4.7467,-4.7396,-4.7396,-4.7396,-4.7396,-4.7352,-4.7352,-4.7553,-4.7553,-4.751,-4.788,-4.8175,-4.8412,-4.8537,-4.862,-4.862,-4.862,-4.862,-4.862,-4.862,-4.862,-4.862,-4.862,-4.862,-4.862,-4.862,-4.8081,-4.7404,-4.6726,-4.6049,-4.5372,-4.4733,-4.461,-4.461,-4.461,-4.461,-4.461,-4.461,-4.461,-4.461,-4.461,-4.461,-4.461,-4.461,-4.461,-4.461,-4.461,-4.461,-4.461,-4.461,-4.461,-4.461,-4.461,-4.461,-4.461,-4.461,-4.5095,-4.5434,-4.5603,-4.6126,-4.6726,-1.9365,-2.0752,-2.2128,-2.2054,-2.1829,-2.1784,-2.2428,0.0,0.0,0.0,0.0,0.0,0.0,0.0,0.0,0.0,0.0,0.0,0.0,0.0,0.0,0.0,0.0,0.0,0.0,0.0,0.0,0.0,0.0,0.0,0.0,0.0,-4.7309,-4.7309,-4.7309,-4.7424,-4.7681,-4.7681,-4.7596,-4.7467,-4.7467,-4.7424,-4.7309,-4.7309,-4.7309,0.0,0.0,0.0,-4.7309,-4.7309,-4.7309,-4.7309,-4.7309,-4.7309,-4.7309,-4.7309,-4.7309,-4.7309,-4.7424,-4.7467,-4.751,-4.788,-4.8091,-4.8202,-4.8412,-4.8453,-4.8495,-4.8563,-4.862,-4.862,-4.862,-4.862,-4.862,-4.862,-4.862,-4.862,-4.862,-4.8327,-4.7773,-4.6788,-4.6311,-4.5741,-4.4779,-4.461,-4.461,-4.461,-4.461,-4.461,-4.461,-4.461,-4.461,-4.461,-4.461,-4.461,-4.461,-4.461,-4.461,-4.461,-4.461,-4.461,-4.461,-4.461,-4.461,-4.461,-4.461,-4.4764,-4.5049,-4.5403,-4.5911,-4.6526,-4.688,-4.7419,-1.9464,-2.1311,-2.3031,-2.2961,-2.2908,-2.295,-2.3263,0.0,0.0,0.0,0.0,0.0,0.0,0.0,0.0,0.0,0.0,0.0,0.0,0.0,0.0,0.0,0.0,0.0,0.0,0.0,0.0,0.0,0.0,0.0,0.0,0.0,0.0,-4.7309,-4.7309,-4.7309,-4.7309,-4.7309,-4.7309,-4.7309,-4.7309,-4.7309,-4.7309,-4.7309,-4.7309,0.0,0.0,0.0,-4.7309,-4.7309,-4.7309,-4.7309,-4.7309,-4.7309,-4.7309,-4.7309,-4.7309,-4.7309,-4.7309,-4.7424,-4.7624,-4.788,-4.7922,-4.7964,-4.8218,-4.8286,-4.8328,-4.8537,-4.862,-4.862,-4.862,-4.862,-4.862,-4.862,-4.862,-4.862,-4.862,-4.862,-4.825,-4.6988,-4.6665,-4.6203,-4.4979,-4.4687,-4.461,-4.461,-4.461,-4.461,-4.461,-4.461,-4.461,-4.461,-4.461,-4.461,-4.461,-4.461,-4.461,-4.461,-4.461,-4.461,-4.461,-4.461,-4.461,-4.461,-4.4718,-4.5018,-4.5588,-4.5788,-4.648,-4.7604,-4.7711,-4.8065,-2.1574,-2.3378,-2.3894,-2.0748,-2.1815,-2.3371,0.0,0.0,0.0,0.0,0.0,0.0,0.0,0.0,0.0,0.0,0.0,0.0,0.0,0.0,0.0,0.0,0.0,0.0,0.0,0.0,0.0,0.0,0.0,0.0,0.0,0.0,0.0,-4.7309,-4.7309,-4.7309,-4.7309,-4.7309,-4.7309,-4.7309,-4.7309,-4.7309,-4.7309,-4.7309,-4.7309,0.0,0.0,-4.7309,-4.7309,-4.7309,-4.7309,-4.7309,-4.7309,-4.7309,-4.7309,-4.7309,-4.7309,-4.7309,-4.7309,-4.7424,-4.7639,-4.7624,-4.7666,-4.7752,-4.816,-4.8286,-4.8328,-4.8537,-4.862,-4.862,-4.862,-4.862,-4.862,-4.862,-4.862,-4.862,-4.862,-4.862,-4.8389,-4.7604,-4.6988,-4.6342,-4.5572,-4.4995,-4.461,-4.461,-4.461,-4.461,-4.461,-4.461,-4.461,-4.461,-4.461,-4.461,-4.461,-4.461,-4.461,-4.461,-4.461,-4.461,-4.461,-4.461,-4.461,-4.461,-4.5141,-4.548,-4.5588,-4.6742,-4.7404,-4.7619,-4.8189,-4.8512,-1.9746,-2.1609,-2.271,-2.0583,-2.352,-2.6775,0.0,0.0,0.0,0.0,0.0,0.0,0.0,0.0,0.0,0.0,0.0,0.0,0.0,0.0,0.0,0.0,0.0,0.0,0.0,0.0,0.0,0.0,0.0,0.0,0.0,0.0,0.0,0.0,-4.7309,-4.7309,-4.7309,-4.7309,-4.7309,-4.7309,-4.7309,-4.7309,-4.7309,-4.7309,-4.7309,-4.7309,0.0,-4.7309,-4.7309,-4.7309,-4.7309,-4.7309,-4.7309,-4.7309,-4.7309,-4.7309,-4.7309,-4.7309,-4.7309,-4.7337,-4.7424,-4.7424,-4.751,-4.7666,-4.8049,-4.7934,-4.7749,-4.8003,-4.8313,-4.862,-4.862,-4.862,-4.862,-4.862,-4.862,-4.862,-4.862,-4.862,-4.8419,-4.7727,-4.7065,-4.6388,-4.5711,-4.5018,-4.461,-4.461,-4.461,-4.461,-4.461,-4.461,-4.461,-4.461,-4.461,-4.461,-4.461,-4.461,-4.461,-4.461,-4.461,-4.461,-4.461,-4.461,-4.4756,-4.511,-4.5418,-4.5957,-4.668,-4.7296,-4.7788,-4.8158,-4.8481,-4.862,-1.8488,-2.0053,-2.1534,-2.1724,0.0,-2.8429,-2.8829,0.0,0.0,0.0,0.0,0.0,0.0,0.0,0.0,0.0,0.0,0.0,0.0,0.0,0.0,0.0,0.0,0.0,0.0,0.0,0.0,0.0,0.0,0.0,0.0,0.0,0.0,0.0,-4.7309,-4.7309,-4.7309,-4.7309,-4.7309,-4.7309,-4.7309,-4.7309,-4.7309,-4.7309,-4.7309,-4.7309,-4.7309,-4.7309,-4.7309,-4.7309,-4.7309,-4.7309,-4.7309,-4.7309,-4.7309,-4.7309,-4.7309,-4.7309,-4.7309,-4.7309,-4.7309,-4.7309,-4.7337,-4.7409,-4.7666,-4.7493,-4.7248,-4.7536,-4.8103,-4.8521,-4.8214,-4.813,-4.813,-4.813,-4.813,-4.813,-4.813,-4.8256,-4.8201,-4.7696,-4.7175,-4.6619,-4.5942,-4.5264,-4.4795,-4.4641,-4.461,-4.461,-4.461,-4.461,-4.461,-4.461,-4.461,-4.461,-4.461,-4.461,-4.461,-4.461,-4.461,-4.4687,-4.4841,-4.4818,-4.5126,-4.5818,-4.5972,-4.6573,-4.7604,-4.7773,-4.8112,-4.862,-4.862,-4.862,-2.0533,-2.1016,-2.1513,-2.4199,0.0,0.0,-2.6567,0.0,0.0,0.0,0.0,0.0,0.0,0.0,0.0,0.0,0.0,0.0,0.0,0.0,0.0,0.0,0.0,0.0,0.0,0.0,0.0,0.0,0.0,0.0,0.0,0.0,0.0,0.0,0.0,-4.7309,-4.7309,-4.7309,-4.7309,-4.7309,-4.7309,-4.7309,-4.7309,-4.7309,-4.7309,-4.7309,-4.7309,-4.7309,-4.7309,-4.7309,-4.7309,-4.7309,-4.7309,-4.7309,-4.7309,-4.7309,-4.7309,-4.7309,-4.7309,-4.7309,-4.7309,-4.7309,-4.7033,-4.6727,-4.6931,-4.7061,-4.7248,-4.7536,-4.8103,-4.8297,-4.6973,-4.6667,-4.6667,-4.6667,-4.6667,-4.6667,-4.6667,-4.7204,-4.7649,-4.7603,-4.7577,-4.7327,-4.6634,-4.5957,-4.5295,-4.4702,-4.461,-4.461,-4.461,-4.461,-4.461,-4.461,-4.461,-4.461,-4.461,-4.461,-4.461,-4.461,-4.461,-4.4902,-4.548,-4.5511,-4.5834,-4.6511,-4.7142,-4.7511,-4.7604,-4.8235,-4.8558,-4.862,-4.862,-4.862,-1.8455,-1.9741,-2.108,-2.2542,0.0,0.0,0.0,0.0,0.0,0.0,0.0,0.0,0.0,0.0,0.0,0.0,0.0,0.0,0.0,0.0,0.0,0.0,0.0,0.0,0.0,0.0,0.0,0.0,0.0,0.0,0.0,0.0,0.0,0.0,0.0,-4.7309,-4.7309,-4.7309,-4.7309,-4.7309,-4.7309,-4.7309,-4.7309,-4.7309,-4.7309,-4.7309,-4.7309,-4.7309,-4.7309,-4.7309,-4.7309,-4.7309,-4.7309,-4.6916,-4.6358,-4.6358,-4.5987,-4.5522,-4.6166,-4.5943,-4.5522,-4.6166,-4.6121,-4.5853,-4.5928,-4.6032,-4.6181,-4.6284,-4.6136,-4.6166,-4.7003,-4.7161,-4.7075,-4.6623,-4.6491,-4.6491,-4.6491,-4.6711,-4.6901,-4.6901,-4.6936,-4.6761,-4.6093,-4.5758,-4.5357,-4.4718,-4.461,-4.461,-4.461,-4.461,-4.461,-4.461,-4.4228,-4.3981,-4.3981,-4.3615,-4.3521,-4.3942,-4.478,-4.5326,-4.5572,-4.5988,-4.6542,-4.7219,-4.7481,-4.7819,-4.8235,-4.8496,-4.862,-4.862,-4.862,-4.862,-1.7146,-1.8623,0.0,0.0,0.0,0.0,0.0,0.0,0.0,0.0,0.0,0.0,0.0,0.0,0.0,0.0,0.0,0.0,0.0,0.0,0.0,0.0,0.0,0.0,0.0,0.0,0.0,0.0,0.0,0.0,0.0,0.0,0.0,0.0,0.0,-4.6829,-4.6829,-4.6829,-4.6682,-4.6373,-4.6373,-4.6697,-4.7309,-4.7309,-4.7309,-4.7309,-4.7309,-4.7121,-4.6829,-4.6829,-4.6638,-4.6373,-4.6373,-4.5943,-4.5326,-4.5326,-4.49,-4.4406,-4.5098,-4.4869,-4.4406,-4.5084,-4.5235,-4.5098,-4.5098,-4.5278,-4.5458,-4.5307,-4.5155,-4.5324,-4.6418,-4.6653,-4.6477,-4.5973,-4.5838,-4.5838,-4.5838,-4.6018,-4.6196,-4.6196,-4.6602,-4.6629,-4.5755,-4.5591,-4.5314,-4.4427,-4.4097,-4.3966,-4.3966,-4.3966,-4.3966,-4.3966,-4.3576,-4.3299,-4.3299,-4.3046,-4.3086,-4.3591,-4.4854,-4.568,-4.5895,-4.6557,-4.7234,-4.7912,-4.7927,-4.8142,-4.862,-4.862,-4.862,-4.862,-4.862,-4.862,-1.7369,-1.8048,0.0,0.0,0.0,0.0,0.0,0.0,0.0,0.0,0.0,0.0,0.0,0.0,0.0,0.0,0.0,0.0,0.0,0.0,0.0,0.0,0.0,0.0,0.0,0.0,0.0,0.0,0.0,0.0,0.0,0.0,0.0,0.0,0.0,0.0,-4.5779,-4.5779,-4.5267,-4.4312,-4.4312,-4.5341,-4.7266,-4.7266,-4.7266,-4.7266,-4.7266,-4.6741,-4.5779,-4.5779,-4.519,-4.4312,-4.4312,-4.4312,-4.4312,-4.4312,-4.4266,-4.4266,-4.4266,-4.4266,-4.4266,-4.4266,-4.434,-4.4355,-4.4355,-4.4879,-4.5353,-4.4837,-4.5539,-4.6167,-4.5007,-4.4555,-4.4411,-4.4411,-4.4411,-4.4411,-4.4411,-4.4954,-4.5504,-4.5504,-4.6624,-4.7156,-4.5789,-4.5574,-4.5147,-4.3786,-4.3006,-4.2589,-4.2589,-4.2589,-4.2589,-4.2589,-4.2589,-4.2589,-4.2589,-4.322,-4.3591,-4.3591,-4.4854,-4.5895,-4.6557,-4.7234,-4.7912,-4.8589,-4.8604,-4.8604,-4.862,-4.862,-4.862,-4.862,-4.862,-4.862,-1.7761,0.0,0.0,0.0,0.0,0.0,0.0,0.0,0.0,0.0,0.0,0.0,0.0,0.0,0.0,0.0,0.0,0.0,0.0,0.0,0.0,0.0,0.0,0.0,0.0,0.0,0.0,0.0,0.0,0.0,0.0,0.0,0.0,0.0,0.0,0.0,-4.4126,-4.4126,-4.4185,-4.4312,-4.4312,-4.4591,-4.5204,-4.5204,-4.5204,-4.525,-4.5928,-4.5644,-4.4716,-4.4716,-4.4591,-4.4312,-4.4312,-4.3876,-4.3211,-4.3211,-4.2806,-4.2297,-4.2985,-4.2757,-4.2297,-4.3033,-4.3047,-4.2798,-4.2798,-4.3184,-4.3642,-4.3485,-4.3695,-4.3965,-4.3918,-4.3885,-4.396,-4.4317,-4.4411,-4.4411,-4.4411,-4.4597,-4.4737,-4.4737,-4.5101,-4.5128,-4.4267,-4.4206,-4.3961,-4.3019,-4.2725,-4.2589,-4.2589,-4.2589,-4.2589,-4.2589,-4.2196,-4.2129,-4.2548,-4.24,-4.2659,-4.3551,-4.4431,-4.5203,-4.588,-4.6542,-4.7219,-4.7896,-4.7912,-4.8142,-4.862,-4.862,-4.862,-4.862,-4.862,-4.862,-1.8855,0.0,0.0,0.0,0.0,0.0,0.0,0.0,0.0,0.0,0.0,0.0,0.0,0.0,0.0,0.0,0.0,0.0,0.0,0.0,0.0,0.0,0.0,0.0,0.0,0.0,0.0,0.0,0.0,0.0,0.0,0.0,0.0,0.0,0.0,0.0,-4.249,-4.249,-4.2468,-4.2432,-4.2432,-4.2432,-4.2506,-4.3714,-4.4312,-4.4312,-4.4531,-4.4238,-4.3687,-4.3286,-4.3095,-4.3095,-4.3095,-4.2757,-4.2186,-4.2186,-4.1819,-4.1411,-4.2003,-4.1832,-4.1411,-4.2016,-4.2164,-4.2079,-4.2079,-4.2484,-4.2838,-4.2631,-4.2741,-4.2935,-4.2991,-4.3314,-4.3757,-4.4256,-4.4411,-4.4411,-4.4411,-4.4411,-4.434,-4.4102,-4.4302,-4.4222,-4.3315,-4.3224,-4.3038,-4.2339,-4.2032,-4.1867,-4.1867,-4.1867,-4.1867,-4.1867,-4.1521,-4.1437,-4.1825,-4.1771,-4.202,-4.278,-4.3443,-4.3988,-4.4401,-4.5804,-4.6911,-4.7588,-4.7344,-4.7681,-4.862,-4.8313,-4.8355,-4.862,-4.862,-4.862,0.0,0.0,0.0,0.0,0.0,0.0,0.0,0.0,0.0,0.0,0.0,0.0,0.0,0.0,0.0,0.0,0.0,0.0,0.0,0.0,0.0,0.0,0.0,0.0,0.0,0.0,0.0,0.0,0.0,0.0,0.0,0.0,0.0,0.0,0.0,-4.0846,-4.0887,-4.0887,-4.0442,0.0,-3.9612,-3.9612,-3.9686,-4.2636,-4.4022,-4.4125,-4.3081,-4.2695,-4.2744,-4.1733,-4.1311,-4.1311,-4.1311,-4.1311,-4.1311,-4.1311,-4.1311,-4.1311,-4.1311,-4.1311,-4.1311,-4.1311,-4.1647,-4.2029,-4.2029,-4.2387,-4.2644,-4.2177,-4.2387,-4.2631,-4.2226,-4.2798,-4.3614,-4.4115,-4.4317,-4.4411,-4.4411,-4.4369,-4.4172,-4.361,-4.3916,-4.3889,-4.2697,-4.2495,-4.2308,-4.1691,-4.1071,-4.0702,-4.0702,-4.0702,-4.0702,-4.0702,-4.0702,-4.073,-4.0787,-4.1367,-4.1729,-4.1771,-4.2278,-4.2589,-4.2589,-4.4921,-4.6567,-4.7323,-4.675,-4.7084,-4.8435,-4.7794,-4.7836,-4.8435,-4.8435,-4.8435,0.0,0.0,0.0,0.0,0.0,0.0,0.0,0.0,0.0,0.0,0.0,0.0,0.0,0.0,0.0,0.0,0.0,0.0,0.0,0.0,0.0,0.0,0.0,0.0,0.0,0.0,0.0,0.0,0.0,0.0,0.0,0.0,0.0,0.0,-3.8563,-3.8774,-3.9209,-3.9209,-3.9365,0.0,-3.9612,-3.9612,-3.9638,-4.0764,-4.1925,-4.3081,-4.2052,-4.2052,-4.2744,-4.1733,-4.1311,-4.1311,-4.1311,-4.1311,-4.1311,-4.1311,-4.1311,-4.1311,-4.1311,-4.1311,-4.1311,-4.1311,-4.1361,-4.1461,-4.1461,-4.156,-4.161,-4.1511,-4.156,-4.1696,-4.2029,-4.2262,-4.2568,-4.3115,-4.3846,-4.4411,-4.4411,-4.4031,-4.3652,-4.3526,-4.2817,-4.2144,-4.1876,-4.1424,-4.1057,-4.093,-4.0787,-4.0702,-4.0702,-4.0702,-4.0702,-4.0702,-4.0702,-4.0901,-4.1451,-4.1619,-4.1881,-4.24,-4.2522,-4.2589,-4.2589,-4.3138,-4.4003,-4.5228,-4.5082,-4.5672,-4.7034,-4.6914,-4.6898,-4.7034,-4.7034,-4.7034,0.0,0.0,0.0,0.0,0.0,0.0,0.0,0.0,0.0,0.0,0.0,0.0,0.0,0.0,0.0,0.0,0.0,0.0,0.0,0.0,0.0,0.0,0.0,0.0,0.0,0.0,0.0,0.0,0.0,0.0,0.0,0.0,0.0,0.0,-3.79,-3.8031,-3.8318,-3.8331,-3.8475,-3.8789,-3.8789,-3.8932,-3.9194,-3.9769,-4.0465,-4.1226,-4.0719,-4.0913,-4.1612,-4.1064,-4.105,-4.1311,-4.1311,-4.1311,-4.1311,-4.1311,-4.1311,-4.1311,-4.1311,-4.1311,-4.1311,-4.1311,-4.1311,-4.1311,-4.1311,-4.1311,-4.1311,-4.1311,-4.1311,-4.1361,-4.1647,-4.1881,-4.2177,-4.2435,-4.3115,-4.3703,-4.3703,-4.3205,-4.268,-4.2403,-4.1588,-4.0855,-4.0565,-4.0421,-4.043,-4.0659,-4.0702,-4.0702,-4.0702,-4.0702,-4.0702,-4.0702,-4.0702,-4.0816,-4.1198,-4.1241,-4.1353,-4.1673,-4.1701,-4.1701,-4.1701,-4.1701,-4.2611,-4.4549,-4.4297,-4.4926,-4.6603,-4.6269,-4.6269,-4.6603,-4.6603,-4.6603,0.0,0.0,0.0,0.0,0.0,0.0,0.0,0.0,0.0,0.0,0.0,0.0,0.0,0.0,0.0,0.0,0.0,0.0,0.0,0.0,0.0,0.0,0.0,0.0,0.0,0.0,0.0,0.0,0.0,0.0,0.0,0.0,-3.7743,-3.7743,-3.7848,-3.79,-3.79,-3.79,-3.79,-3.79,-3.79,-3.8135,-3.8593,-3.9089,-3.9416,-3.9612,-3.9612,-3.986,-4.0278,-4.0278,-4.0618,-4.1154,-4.1154,-4.1219,-4.1311,-4.1311,-4.1311,-4.1311,-4.1311,-4.1311,-4.1311,-4.1311,-4.1311,-4.1311,-4.1311,-4.1311,-4.1311,-4.1311,-4.1311,-4.1311,-4.1311,-4.1647,-4.1954,-4.1847,-4.2128,-4.2531,-4.2724,-4.2202,-4.155,-4.1061,-4.0445,-3.9875,-3.9386,-3.9601,-4.0039,-4.053,-4.0573,-4.0616,-4.0702,-4.0702,-4.0702,-4.0702,-4.0702,-4.0702,-4.0702,-4.0702,-4.0702,-4.0702,-4.0702,-4.0702,-4.0702,-4.0702,-4.1792,-4.4062,-4.366,-4.431,-4.6076,-4.5637,-4.5717,-4.6249,-4.6131,-4.6076,0.0,0.0,0.0,0.0,0.0,0.0,0.0,0.0,0.0,0.0,0.0,0.0,0.0,0.0,0.0,0.0,0.0,0.0,0.0,0.0,0.0,0.0,0.0,0.0,0.0,0.0,0.0,0.0,0.0,0.0,0.0,-3.6841,-3.7116,-3.7116,-3.7639,-3.79,-3.79,-3.79,-3.79,-3.79,-3.79,-3.7939,-3.8018,-3.8096,-3.8671,-3.9612,-3.9612,-3.9651,-3.9716,-3.9716,-4.0043,-4.054,-4.054,-4.0853,-4.1311,-4.1311,-4.1311,-4.1311,-4.1311,-4.1311,-4.1311,-4.1311,-4.1311,-4.1311,-4.1311,-4.1311,-4.1311,-4.1311,-4.1311,-4.1311,-4.1311,-4.1361,-4.128,-4.0756,-4.0674,-4.0967,-4.193,-4.1251,-4.0404,-4.0323,-3.9821,-3.9386,-3.9305,-3.9349,-3.9557,-3.9996,-4.0083,-4.0257,-4.0659,-4.0702,-4.0702,-4.0702,-4.0702,-4.0702,-4.0702,-4.0702,-4.0702,-4.0702,-4.0702,-4.0702,-4.0702,-4.0702,-4.1156,-4.2053,-4.2491,-4.3144,-4.4004,-4.4487,-4.4772,-4.4849,-4.4254,-4.4004,0.0,0.0,0.0,0.0,0.0,0.0,0.0,0.0,0.0,0.0,0.0,0.0,0.0,0.0,0.0,0.0,0.0,0.0,0.0,0.0,0.0,0.0,0.0,0.0,0.0,0.0,0.0,0.0,0.0,0.0,-3.6109,-3.6358,-3.6502,-3.6502,-3.6763,-3.705,-3.7403,-3.7403,-3.7573,-3.79,-3.79,-3.79,-3.79,-3.79,-3.8174,-3.8658,-3.8658,-3.8828,-3.9102,-3.9102,-3.9442,-3.9965,-3.9965,-4.0305,-4.0814,-4.0814,-4.1023,-4.1311,-4.1311,-4.1311,-4.1311,-4.1311,-4.1311,-4.1311,-4.1311,-4.1311,-4.1311,-4.1311,-4.1311,-4.1311,-4.1311,-4.1063,-4.0749,-4.0474,-3.9926,-3.9598,-4.0072,-3.9708,-3.9256,-3.8964,-3.8698,-3.8602,-3.8859,-3.8904,-3.9172,-3.9865,-3.9996,-4.0083,-4.0257,-4.03,-4.0213,-3.9952,-4.0126,-4.03,-4.03,-4.0573,-4.0702,-4.0702,-4.0702,-4.0702,-4.0702,-4.0702,-4.083,-4.1114,-4.1757,-4.24,-4.3046,-4.3324,-4.3482,-4.3482,-4.3235,-4.3076,0.0,0.0,0.0,0.0,0.0,0.0,0.0,0.0,0.0,0.0,0.0,0.0,0.0,0.0,0.0,0.0,0.0,0.0,0.0,0.0,0.0,0.0,0.0,0.0,0.0,0.0,0.0,0.0,0.0,0.0,-3.5678,-3.5809,-3.59,-3.59,-3.6031,-3.6319,-3.6776,-3.6776,-3.7077,-3.7678,-3.7678,-3.7756,-3.79,-3.79,-3.79,-3.79,-3.79,-3.8135,-3.8501,-3.8501,-3.8854,-3.9377,-3.9377,-3.9716,-4.0226,-4.0357,-4.0697,-4.1102,-4.1259,-4.1311,-4.1311,-4.1311,-4.1311,-4.1311,-4.1311,-4.1311,-4.1285,-4.1128,-4.1089,-4.105,-4.0919,-4.0553,-4.0174,-4.0017,-3.9324,-3.8671,-3.854,-3.8501,-3.8383,-3.7978,-3.79,-3.7992,-3.8344,-3.8434,-3.8692,-3.9526,-3.9645,-3.9689,-3.9821,-3.9821,-3.9733,-3.9526,-3.9689,-3.9865,-3.9996,-4.03,-4.053,-4.053,-4.0616,-4.0702,-4.0702,-4.0702,-4.0702,-4.0702,-4.1198,-4.1771,-4.236,-4.2522,-4.2589,-4.2589,-4.2496,-4.243,0.0,0.0,0.0,0.0,0.0,0.0,0.0,0.0,0.0,0.0,0.0,0.0,0.0,0.0,0.0,0.0,0.0,0.0,0.0,0.0,0.0,0.0,0.0,0.0,0.0,0.0,0.0,0.0,0.0,0.0,-3.4489,-3.5025,-3.5338,-3.5338,-3.5835,-3.6123,-3.6149,-3.6149,-3.6449,-3.705,-3.705,-3.7351,-3.79,-3.79,-3.79,-3.79,-3.79,-3.7926,-3.7952,-3.7952,-3.8266,-3.8762,-3.8762,-3.9115,-3.9716,-4.0226,-4.0435,-4.054,-4.1115,-4.1311,-4.1311,-4.1311,-4.1311,-4.1311,-4.1311,-4.1311,-4.1193,-4.0618,-4.0461,-4.0344,-3.9834,-3.9677,-3.9507,-3.8932,-3.8749,-3.8566,-3.8057,-3.7952,-3.7939,-3.7913,-3.79,-3.79,-3.7946,-3.7946,-3.8083,-3.8602,-3.8692,-3.8827,-3.9305,-3.9349,-3.9526,-3.9908,-3.9601,-3.9526,-3.9952,-3.9996,-4.0039,-4.0039,-4.043,-4.0702,-4.0702,-4.0702,-4.0702,-4.0702,-4.073,-4.1071,-4.1729,-4.2319,-4.2589,-4.2603,-4.202,-4.1729,0.0,0.0,0.0,0.0,0.0,0.0,0.0,0.0,0.0,0.0,0.0,0.0,0.0,0.0,0.0,0.0,0.0,0.0,0.0,0.0,0.0,0.0,0.0,0.0,0.0,0.0,0.0,0.0,0.0,0.0,-3.4397,-3.4607,-3.4724,-3.4724,-3.4907,-3.5195,-3.5587,-3.5926,-3.6214,-3.6423,-3.6423,-3.6737,-3.7325,-3.7325,-3.7534,-3.79,-3.79,-3.79,-3.79,-3.79,-3.8018,-3.8187,-3.8187,-3.854,-3.905,-3.9246,-3.956,-3.9926,-4.0148,-4.0226,-4.0226,-4.0226,-4.0226,-4.0226,-4.0226,-4.0226,-4.0174,-3.9965,-3.9899,-3.9847,-3.9664,-3.9324,-3.8893,-3.8331,-3.8187,-3.8135,-3.7952,-3.79,-3.79,-3.79,-3.79,-3.79,-3.79,-3.79,-3.8083,-3.8512,-3.8859,-3.8993,-3.8859,-3.9127,-3.9127,-3.8692,-3.8782,-3.8904,-3.9083,-3.9394,-3.9557,-3.9557,-3.9689,-3.9777,-3.9777,-4.0083,-4.0257,-4.0257,-4.0573,-4.083,-4.1071,-4.1269,-4.1381,-4.1395,-4.1142,-4.1071,0.0,0.0,0.0,0.0,0.0,0.0,0.0,0.0,0.0,0.0,0.0,0.0,0.0,0.0,0.0,0.0,0.0,0.0,0.0,0.0,0.0,0.0,0.0,0.0,0.0,0.0,0.0,0.0,0.0,0.0,-3.4123,-3.4123,-3.4201,-3.4384,-3.4397,-3.458,-3.4986,-3.5351,-3.5639,-3.5835,-3.5835,-3.6136,-3.6711,-3.692,-3.722,-3.7612,-3.7808,-3.79,-3.79,-3.79,-3.79,-3.79,-3.79,-3.8122,-3.8462,-3.8645,-3.8958,-3.9337,-3.9534,-3.9612,-3.9612,-3.9612,-3.9612,-3.9612,-3.9612,-3.9612,-3.9573,-3.9364,-3.9311,-3.9272,-3.9089,-3.8736,-3.8344,-3.7991,-3.79,-3.79,-3.79,-3.79,-3.79,-3.79,-3.79,-3.79,-3.79,-3.79,-3.7992,-3.8344,-3.8647,-3.8737,-3.8434,-3.8647,-3.8647,-3.8161,-3.8253,-3.8434,-3.8602,-3.8904,-3.9083,-3.9083,-3.9216,-3.9305,-3.9305,-3.9601,-3.9821,-3.9996,-4.03,-4.053,-4.0702,-4.0702,-4.0702,-4.0702,-4.0702,-4.0702,0.0,0.0,0.0,0.0,0.0,0.0,0.0,0.0,0.0,0.0,0.0,0.0,0.0,0.0,0.0,0.0,0.0,0.0,0.0,0.0,0.0,0.0,0.0,0.0,0.0,0.0,0.0,0.0,0.0,-3.2947,-3.3535,-3.3587,-3.3835,-3.4358,-3.4384,-3.4397,-3.4397,-3.4397,-3.4685,-3.5273,-3.5273,-3.5561,-3.6109,-3.6684,-3.6959,-3.7011,-3.7612,-3.7874,-3.7874,-3.79,-3.79,-3.79,-3.79,-3.79,-3.7965,-3.8488,-3.8684,-3.8776,-3.9364,-3.956,-3.956,-3.956,-3.956,-3.956,-3.956,-3.956,-3.9442,-3.8854,-3.8684,-3.8566,-3.8044,-3.79,-3.79,-3.79,-3.79,-3.79,-3.79,-3.79,-3.79,-3.79,-3.79,-3.79,-3.79,-3.79,-3.79,-3.79,-3.79,-3.79,-3.79,-3.79,-3.8083,-3.8512,-3.8161,-3.8083,-3.8557,-3.8557,-3.8557,-3.8557,-3.8993,-3.9261,-3.9261,-3.9261,-3.9482,-3.9952,-3.9952,-4.0213,-4.0659,-4.0702,-4.0702,-4.0702,-4.0702,-4.0702,-1.3455,0.0,0.0,0.0,0.0,0.0,0.0,0.0,0.0,0.0,0.0,0.0,0.0,0.0,0.0,0.0,0.0,0.0,0.0,0.0,0.0,0.0,0.0,0.0,0.0,0.0,0.0,0.0,-3.2685,-3.2764,-3.2934,-3.3352,-3.3666,-3.3809,-3.4188,-3.4397,-3.4397,-3.4397,-3.4476,-3.4646,-3.4646,-3.4959,-3.5534,-3.5691,-3.5979,-3.6384,-3.6998,-3.726,-3.7286,-3.773,-3.79,-3.79,-3.79,-3.79,-3.7926,-3.807,-3.8122,-3.8161,-3.8318,-3.8383,-3.8383,-3.8383,-3.8383,-3.8383,-3.8383,-3.8383,-3.8344,-3.8174,-3.8122,-3.8096,-3.7939,-3.79,-3.79,-3.79,-3.79,-3.79,-3.79,-3.79,-3.79,-3.79,-3.79,-3.79,-3.79,-3.79,-3.79,-3.79,-3.8207,-3.8298,-3.7946,-3.8207,-3.8344,-3.8129,-3.7992,-3.7946,-3.8083,-3.8083,-3.8083,-3.8083,-3.8207,-3.8298,-3.8298,-3.8602,-3.8872,-3.8993,-3.9305,-3.9557,-3.9689,-4.0343,-4.0702,-4.0702,-4.0702,-4.0702,0.0,0.0,0.0,0.0,0.0,0.0,0.0,0.0,0.0,0.0,0.0,0.0,0.0,0.0,0.0,0.0,0.0,0.0,0.0,0.0,0.0,0.0,0.0,0.0,0.0,0.0,0.0,0.0,-3.1824,-3.2006,-3.2319,-3.2894,-3.3208,-3.3208,-3.377,-3.4058,-3.4058,-3.428,-3.4397,-3.4397,-3.4397,-3.458,-3.4933,-3.5182,-3.5469,-3.5796,-3.6371,-3.6776,-3.7037,-3.7377,-3.7678,-3.79,-3.79,-3.79,-3.79,-3.79,-3.79,-3.79,-3.79,-3.79,-3.79,-3.79,-3.79,-3.79,-3.79,-3.79,-3.79,-3.79,-3.79,-3.79,-3.79,-3.79,-3.79,-3.79,-3.79,-3.79,-3.79,-3.79,-3.79,-3.79,-3.79,-3.79,-3.79,-3.79,-3.79,-3.79,-3.8116,-3.8207,-3.7946,-3.8116,-3.8207,-3.7946,-3.79,-3.79,-3.79,-3.79,-3.79,-3.79,-3.79,-3.79,-3.79,-3.8161,-3.8389,-3.8602,-3.8859,-3.9083,-3.9305,-3.9865,-4.0126,-4.0126,-4.0126,-4.0126,0.0,0.0,0.0,0.0,0.0,0.0,0.0,-1.9317,0.0,0.0,0.0,0.0,0.0,0.0,0.0,0.0,0.0,0.0,0.0,0.0,0.0,0.0,0.0,0.0,0.0,0.0,-3.066,-3.0482,-3.0647,-3.1032,-3.168,-3.2293,-3.2594,-3.2594,-3.3182,-3.3496,-3.3496,-3.4031,-3.4306,-3.4306,-3.4371,-3.4397,-3.441,-3.4959,-3.5195,-3.5221,-3.577,-3.6319,-3.6815,-3.6881,-3.7299,-3.79,-3.79,-3.79,-3.79,-3.79,-3.79,-3.79,-3.79,-3.79,-3.79,-3.79,-3.79,-3.79,-3.79,-3.79,-3.79,-3.79,-3.79,-3.79,-3.79,-3.79,-3.79,-3.79,-3.79,-3.79,-3.79,-3.79,-3.79,-3.79,-3.79,-3.79,-3.79,-3.79,-3.79,-3.79,-3.79,-3.79,-3.79,-3.79,-3.79,-3.79,-3.79,-3.79,-3.79,-3.79,-3.79,-3.79,-3.79,-3.79,-3.79,-3.79,-3.8083,-3.8512,-3.8512,-3.8737,-3.9127,-3.9261,-3.9305,-3.9305,-3.9305,-3.9305,0.0,0.0,0.0,0.0,0.0,0.0,0.0,-1.7885,0.0,0.0,0.0,0.0,0.0,0.0,0.0,0.0,0.0,0.0,0.0,0.0,0.0,0.0,0.0,0.0,0.0,0.0,-3.0911,-3.0874,-3.0911,-3.1001,-3.1143,-3.1692,-3.1967,-3.1967,-3.2568,-3.2868,-3.2868,-3.3456,-3.3757,-3.3757,-3.4188,-3.4397,-3.4397,-3.4515,-3.458,-3.4607,-3.5195,-3.5521,-3.5665,-3.6096,-3.692,-3.79,-3.79,-3.79,-3.79,-3.79,-3.79,-3.79,-3.79,-3.79,-3.79,-3.79,-3.79,-3.79,-3.79,-3.79,-3.79,-3.79,-3.79,-3.79,-3.79,-3.79,-3.79,-3.79,-3.79,-3.79,-3.79,-3.79,-3.79,-3.79,-3.79,-3.79,-3.79,-3.79,-3.79,-3.79,-3.79,-3.79,-3.79,-3.79,-3.79,-3.79,-3.79,-3.79,-3.79,-3.79,-3.79,-3.79,-3.79,-3.79,-3.79,-3.79,-3.7946,-3.8037,-3.8037,-3.8083,-3.8161,-3.8904,-3.9305,-3.9305,-3.9305,-3.9305,0.0,0.0,0.0,-1.9974,0.0,0.0,0.0,0.0,0.0,0.0,0.0,0.0,0.0,0.0,0.0,0.0,0.0,0.0,0.0,0.0,0.0,0.0,0.0,0.0,0.0,0.0,-3.0337,-3.0545,-3.0647,-3.071,-3.071,-3.1147,-3.1341,-3.1265,-3.1889,-3.2267,-3.2267,-3.2842,-3.33,-3.3587,-3.3862,-3.4136,-3.4397,-3.4397,-3.4397,-3.441,-3.4724,-3.5012,-3.5312,-3.5587,-3.6214,-3.7037,-3.7338,-3.7639,-3.79,-3.79,-3.79,-3.79,-3.79,-3.79,-3.79,-3.79,-3.79,-3.79,-3.79,-3.79,-3.79,-3.79,-3.79,-3.79,-3.79,-3.79,-3.79,-3.79,-3.79,-3.79,-3.79,-3.79,-3.79,-3.79,-3.79,-3.79,-3.79,-3.79,-3.79,-3.79,-3.79,-3.79,-3.79,-3.79,-3.79,-3.79,-3.79,-3.79,-3.79,-3.79,-3.79,-3.79,-3.79,-3.79,-3.79,-3.79,-3.79,-3.79,-3.79,-3.79,-3.79,-3.8389,-3.8602,-3.8602,-3.8602,-3.8602,0.0,0.0,0.0,0.0,0.0,-2.0476,0.0,0.0,0.0,0.0,0.0,0.0,0.0,0.0,0.0,0.0,0.0,0.0,0.0,0.0,0.0,0.0,0.0,0.0,0.0,0.0,-2.9129,-2.977,-2.9781,-2.9931,-3.0265,-3.0696,-3.0874,-3.0773,-3.1329,-3.1641,-3.1641,-3.2241,-3.2777,-3.326,-3.3483,-3.3822,-3.4241,-3.4345,-3.4397,-3.4397,-3.4397,-3.4672,-3.5129,-3.5129,-3.5443,-3.6018,-3.6724,-3.7299,-3.7743,-3.7861,-3.79,-3.79,-3.79,-3.79,-3.79,-3.79,-3.79,-3.79,-3.79,-3.79,-3.79,-3.79,-3.79,-3.79,-3.79,-3.79,-3.79,-3.79,-3.79,-3.79,-3.79,-3.79,-3.79,-3.79,-3.79,-3.79,-3.79,-3.79,-3.79,-3.79,-3.79,-3.79,-3.79,-3.79,-3.79,-3.79,-3.79,-3.79,-3.79,-3.79,-3.79,-3.79,-3.79,-3.79,-3.79,-3.79,-3.79,-3.79,-3.79,-3.79,-3.79,-3.79,-3.79,-3.79,-3.79,-3.79,0.0,0.0,0.0,0.0,-2.2665,0.0,0.0,0.0,0.0,0.0,0.0,0.0,0.0,0.0,0.0,0.0,0.0,0.0,0.0,0.0,0.0,0.0,0.0,0.0,0.0,0.0,0.0,-2.873,-2.7994,-2.819,-2.9794,-3.0413,-3.0811,-3.0949,-3.1052,-3.1078,-3.1078,-3.1615,-3.1941,-3.2019,-3.3091,-3.3626,-3.3705,-3.4175,-3.4397,-3.4397,-3.4397,-3.4437,-3.4502,-3.4502,-3.4842,-3.5495,-3.658,-3.705,-3.7168,-3.7704,-3.79,-3.79,-3.79,-3.79,-3.79,-3.79,-3.79,-3.79,-3.79,-3.79,-3.79,-3.79,-3.79,-3.79,-3.79,-3.79,-3.79,-3.79,-3.79,-3.79,-3.79,-3.79,-3.79,-3.79,-3.79,-3.79,-3.79,-3.79,-3.79,-3.79,-3.79,-3.79,-3.79,-3.79,-3.79,-3.79,-3.79,-3.79,-3.79,-3.79,-3.79,-3.79,-3.79,-3.79,-3.79,-3.79,-3.79,-3.79,-3.79,-3.79,-3.79,-3.79,-3.79,-3.79,-3.79,-3.79,0.0,0.0,0.0,0.0,0.0,0.0,0.0,0.0,-1.9256,0.0,0.0,0.0,0.0,0.0,0.0,0.0,0.0,0.0,0.0,0.0,0.0,0.0,0.0,0.0,0.0,0.0,0.0,0.0,0.0,-2.6965,-2.8293,-2.9394,-3.0186,-3.0621,-3.0761,-3.0874,-3.0986,-3.1222,-3.1471,-3.181,-3.2293,-3.2934,-3.36,-3.3822,-3.411,-3.4397,-3.4397,-3.4397,-3.4397,-3.4397,-3.4554,-3.4855,-3.5691,-3.6201,-3.6515,-3.6763,-3.709,-3.7377,-3.7377,-3.7612,-3.79,-3.79,-3.79,-3.79,-3.79,-3.79,-3.79,-3.79,-3.79,-3.79,-3.79,-3.79,-3.79,-3.79,-3.79,-3.79,-3.79,-3.79,-3.79,-3.79,-3.79,-3.79,-3.79,-3.79,-3.79,-3.79,-3.79,-3.79,-3.79,-3.79,-3.79,-3.79,-3.79,-3.79,-3.79,-3.79,-3.79,-3.79,-3.79,-3.79,-3.79,-3.79,-3.79,-3.79,-3.79,-3.79,-3.79,-3.79,-3.79,-3.79,-3.79,-3.79,-2.3096,0.0,0.0,0.0,0.0,0.0,0.0,0.0,0.0,0.0,0.0,0.0,0.0,0.0,0.0,0.0,0.0,0.0,0.0,0.0,0.0,0.0,0.0,0.0,0.0,0.0,0.0,0.0,0.0,0.0,-2.6832,-2.8231,-2.9358,-3.0112,-3.0494,-3.0773,-3.0911,-3.0986,-3.1196,-3.1575,-3.1732,-3.2241,-3.3117,-3.3443,-3.3809,-3.4188,-3.4332,-3.4397,-3.4397,-3.4397,-3.4397,-3.4437,-3.4881,-3.5286,-3.5678,-3.5979,-3.6384,-3.6763,-3.6763,-3.7155,-3.7691,-3.7848,-3.79,-3.79,-3.79,-3.79,-3.79,-3.79,-3.79,-3.79,-3.79,-3.79,-3.79,-3.79,-3.79,-3.79,-3.79,-3.79,-3.79,-3.79,-3.79,-3.79,-3.79,-3.79,-3.79,-3.79,-3.79,-3.79,-3.79,-3.79,-3.79,-3.79,-3.79,-3.79,-3.79,-3.79,-3.79,-3.79,-3.79,-3.79,-3.79,-3.79,-3.79,-3.79,-3.79,-3.79,-3.79,-3.79,-3.79,-3.79,-3.79,-3.79,0.0,0.0,0.0,-2.109,0.0,0.0,0.0,0.0,-1.9818,0.0,0.0,0.0,0.0,0.0,0.0,-1.742,0.0,0.0,0.0,0.0,0.0,0.0,0.0,0.0,0.0,0.0,0.0,0.0,0.0,0.0,-2.5762,-2.7027,-2.8216,-2.9486,-3.0288,-3.0698,-3.0698,-3.0911,-3.0999,-3.1013,-3.1536,-3.1823,-3.1902,-3.3077,-3.36,-3.3639,-3.4175,-3.4397,-3.4397,-3.4397,-3.4397,-3.4397,-3.441,-3.4437,-3.458,-3.5691,-3.6109,-3.6136,-3.6136,-3.6528,-3.7129,-3.7717,-3.79,-3.79,-3.79,-3.79,-3.79,-3.79,-3.79,-3.79,-3.79,-3.79,-3.79,-3.79,-3.79,-3.79,-3.79,-3.79,-3.79,-3.79,-3.79,-3.79,-3.79,-3.79,-3.79,-3.79,-3.79,-3.79,-3.79,-3.79,-3.79,-3.79,-3.79,-3.79,-3.79,-3.79,-3.79,-3.79,-3.79,-3.79,-3.79,-3.79,-3.79,-3.79,-3.79,-3.79,-3.79,-3.79,-3.79,-3.79,-3.79,-3.79,0.0,0.0,-2.3732,-2.1717,0.0,0.0,0.0,0.0,0.0,0.0,0.0,0.0,0.0,0.0,-1.7352,-1.6812,-1.6424,0.0,0.0,0.0,0.0,0.0,0.0,0.0,0.0,0.0,0.0,0.0,0.0,0.0,0.0,-2.6177,-2.7822,-2.8751,-2.9781,-3.0432,-3.0698,-3.0773,-3.0874,-3.0986,-3.1182,-3.147,-3.181,-3.2215,-3.2855,-3.36,-3.3783,-3.4071,-3.4397,-3.4397,-3.4397,-3.4397,-3.4397,-3.4397,-3.445,-3.4829,-3.5221,-3.5626,-3.5979,-3.624,-3.6449,-3.6645,-3.6711,-3.6789,-3.7181,-3.7312,-3.739,-3.7795,-3.79,-3.79,-3.79,-3.79,-3.79,-3.79,-3.79,-3.79,-3.79,-3.79,-3.79,-3.79,-3.79,-3.79,-3.79,-3.79,-3.79,-3.79,-3.79,-3.79,-3.79,-3.79,-3.79,-3.79,-3.79,-3.79,-3.79,-3.79,-3.79,-3.79,-3.79,-3.79,-3.79,-3.79,-3.79,-3.79,-3.79,-3.79,-3.79,-3.79,-3.79,-3.79,-3.79,-3.79,-2.3463,-2.3798,0.0,-2.1882,-2.1232,0.0,-1.794,0.0,0.0,0.0,0.0,0.0,0.0,0.0,0.0,-1.6899,-1.6058,0.0,0.0,0.0,0.0,0.0,0.0,0.0,0.0,0.0,-1.7438,-1.8832,0.0,0.0,0.0,0.0,-2.6697,-2.7974,-2.9137,-3.0024,-3.047,-3.0622,-3.0773,-3.0874,-3.0986,-3.1182,-3.1497,-3.1706,-3.2215,-3.2986,-3.3404,-3.3796,-3.4123,-3.4319,-3.4397,-3.4397,-3.4397,-3.4397,-3.4397,-3.4397,-3.4646,-3.5051,-3.5626,-3.5822,-3.5848,-3.6044,-3.6109,-3.6175,-3.6567,-3.6684,-3.6815,-3.7416,-3.7586,-3.7639,-3.7848,-3.79,-3.79,-3.79,-3.79,-3.79,-3.79,-3.79,-3.79,-3.79,-3.79,-3.79,-3.79,-3.79,-3.79,-3.79,-3.79,-3.79,-3.79,-3.79,-3.79,-3.79,-3.79,-3.79,-3.79,-3.79,-3.79,-3.79,-3.79,-3.79,-3.79,-3.79,-3.79,-3.79,-3.79,-3.79,-3.79,-3.79,-3.79,-3.79,-3.79,-3.79]}]]